[[{"header":{"parameterUnit":"m.s-1","parameterCategory":1,"la1":30.6,"la2":28.766,"lo1":-90.7593,"lo2":-88.6598,"dy":0.0162,"dx":0.0183,"nx":116,"ny":114,"refTime":"2024-05-16T06:00:00:Z","depth":0,"parameterNumber":2,"parameterNumberName":"U-component_of_WINDS"},"data":[0.0,0.0,0.0,0.0,0.0,0.0,0.0,0.0,0.0,0.0,0.0,0.0,0.0,0.0,0.0,0.0,0.0,0.0,0.0,0.0,0.0,0.0,0.0,0.0,0.0,0.0,0.0,0.0,0.0,0.0,0.0,0.0,0.0,0.0,0.0,0.0,0.0,0.0,0.0,0.0,0.0,0.0,0.0,0.0,0.0,0.0,0.0,0.0,0.0,0.0,0.0,0.0,0.0,0.0,0.0,0.0,0.0,0.0,0.0,0.0,0.0,0.0,0.0,0.0,0.0,0.0,0.0,0.0,0.0,0.0,0.0,0.0,0.0,0.0,0.0,0.0,0.0,0.0,0.0,0.0,0.0,0.0,0.0,0.0,0.0,0.0,0.0,0.0,0.0,0.0,0.0,0.0,0.0,0.0,0.0,0.0,0.0,0.0,0.0,0.0,0.0,0.0,0.0,0.0,0.0,0.0,0.0,0.0,0.0,0.0,0.0,0.0,0.0,0.0,0.0,0.0,0.0,0.0,0.0,0.0,0.0,0.0,0.0,0.0,0.0,0.0,0.0,0.0,0.0,0.0,0.0,0.0,0.0,0.0,0.0,0.0,0.0,0.0,0.0,0.0,0.0,0.0,0.0,0.0,0.0,0.0,0.0,0.0,0.0,0.0,0.0,0.0,0.0,0.0,0.0,0.0,0.0,0.0,0.0,0.0,0.0,0.0,0.0,0.0,0.0,0.0,0.0,0.0,0.0,0.0,0.0,0.0,0.0,0.0,0.0,0.0,0.0,0.0,0.0,0.0,0.0,0.0,0.0,0.0,0.0,0.0,0.0,0.0,0.0,0.0,0.0,0.0,0.0,0.0,0.0,0.0,0.0,0.0,0.0,0.0,0.0,0.0,0.0,0.0,0.0,0.0,0.0,0.0,0.0,0.0,0.0,0.0,0.0,0.0,0.0,0.0,0.0,0.0,0.0,0.0,0.0,0.0,0.0,0.0,0.0,0.0,0.0,0.0,0.0,0.0,0.0,0.0,0.0,0.0,0.0,0.0,0.0,0.0,0.0,0.0,0.0,0.0,0.0,0.0,0.0,0.0,0.0,0.0,0.0,0.0,0.0,0.0,0.0,0.0,0.0,0.0,0.0,0.0,0.0,0.0,0.0,0.0,0.0,0.0,0.0,0.0,0.0,0.0,0.0,0.0,0.0,0.0,0.0,0.0,0.0,0.0,0.0,0.0,0.0,0.0,0.0,0.0,0.0,0.0,0.0,0.0,0.0,0.0,0.0,0.0,0.0,0.0,0.0,0.0,0.0,0.0,0.0,0.0,0.0,0.0,0.0,0.0,0.0,0.0,0.0,0.0,0.0,0.0,0.0,0.0,0.0,0.0,0.0,0.0,0.0,0.0,0.0,0.0,0.0,0.0,0.0,0.0,0.0,0.0,0.0,0.0,0.0,0.0,0.0,0.0,0.0,0.0,0.0,0.0,0.0,0.0,0.0,0.0,0.0,0.0,0.0,0.0,0.0,0.0,0.0,0.0,0.0,0.0,0.0,0.0,0.0,0.0,0.0,0.0,0.0,0.0,0.0,0.0,0.0,0.0,0.0,0.0,0.0,0.0,0.0,0.0,0.0,0.0,0.0,0.0,0.0,0.0,0.0,0.0,0.0,0.0,0.0,0.0,0.0,0.0,0.0,0.0,0.0,0.0,0.0,0.0,0.0,0.0,0.0,0.0,0.0,0.0,0.0,0.0,0.0,0.0,0.0,0.0,0.0,0.0,0.0,0.0,0.0,0.0,0.0,0.0,0.0,0.0,0.0,0.0,0.0,0.0,0.0,0.0,0.0,0.0,0.0,0.0,0.0,0.0,0.0,0.0,0.0,0.0,0.0,0.0,0.0,0.0,0.0,0.0,0.0,0.0,0.0,0.0,0.0,0.0,0.0,0.0,0.0,0.0,0.0,0.0,0.0,0.0,0.0,0.0,0.0,0.0,0.0,0.0,0.0,0.0,0.0,0.0,0.0,0.0,0.0,0.0,0.0,0.0,0.0,0.0,0.0,0.0,0.0,0.0,0.0,0.0,0.0,0.0,0.0,0.0,0.0,0.0,0.0,0.0,0.0,0.0,0.0,0.0,0.0,0.0,0.0,0.0,0.0,0.0,0.0,0.0,0.0,0.0,0.0,0.0,0.0,0.0,0.0,0.0,0.0,0.0,0.0,0.0,0.0,0.0,0.0,0.0,0.0,0.0,0.0,0.0,0.0,0.0,0.0,0.0,0.0,0.0,0.0,0.0,0.0,0.0,0.0,0.0,0.0,0.0,0.0,0.0,0.0,0.0,0.0,0.0,0.0,0.0,0.0,0.0,0.0,0.0,0.0,0.0,0.0,0.0,0.0,0.0,0.0,0.0,0.0,0.0,0.0,0.0,0.0,0.0,0.0,0.0,0.0,0.0,0.0,0.0,0.0,0.0,0.0,0.0,0.0,0.0,0.0,0.0,0.0,0.0,0.0,0.0,0.0,0.0,0.0,0.0,0.0,0.0,0.0,0.0,0.0,0.0,0.0,0.0,0.0,0.0,0.0,0.0,0.0,0.0,0.0,0.0,0.0,0.0,0.0,0.0,0.0,0.0,0.0,0.0,0.0,0.0,0.0,0.0,0.0,0.0,0.0,0.0,0.0,0.0,0.0,0.0,0.0,0.0,0.0,0.0,0.0,0.0,0.0,0.0,0.0,0.0,0.0,0.0,0.0,0.0,0.0,0.0,0.0,0.0,0.0,0.0,0.0,0.0,0.0,0.0,0.0,0.0,0.0,0.0,0.0,0.0,0.0,0.0,0.0,0.0,0.0,0.0,0.0,0.0,0.0,0.0,0.0,0.0,0.0,0.0,0.0,0.0,0.0,0.0,0.0,0.0,0.0,0.0,0.0,0.0,0.0,0.0,0.0,0.0,0.0,0.0,0.0,0.0,0.0,0.0,0.0,0.0,0.0,0.0,0.0,0.0,0.0,0.0,0.0,0.0,0.0,0.0,0.0,0.0,0.0,0.0,0.0,0.0,0.0,0.0,0.0,0.0,0.0,0.0,0.0,0.0,0.0,0.0,0.0,0.0,0.0,0.0,0.0,0.0,0.0,0.0,0.0,0.0,0.0,0.0,0.0,0.0,0.0,0.0,0.0,0.0,0.0,0.0,0.0,0.0,0.0,0.0,0.0,0.0,0.0,0.0,0.0,0.0,0.0,0.0,0.0,0.0,0.0,0.0,0.0,0.0,0.0,0.0,0.0,0.0,0.0,0.0,0.0,0.0,0.0,0.0,0.0,0.0,0.0,0.0,0.0,0.0,0.0,0.0,0.0,0.0,0.0,0.0,0.0,0.0,0.0,0.0,0.0,0.0,0.0,0.0,0.0,0.0,0.0,0.0,0.0,0.0,0.0,0.0,0.0,0.0,0.0,0.0,0.0,0.0,0.0,0.0,0.0,0.0,0.0,0.0,0.0,0.0,0.0,0.0,0.0,0.0,0.0,0.0,0.0,0.0,0.0,0.0,0.0,0.0,0.0,0.0,0.0,0.0,0.0,0.0,0.0,0.0,0.0,0.0,0.0,0.0,0.0,0.0,0.0,0.0,0.0,0.0,0.0,0.0,0.0,0.0,0.0,0.0,0.0,0.0,0.0,0.0,0.0,0.0,0.0,0.0,0.0,0.0,0.0,0.0,0.0,0.0,0.0,0.0,0.0,0.0,0.0,0.0,0.0,0.0,0.0,0.0,0.0,0.0,0.0,0.0,0.0,0.0,0.0,0.0,0.0,0.0,0.0,0.0,0.0,0.0,0.0,0.0,0.0,0.0,0.0,0.0,0.0,0.0,0.0,0.0,0.0,0.0,0.0,0.0,0.0,0.0,0.0,0.0,0.0,0.0,0.0,0.0,0.0,0.0,0.0,0.0,0.0,0.0,0.0,0.0,0.0,0.0,0.0,0.0,0.0,0.0,0.0,0.0,0.0,0.0,0.0,0.0,0.0,0.0,0.0,0.0,0.0,0.0,0.0,0.0,0.0,0.0,0.0,0.0,0.0,0.0,0.0,0.0,0.0,0.0,0.0,0.0,0.0,0.0,0.0,0.0,0.0,0.0,0.0,0.0,0.0,0.0,0.0,0.0,0.0,0.0,0.0,0.0,0.0,0.0,0.0,0.0,0.0,0.0,0.0,0.0,0.0,0.0,0.0,0.0,0.0,0.0,0.0,0.0,0.0,0.0,0.0,0.0,0.0,0.0,0.0,0.0,0.0,0.0,0.0,0.0,0.0,0.0,0.0,0.0,0.0,0.0,0.0,0.0,0.0,0.0,0.0,0.0,0.0,0.0,0.0,0.0,0.0,0.0,0.0,0.0,0.0,0.0,0.0,0.0,0.0,0.0,0.0,0.0,0.0,0.0,0.0,0.0,0.0,0.0,0.0,0.0,0.0,0.0,0.0,0.0,0.0,0.0,0.0,0.0,0.0,0.0,0.0,0.0,0.0,0.0,0.0,0.0,0.0,0.0,0.0,0.0,0.0,0.0,0.0,0.0,0.0,0.0,0.0,0.0,0.0,0.0,0.0,0.0,0.0,0.0,0.0,0.0,0.0,0.0,0.0,0.0,0.0,0.0,0.0,0.0,0.0,0.0,0.0,0.0,0.0,0.0,0.0,0.0,0.0,0.0,0.0,0.0,0.0,0.0,0.0,0.0,0.0,0.0,0.0,0.0,0.0,0.0,0.0,0.0,0.0,0.0,0.0,0.0,0.0,0.0,0.0,0.0,0.0,0.0,0.0,0.0,0.0,0.0,0.0,0.0,0.0,0.0,0.0,0.0,0.0,0.0,0.0,0.0,0.0,0.0,0.0,0.0,0.0,0.0,0.0,0.0,0.0,0.0,0.0,0.0,0.0,0.0,0.0,0.0,0.0,0.0,0.0,0.0,0.0,0.0,0.0,0.0,0.0,0.0,0.0,0.0,0.0,0.0,0.0,0.0,0.0,0.0,0.0,0.0,0.0,0.0,0.0,0.0,0.0,0.0,0.0,0.0,0.0,0.0,0.0,0.0,0.0,0.0,0.0,0.0,0.0,0.0,0.0,0.0,0.0,0.0,0.0,0.0,0.0,0.0,0.0,0.0,0.0,0.0,0.0,0.0,0.0,0.0,0.0,0.0,0.0,0.0,0.0,0.0,0.0,0.0,0.0,0.0,0.0,0.0,0.0,0.0,0.0,0.0,0.0,0.0,0.0,0.0,0.0,0.0,0.0,0.0,0.0,0.0,0.0,0.0,0.0,0.0,0.0,0.0,0.0,0.0,0.0,0.0,0.0,0.0,0.0,0.0,0.0,0.0,0.0,0.0,0.0,0.0,0.0,0.0,0.0,0.0,0.0,0.0,0.0,0.0,0.0,0.0,0.0,0.0,0.0,0.0,0.0,0.0,0.0,0.0,0.0,0.0,0.0,0.0,0.0,0.0,0.0,0.0,0.0,0.0,0.0,0.0,0.0,0.0,0.0,0.0,0.0,0.0,0.0,0.0,0.0,0.0,0.0,0.0,0.0,0.0,0.0,0.0,0.0,0.0,0.0,0.0,0.0,0.0,0.0,0.0,0.0,0.0,0.0,0.0,0.0,0.0,0.0,0.0,0.0,0.0,0.0,0.0,0.0,0.0,0.0,0.0,0.0,0.0,0.0,0.0,0.0,0.0,0.0,0.0,0.0,0.0,0.0,0.0,0.0,0.0,0.0,0.0,0.0,0.0,0.0,0.0,0.0,0.0,0.0,0.0,0.0,0.0,0.0,0.0,0.0,0.0,0.0,0.0,0.0,0.0,0.0,0.0,0.0,0.0,0.0,0.0,0.0,0.0,0.0,0.0,0.0,0.0,0.0,0.0,0.0,0.0,0.0,0.0,0.0,0.0,0.0,0.0,0.0,0.0,0.0,0.0,0.0,0.0,0.0,0.0,0.0,0.0,0.0,0.0,0.0,0.0,0.0,0.0,0.0,0.0,0.0,0.0,0.0,0.0,0.0,0.0,0.0,0.0,0.0,0.0,0.0,0.0,0.0,0.0,0.0,0.0,0.0,0.0,0.0,0.0,0.0,0.0,0.0,0.0,0.4904,0.4533,0.0,0.0,0.0,0.0,0.0,0.0,0.0,0.0,0.0,0.0,0.0,0.0,0.0,0.0,0.0,0.0,0.0,0.0,0.0,0.0,0.0,0.0,0.0,-0.4882,-0.4751,-0.4789,-0.5324,-0.5668,-0.5668,0.0,0.0,0.0,0.0,0.0,-0.3254,-0.3364,-0.3478,-0.3605,-0.3738,-0.3936,-0.4229,-0.4411,-0.4717,-0.5108,0.0,0.0,0.0,0.0,0.0,0.0,0.0,0.0,0.0,0.0,0.0,0.0,0.0,0.0,0.0,0.0,0.0,0.0,0.0,0.0,0.0,0.0,0.0,0.0,0.0,0.0,0.0,0.0,0.0,0.0,0.0,0.0,0.0,0.0,0.0,0.0,0.0,0.0,0.0,0.0,0.0,0.0,0.0,0.0,0.0,0.0,0.0,0.0,0.0,0.0,0.0,0.0,0.0,0.0,0.0,0.0,0.0,0.0,0.0,0.0,0.0,0.0,0.0,0.0,0.0,0.0,0.0,0.0,0.0,0.0,0.6771,0.6455,0.0,0.0,0.0,0.0,0.0,0.0,0.0,0.0,0.0,0.0,0.0,0.0,0.0,0.0,0.0,0.0,0.0,0.0,0.0,0.0,0.0,-0.6449,-0.5648,-0.5732,-0.6021,-0.6425,-0.6436,-0.6549,-0.6815,-0.5843,0.0,0.0,0.0,-0.3484,-0.3261,-0.3469,-0.3677,-0.3872,-0.3915,-0.4178,-0.4657,-0.4649,-0.4798,-0.5075,-0.53,0.0,0.0,0.0,0.0,0.0,0.0,0.0,0.0,0.0,0.0,0.0,0.0,0.0,0.0,0.0,0.0,0.0,0.0,0.0,0.0,0.0,0.0,0.0,0.0,0.0,0.0,0.0,0.0,0.0,0.0,0.0,0.0,0.0,0.0,0.0,0.0,0.0,0.0,0.0,0.0,0.0,0.0,0.0,0.0,0.0,0.0,0.0,0.0,0.0,0.0,0.0,0.0,0.0,0.0,0.0,0.0,0.0,0.0,0.0,0.0,0.0,0.0,0.0,0.9025,0.9269,0.9319,0.9207,0.9522,1.0108,0.9309,0.898,0.8971,0.862,0.0,0.0,0.0,0.0,0.0,0.0,0.0,0.0,0.0,0.0,0.0,0.0,0.0,0.0,0.0,0.0,0.0,0.0,0.0,-0.7166,-0.7712,-0.5086,-0.4077,-0.6064,-0.5978,-0.6354,-0.7654,-0.6838,0.0,0.0,-0.5143,-0.4558,-0.431,-0.455,-0.4894,-0.5317,-0.471,-0.4419,-0.4446,-0.473,-0.5031,-0.5365,-0.5666,-0.6012,-0.6277,0.0,0.0,0.0,0.0,0.0,0.0,0.0,0.0,0.0,0.0,0.0,0.0,0.0,0.0,0.0,0.0,0.0,0.0,0.0,0.0,0.0,0.0,0.0,0.0,0.0,0.0,0.0,0.0,0.0,0.0,0.0,0.0,0.0,0.0,0.0,0.0,0.0,0.0,0.0,0.0,0.0,0.4383,0.4099,0.0,0.0,0.0,0.0,0.0,0.0,0.0,0.0,0.0,0.0,0.0,0.0,0.0,0.7946,0.865,0.9985,1.1051,1.1882,1.2929,1.3536,1.3772,1.3733,1.3794,1.3845,1.3108,0.0,1.0189,1.0365,0.0,0.0,0.0,0.0,0.0,0.0,0.0,0.0,0.0,0.0,0.0,0.0,0.0,0.0,0.0,0.0,0.0,0.0,0.0,0.0,0.0,-0.4557,-0.4358,-0.6003,-0.6082,-0.6623,-0.7979,-0.7002,-0.666,-0.7254,-0.5571,-0.4858,-0.5392,-0.4397,-0.4218,-0.4935,-0.4684,-0.4594,-0.4691,-0.4747,-0.5054,-0.5535,-0.5969,-0.6242,-0.6309,-0.5934,0.0,0.0,0.0,0.0,0.0,0.0,0.0,0.0,0.0,0.0,0.0,0.0,0.0,0.0,0.0,0.0,0.0,0.0,0.0,0.0,0.0,0.0,0.0,0.0,0.0,0.0,0.0,0.0,0.0,0.0,0.0,0.0,0.0,0.0,0.0,0.0,0.0,0.0,0.0,0.4007,0.4425,0.4128,0.462,0.4768,0.0,0.0,0.0,0.0,0.0,0.0,0.0,0.0,0.0,0.9002,0.9655,1.0583,1.1866,1.2532,1.3113,1.3706,1.4435,1.4821,1.495,1.5134,1.5278,1.5375,1.5056,1.4212,1.303,1.1965,1.1664,1.1842,0.0,0.0,0.0,0.0,1.2241,1.2752,0.0,0.0,0.0,0.0,0.0,0.0,0.0,0.0,0.0,0.0,0.0,0.0,-0.4425,-0.4161,-0.4522,-0.5907,-0.5835,-0.6256,-0.7548,-0.6476,-0.618,-0.7037,-0.5646,-0.5306,-0.6282,-0.5564,-0.5139,-0.5029,-0.5679,-0.5838,-0.5559,-0.5922,-0.6117,-0.6259,-0.7032,-0.7021,-0.6377,-0.6425,-0.6751,0.0,0.0,0.0,0.0,0.0,0.0,0.0,0.0,0.0,0.0,0.0,0.0,0.0,0.0,0.0,0.0,0.0,0.0,0.0,0.0,0.0,0.0,0.0,0.0,0.0,0.0,0.0,0.0,0.0,0.0,0.0,0.0,0.0,0.0,0.0,0.0,0.0,0.0,0.4449,0.4758,0.4604,0.522,0.5414,0.0,0.0,0.0,0.0,0.0,0.0,0.7847,0.8848,0.997,1.1256,1.1737,1.2736,1.4232,1.4472,1.4798,1.5252,1.5716,1.5984,1.6064,1.6302,1.6501,1.6624,1.643,1.6169,1.5717,1.403,1.3489,1.3703,1.3298,1.3123,1.3207,1.3735,1.4176,1.468,0.0,0.0,0.0,0.0,0.0,0.0,0.0,0.0,0.0,0.0,0.0,-0.4848,-0.5536,-0.392,-0.3599,-0.5648,-0.4782,-0.4686,0.0,0.0,-0.4277,-0.4027,-0.5371,-0.6343,-0.685,-0.9442,-0.9479,-0.677,-0.8828,-0.8942,-0.73,-0.9034,-0.9127,-0.7955,-0.9435,-0.8906,-0.6924,-0.7682,-0.8109,-0.8305,0.0,0.0,0.0,0.0,0.0,0.0,0.0,0.0,0.0,0.0,0.0,0.0,0.0,0.0,0.0,0.0,0.0,0.0,0.0,0.0,0.0,0.0,0.0,0.0,0.0,0.0,0.0,0.0,0.0,0.0,0.0,0.0,0.0,0.0,0.0,0.0,0.0,0.0,0.0,0.5914,0.6662,0.0,0.0,0.0,0.0,0.7256,0.835,0.9405,1.0361,1.1502,1.2348,1.2852,1.3176,1.3641,1.4365,1.5227,1.607,1.6976,1.765,1.8091,1.8319,1.8338,1.8356,1.8339,1.7613,1.7465,1.763,1.6935,1.6066,1.5299,1.6334,1.6734,1.6766,1.6923,1.7182,1.7521,0.0,0.0,0.0,0.0,0.0,-0.2506,-0.331,-0.282,-0.2684,-0.36,-0.306,-0.2682,-0.2914,-0.2487,-0.2534,-0.3412,-0.3163,-0.3569,-0.4935,-0.5336,-0.6064,-0.7286,-0.7849,-0.8186,-0.8307,-0.8813,-0.8967,-0.8759,-0.9537,-0.9576,-0.8971,-1.0137,-1.013,-0.9212,-1.0451,-1.0301,-0.9093,-0.9161,-0.9437,-0.9777,-0.9311,-0.8996,0.0,0.0,0.0,0.0,0.0,0.0,0.0,0.0,0.0,0.0,0.0,0.0,0.0,0.0,0.0,0.0,0.0,0.0,0.0,0.0,0.0,0.0,0.0,0.0,0.0,0.0,0.0,0.0,0.0,0.0,0.0,0.0,0.0,0.0,0.0,0.0,0.0,0.6635,0.7343,0.0,0.8183,0.8818,0.9468,1.0109,1.1123,1.1885,1.2251,1.3025,1.3614,1.4016,1.4673,1.5303,1.5925,1.6417,1.7007,1.7682,1.8226,1.8591,1.8824,1.9141,1.9265,1.9265,1.9031,1.8759,1.8478,1.8859,1.8117,1.678,1.7343,1.7578,1.7586,1.7631,1.8057,1.8617,0.0,0.0,0.0,0.0,-0.2324,-0.2009,-0.2356,-0.1897,-0.1648,-0.2092,-0.1794,-0.1519,-0.1466,-0.1747,-0.2296,-0.317,-0.2714,-0.3265,-0.538,-0.5778,-0.6617,-0.8123,-0.911,-0.9631,-0.9613,-1.0084,-1.0599,-1.1144,-1.0749,-1.0376,-1.0088,-1.1185,-1.112,-1.0163,-1.2305,-1.2665,-1.1708,-1.1893,-1.1612,-1.0976,-1.0594,-1.0218,-0.9819,0.0,0.0,0.0,0.0,0.0,0.0,0.0,0.0,0.0,0.0,0.0,0.0,0.0,0.0,0.0,0.0,0.0,0.0,0.0,0.0,0.0,0.0,0.0,0.0,0.0,0.0,0.0,0.0,0.0,0.0,0.0,0.0,0.0,0.0,0.6649,0.7492,0.7923,0.8561,0.9153,0.9721,1.05,1.1253,1.1923,1.2913,1.3637,1.3892,1.4508,1.5009,1.5323,1.5926,1.6454,1.691,1.7294,1.7704,1.8128,1.8699,1.9059,1.9219,1.9599,1.9775,1.98,1.9862,1.9617,1.9259,1.9942,1.9523,1.8474,1.8688,1.8786,1.8802,1.8802,1.9158,1.9608,0.0,0.0,0.0,-0.2698,-0.2337,-0.2399,-0.3389,-0.2377,-0.1985,-0.3357,-0.2407,-0.1616,-0.1661,-0.1886,-0.2934,-0.5123,-0.3511,-0.3772,-0.7158,-0.6147,-0.5653,-0.6194,-0.9004,-1.0615,-1.0782,-1.3586,-1.4665,-1.3911,-1.2745,-1.1719,-1.0856,-1.2509,-1.2401,-1.0986,-1.5013,-1.5942,-1.4559,-1.5705,-1.455,-1.1958,-1.1998,-1.1827,-1.1397,0.0,0.0,0.0,0.0,0.0,0.0,0.0,0.0,0.0,0.0,0.0,0.0,0.0,0.0,0.0,0.0,0.0,0.0,0.0,0.0,0.0,0.0,0.0,0.0,0.0,0.0,0.0,0.0,0.0,0.0,0.0,0.0,0.0,0.7685,0.7937,0.8537,0.9788,1.0371,1.0711,1.0955,1.1472,1.2024,1.2576,1.3578,1.4543,1.53,1.5961,1.6474,1.6815,1.6901,1.7003,1.7125,1.7774,1.8208,1.8423,1.9151,1.9535,1.962,1.9798,1.9933,2.0011,2.0011,1.9998,2.002,2.0222,2.0318,2.0325,2.0456,2.0536,2.0594,2.0603,2.0604,2.0585,0.0,0.0,-0.2925,-0.3637,-0.2555,-0.1692,-0.1956,-0.1672,-0.1564,-0.1952,-0.1675,-0.1854,-0.2938,-0.3109,-0.3888,-0.5722,-0.4398,-0.3813,-0.4614,-0.545,-0.7421,-1.0789,-1.1353,-1.263,-1.4822,-1.4121,-1.4684,-1.6637,-1.6254,-1.5949,-1.5772,-1.6766,-1.6648,-1.5577,-1.5136,-1.5507,-1.6299,-1.4426,-1.4282,-1.5299,-1.4743,-1.2814,-1.03,0.0,0.0,0.0,0.0,0.0,0.0,0.0,0.0,0.0,0.0,0.0,0.0,0.0,0.0,0.0,0.0,0.0,0.0,0.0,0.0,0.0,0.0,0.0,0.0,0.0,0.0,0.0,0.0,0.0,0.0,0.0,0.7058,0.7927,0.7993,0.9077,1.0159,1.0911,1.13,1.1891,1.2831,1.3507,1.416,1.4848,1.5671,1.6234,1.6444,1.6821,1.7085,1.7158,1.7518,1.772,1.7752,1.8208,1.8572,1.8771,1.917,1.9481,1.9757,1.9855,1.9952,2.0079,2.0192,2.0216,2.0235,2.0376,2.0464,2.0525,2.0562,2.059,2.0594,2.0597,2.0601,2.0605,0.0,-0.3892,-0.2931,-0.4014,-0.2665,-0.1642,-0.2238,-0.1819,-0.166,-0.2277,-0.1801,-0.1747,-0.2693,-0.3318,-0.4173,-0.5362,-0.5432,-0.5529,-0.581,-0.7407,-0.9596,-1.2337,-1.305,-1.3938,-1.5133,-1.5176,-1.6192,-1.8288,-1.7048,-1.6615,-1.7,-1.7409,-1.7315,-1.6826,-1.6667,-1.7215,-1.8166,-1.6323,-1.6181,-1.7195,-1.7045,-1.4549,-1.0849,-1.0019,-0.8637,-0.7059,-0.6458,-0.597,-0.5545,-0.5106,0.0,0.0,0.0,0.0,0.0,0.0,0.0,0.0,0.0,0.0,0.0,0.0,0.0,0.0,0.0,0.0,0.0,0.0,0.0,0.0,0.0,0.0,0.0,0.0,0.8266,0.9212,0.946,1.0325,1.1244,1.2065,1.246,1.3037,1.39,1.4634,1.5257,1.5836,1.6709,1.7171,1.7117,1.7519,1.7885,1.8126,1.8151,1.84,1.8878,1.8842,1.891,1.9109,1.9345,1.9594,1.9843,1.9993,2.0133,2.0249,2.0693,2.0888,2.0924,2.1013,2.1089,2.1105,0.0,0.0,0.0,0.0,2.0583,2.0566,0.0,-0.4069,-0.3149,-0.4192,-0.2919,-0.2153,-0.3408,-0.255,-0.2209,-0.3516,0.0,-0.1724,-0.1893,-0.3004,-0.3986,-0.4641,-0.6365,-0.7888,0.0,0.0,-1.1579,-1.1782,-1.414,-1.4782,-1.3396,-1.6441,-1.8435,-1.9259,-1.6697,-1.5817,-1.6507,-1.6445,-1.6405,-1.6483,-1.8535,-1.9416,-1.9334,-1.9206,-1.8568,-1.7712,-1.8421,-1.6158,-1.2062,-0.958,-0.8626,-0.8315,-0.6296,-0.6053,-0.6417,-0.4588,0.0,0.0,0.0,0.0,0.0,0.0,0.0,0.0,0.0,0.0,0.0,0.0,0.0,0.0,0.0,0.0,0.0,0.0,0.0,0.0,0.0,0.0,0.0,0.0,0.9644,1.0879,1.1454,1.1593,1.2065,1.3119,1.363,1.4025,1.4438,1.5238,1.5844,1.6166,1.7223,1.7818,1.769,1.8302,0.0,0.0,0.0,1.9215,2.0173,1.9583,1.9326,1.9423,1.9632,1.979,1.9924,2.0273,2.0482,2.0598,2.1475,2.187,2.1935,2.1841,2.1845,2.1806,2.0946,2.0593,2.0593,2.0593,2.0566,2.052,0.0,-0.5248,-0.4476,-0.5342,-0.4226,-0.3278,-0.3557,-0.3373,-0.3295,-0.3573,-0.3357,-0.3192,-0.3232,-0.3293,-0.3827,-0.514,-0.6243,-0.7831,0.0,0.0,-1.1125,-1.0507,-1.4238,-1.5542,-1.3826,-1.7181,-1.9361,-2.0226,-1.9672,-1.948,-1.9631,-1.9568,-1.9492,-1.9368,-1.7553,-1.6666,-1.648,-1.6462,-1.6308,-1.6098,-1.6676,-1.466,-1.128,-1.1323,-0.9141,-0.597,-0.5529,-0.5362,-0.5283,-0.4655,-0.4316,-0.4078,-0.3625,0.0,0.0,0.0,0.0,0.0,0.0,0.0,0.0,0.0,0.0,0.0,0.0,0.0,0.0,0.0,0.0,0.0,0.0,0.0,0.0,0.9215,1.0432,1.1496,1.2184,1.2875,1.3434,1.365,1.4038,1.4424,1.4845,1.6246,1.7127,1.7211,1.8637,1.9521,1.9504,2.0044,2.0433,2.0657,2.0932,2.0912,2.0599,2.0504,2.0173,1.9555,1.9774,0.0,2.0098,2.0903,2.1324,2.1495,2.2372,2.2753,2.272,2.2076,2.1831,2.1811,2.0947,2.0593,2.0593,2.0593,2.058,2.0566,-0.6121,-0.4934,-0.3801,-0.4735,-0.4181,-0.3849,-0.4593,-0.4703,-0.4665,-0.4563,-0.3881,-0.3073,-0.2188,-0.2607,-0.2904,-0.2768,-0.3786,0.0,0.0,-0.9581,-0.9339,-1.0695,-1.1937,-1.2164,-1.1269,-1.3411,-1.4768,-1.5205,-1.5205,-1.6113,-1.7818,-1.5989,-1.7031,-2.0263,-1.7047,-1.6487,-1.7995,-1.7995,-1.6816,-1.5007,-1.5757,-1.3131,-0.888,-1.0193,-0.8373,-0.5113,-0.5155,-0.492,-0.4611,-0.4254,-0.4046,-0.3856,-0.3391,-0.3022,-0.2643,0.0,0.0,0.0,0.0,0.0,0.0,0.0,0.0,0.0,0.0,0.0,0.0,0.0,0.0,0.6296,0.7568,0.0,0.9419,1.0409,1.155,1.2491,1.3044,1.3974,1.4492,1.413,1.4928,1.5659,1.6025,1.7281,1.825,1.8513,1.981,2.0476,2.0226,2.0935,2.1489,2.1785,2.1661,2.1728,2.1996,2.1278,2.0926,2.1004,2.0755,2.0929,2.1472,2.1968,2.2233,2.2346,2.3262,2.3649,2.3624,2.3244,2.2857,2.2457,2.2025,2.1614,2.1185,2.0723,2.0546,2.0602,-0.571,-0.4326,-0.3104,-0.4158,-0.4405,-0.4768,-0.566,-0.6045,-0.6043,-0.5541,-0.4696,-0.3361,-0.1319,-0.2377,-0.2702,0.0,0.0,0.0,0.0,-0.7939,-0.7397,-0.9743,-0.8957,-0.8218,-0.7727,-0.8945,-0.9648,-0.9759,-0.9759,-1.1286,-1.4105,-1.1234,-1.2956,-1.832,-1.5443,-1.5771,-1.8446,-1.8207,-1.6296,-1.3564,-1.4859,-1.2152,-0.7514,-0.9241,-0.7768,-0.4793,-0.487,-0.458,-0.4178,-0.3809,-0.3629,-0.344,-0.3015,-0.2715,-0.2366,-0.1693,-0.1207,0.0,0.0,0.0,0.0,0.0,0.0,0.0,0.0,0.4615,0.5297,0.6576,0.6893,0.7366,0.8828,0.9799,1.0664,1.1514,1.2567,1.348,1.394,1.4949,1.5459,1.5081,1.607,1.6954,1.7374,1.8381,1.9248,1.9793,2.0863,2.1319,2.0921,2.175,2.2464,2.2895,2.2374,2.2494,2.3381,2.2154,2.1834,2.2422,2.1923,2.2076,2.2819,2.3064,2.3178,2.3216,2.4164,2.4481,2.4335,2.4553,2.414,2.3357,2.3357,2.2967,2.2265,2.1357,2.1003,2.1107,0.0,-0.4466,-0.4413,-0.542,-0.6662,-0.7129,-0.5979,-0.692,-0.7183,-0.5627,-0.6602,-0.6303,-0.3234,-0.4225,-0.5216,0.0,0.0,0.0,-0.7761,-0.7481,-0.6369,-0.4387,-0.6606,-0.6833,-0.4577,-0.7133,-0.8737,-0.9278,-0.9278,-0.97,-1.0482,-1.0083,-1.033,-1.1081,-1.0663,-1.0997,-1.1792,-1.072,-1.0303,-1.0621,-1.3235,-1.2685,-1.0459,-1.1608,-0.89,-0.445,-0.445,-0.4222,-0.3921,-0.369,-0.3293,-0.2852,-0.2557,-0.2122,-0.1654,-0.1266,0.0,-0.0285,0.0089,0.0896,0.1902,0.2921,0.3813,0.4834,0.0,0.677,0.7179,0.8242,0.8584,0.9031,1.0016,1.0832,1.1581,1.233,1.3187,1.408,1.5086,1.5884,1.6579,1.7161,1.7376,1.7773,1.8446,1.9498,2.0274,2.0644,2.1827,2.2557,2.2628,2.3168,2.3635,2.3934,2.4078,2.3995,2.3669,2.3474,2.3125,2.2583,2.2622,2.2705,2.2838,2.3729,2.4133,2.421,2.5132,2.5097,2.4455,2.5234,2.5039,2.4258,2.4258,2.4199,2.4003,2.3129,2.2808,2.2815,0.0,-0.5168,-0.5664,-0.5972,-0.6403,-0.6808,-0.7043,-0.6743,-0.6157,-0.5232,-0.5335,-0.4771,-0.288,-0.4133,-0.5201,-0.5426,0.0,0.0,-0.6574,-0.4254,-0.2986,-0.3372,-0.2838,-0.1975,-0.0812,-0.1673,-0.223,-0.2404,-0.2404,-0.3551,-0.5786,-0.6141,-0.8509,-1.2387,-1.0663,-1.1048,-1.2928,-1.272,-1.1282,-0.9497,-1.3616,-1.3329,-1.0572,-1.1615,-0.9541,-0.5861,-0.4043,-0.3159,0.0,0.0,-0.2204,-0.1908,-0.2225,-0.181,-0.1068,-0.0362,0.0224,0.0,0.1715,0.2866,0.3854,0.4016,0.5189,0.6445,0.6975,0.7533,0.8187,0.9233,0.9637,1.0144,1.1264,1.1885,1.2551,1.3513,1.4275,1.5153,1.6149,1.7103,1.7906,1.8389,1.9065,1.9514,1.9613,2.0584,2.1321,2.1653,2.2522,2.308,2.3117,2.3717,2.4154,2.4318,2.4505,2.4561,2.4409,2.4004,2.3938,2.4168,2.3745,2.3848,2.4389,2.4846,2.5074,2.5132,2.553,2.5492,2.5174,2.5544,2.5488,2.5156,2.5156,2.5156,2.4979,2.3556,2.305,2.3107,0.0,-0.5675,-0.6568,-0.6774,-0.6579,-0.6769,-0.7835,-0.7068,-0.6019,-0.5057,-0.4625,-0.4241,-0.381,-0.4884,-0.5642,-0.5642,-0.4637,0.0,0.0,-0.3342,-0.2521,-0.4395,-0.1301,0.0,-0.1016,0.0357,0.1053,0.1009,0.1009,0.0239,-0.1384,-0.2944,-0.5923,-0.9875,-0.8872,-0.9603,-1.153,-1.0774,-0.9048,-0.7293,-1.2067,-1.1677,-0.8483,-1.0502,-0.939,-0.6512,-0.4463,-0.2959,0.0,0.0,-0.1119,-0.0859,-0.141,-0.0932,-0.0033,0.084,0.155,0.2289,0.3261,0.4416,0.5319,0.5183,0.6498,0.7811,0.7774,0.8419,0.9262,1.0112,1.0572,1.1135,1.2105,1.2829,1.3536,1.4284,1.5229,1.6211,1.7076,1.8072,1.8902,1.94,2.0315,2.0847,2.061,2.1335,2.2003,2.2426,2.2965,2.3374,2.3512,2.406,2.4444,2.4578,2.4712,2.4855,2.4994,2.4511,2.4638,2.5351,2.4753,2.4846,2.5511,2.5588,2.5653,2.571,2.571,2.5691,2.5703,2.5703,2.5703,2.5703,2.5703,2.5703,2.5546,2.4199,2.3731,2.379,0.0,0.0,-0.6893,-0.8112,-0.8108,-0.7951,-0.7982,-0.8444,-0.7879,-0.5327,-0.5702,-0.6525,-0.7355,-0.7476,-0.7513,-0.7513,-0.8183,-0.7897,-0.6209,-0.6773,-0.7158,-0.7174,-0.3612,-0.3447,-0.7336,-0.3842,-0.2216,-0.2742,-0.267,-0.0934,0.2242,-0.1797,-0.1963,0.0955,-0.2988,-0.4576,-0.398,-0.008,-0.0039,-0.2951,-0.7011,-0.6548,-0.392,-0.8423,-0.8198,-0.5519,-0.609,0.0,0.0,0.0,-0.0257,0.0341,0.0262,0.0864,0.0,0.2361,0.3134,0.39,0.4271,0.4905,0.5705,0.6597,0.7747,0.8762,0.9069,0.9884,1.0619,1.0922,1.1509,1.2067,1.2425,1.3563,1.4443,1.442,1.5861,1.7208,1.7863,1.8623,1.9385,2.0162,2.0893,2.1291,2.1275,2.1584,2.2096,2.2822,2.3141,2.3534,2.4044,2.4386,2.4654,2.4779,2.4915,2.5056,2.5182,2.5234,2.5331,2.5484,2.5464,2.5464,2.5511,2.5646,2.5698,2.5703,2.5703,2.5703,2.5703,2.5703,2.5703,2.5703,2.5703,2.5703,2.5683,2.557,2.5515,2.553,0.0,0.0,0.0,-0.7065,-0.8428,-0.9452,-0.9452,-0.7824,-0.6411,-0.5916,-0.5072,0.0,0.0,0.0,0.0,0.0,-0.7351,-0.6617,-0.7744,-0.5152,-0.3791,-0.4283,-0.2266,-0.1974,-0.3811,-0.417,-0.4697,-0.5346,-0.5869,-0.3917,0.0152,-0.4003,-0.3687,0.0292,-0.1947,-0.267,-0.2197,-0.1746,-0.3099,-0.5786,-0.8122,-0.955,-1.0237,-0.9705,-0.7383,-0.4401,0.0,0.0,0.0,0.0974,0.1694,0.227,0.116,0.0,0.0,0.4059,0.4837,0.5518,0.6187,0.6903,0.7541,0.8103,0.8898,0.9647,1.0049,1.05,1.0981,1.1319,1.1763,1.221,1.2615,1.3775,1.4761,1.5194,1.6909,1.8308,1.868,1.9416,2.011,2.0648,2.1055,2.146,2.1919,2.2226,2.25,2.2746,2.3333,2.3803,2.4023,2.4472,2.4775,2.485,2.503,2.5184,2.5264,2.5382,2.5461,2.5507,2.5557,2.5595,2.5634,2.5673,2.5691,2.5703,2.5703,2.5702,2.5696,2.5696,2.5701,2.5703,2.5703,2.5705,2.5692,2.5628,2.5574,2.553,0.0,0.0,0.0,0.0,0.0,0.0,0.0,0.0,0.0,0.0,0.0,0.0,0.0,0.0,0.0,0.0,0.0,-0.7855,-0.9522,0.0,-0.5847,-0.6583,-0.4503,-0.4417,-0.6785,-0.7008,-0.7424,-0.8073,-0.8691,-0.6074,-0.0587,-0.4726,-0.3742,0.1415,-0.0778,-0.1682,-0.1671,-0.254,-0.4696,-0.7745,-0.9845,-1.0428,-0.9922,-0.8776,-0.5532,0.0,0.0,0.0,0.0,0.2481,0.3025,0.3587,0.255,0.0,0.0,0.5625,0.6395,0.7036,0.7834,0.8356,0.8798,0.9224,0.9695,1.0166,1.0582,1.0943,1.1282,1.1689,1.2138,1.2579,1.2965,1.3852,1.4799,1.5688,1.7121,1.8381,1.9008,1.9767,2.0429,2.0861,2.126,2.1748,2.2286,2.2643,2.29,2.3045,2.3595,2.3984,2.4211,2.4604,2.4888,2.5,2.5163,2.5264,2.5335,2.5444,2.5499,2.5531,2.5576,2.5636,2.5701,2.5703,2.5703,2.5703,2.5703,2.5701,2.5693,2.5709,2.5685,2.5666,2.5693,2.5694,2.5654,2.5593,2.5538,2.5511,0.0,0.0,0.0,0.0,0.0,0.0,0.0,0.0,0.0,0.0,0.0,0.0,0.0,0.0,0.0,0.0,0.0,0.0,0.0,0.0,0.0,-1.3184,-0.9733,-1.0178,-1.5239,-1.1992,-1.0476,-1.0956,-1.1263,-0.7578,-0.033,-0.4235,-0.2358,0.4091,0.0484,-0.1505,-0.2108,-0.2098,-0.4474,-0.8552,-1.1388,-0.8891,-0.3682,-0.572,0.0,0.0,0.0,0.0,0.0,0.3588,0.3723,0.437,0.4331,0.0,0.0,0.7038,0.7727,0.8358,0.9059,0.9254,0.9385,1.0012,1.0157,1.0312,1.084,1.1255,1.1664,1.2029,1.2662,1.3185,1.3408,1.396,1.474,1.5874,1.6698,1.7644,1.9001,1.9844,2.0483,2.091,2.1524,2.2039,2.2422,2.2848,2.3277,2.3692,2.3842,2.4118,2.4591,2.4804,2.4994,2.5198,2.5264,2.5337,2.5414,2.5478,2.5531,2.5595,2.5593,2.565,2.5691,2.5703,2.5699,2.5699,2.5699,2.5699,2.5699,2.5691,2.5655,2.5613,2.5678,2.5656,2.5585,2.5524,2.5511,2.5511,0.0,0.0,0.0,0.0,0.0,0.0,0.0,0.0,0.0,0.0,0.0,0.0,0.0,0.0,0.0,0.0,0.0,0.0,0.0,0.0,0.0,0.0,0.0,-0.8681,-1.0582,-1.2467,0.0,0.0,0.0,-1.2297,-0.6454,-0.76,-0.5341,-0.0358,-0.1321,-0.2521,-0.3769,-0.3242,-0.5648,-0.9556,0.0,-0.7098,-0.7759,0.0,0.0,0.0,0.0,0.0,0.0,0.0,0.4996,0.526,0.6024,0.6459,0.6853,0.7682,0.8251,0.8767,0.9639,0.9848,0.9993,1.0733,1.0916,1.1105,1.1847,1.2029,1.2138,1.2544,1.2953,1.3137,1.2753,1.4771,1.6346,1.5885,1.7963,1.9706,2.0012,2.0501,2.107,2.1731,2.1895,2.2275,2.3074,2.3212,2.3445,2.3896,2.4192,2.4442,2.4657,2.4898,2.5125,2.5273,2.5351,2.5437,2.5557,2.557,2.5579,2.5609,2.5605,2.5643,2.5699,2.5694,2.5691,2.5691,2.5691,2.5691,2.5691,2.5709,2.5681,2.5681,2.5692,2.5671,2.5593,2.5529,2.5511,2.5511,0.0,0.0,0.0,0.0,0.0,0.0,0.0,0.0,0.0,0.0,0.0,0.0,0.0,0.0,0.0,0.0,0.0,0.0,0.0,0.0,0.0,0.0,0.0,-0.9134,-1.0123,-1.227,-1.3664,0.0,0.0,0.0,0.0,-0.883,-0.6673,-0.2733,-0.2655,-0.4239,-0.6965,0.0,0.0,0.0,0.0,0.0,0.0,0.0,0.0,0.0,0.0,0.0,0.0,0.0,0.0,0.6151,0.6888,0.7213,0.7468,0.8351,0.882,0.9267,1.0166,1.04,1.0477,1.0926,1.1105,1.1313,1.1719,1.1873,1.1942,1.2113,1.2601,1.2838,1.2352,1.4273,1.5922,1.587,1.7578,1.9258,2.026,2.0749,2.1258,2.2022,2.2198,2.2563,2.3335,2.3335,2.354,2.4095,2.4356,2.4545,2.4657,2.4931,2.5168,2.5302,2.5379,2.5453,2.5601,2.5599,2.5604,2.5595,2.5637,2.5664,2.5707,2.5707,2.5707,2.5707,2.5707,2.5707,2.5707,2.5707,2.5681,2.5665,2.5648,2.5622,2.5557,2.5472,2.5468,2.5468,0.0,0.0,0.0,0.0,0.0,0.0,0.0,0.0,0.0,0.0,0.0,0.0,0.0,0.0,0.0,0.0,0.0,0.0,0.0,0.0,0.0,0.0,0.0,-1.0453,-1.1542,-1.1848,-1.2228,0.0,0.0,0.0,0.0,0.0,0.0,0.0,0.0,0.0,0.0,0.0,0.0,0.0,0.0,0.0,0.0,0.0,0.0,0.0,0.0,0.0,0.0,0.0,0.6622,0.6907,0.7282,0.765,0.8051,0.8823,0.9323,0.9825,1.0544,1.0784,1.0822,1.0888,1.1078,1.1237,1.1216,1.1318,1.1397,1.1229,1.1875,1.2334,1.195,1.3262,1.4761,1.591,1.6725,1.8022,2.0268,2.0911,2.1362,2.2079,2.2453,2.2833,2.3346,2.3346,2.357,2.4229,2.4445,2.4561,2.4623,2.4945,2.5168,2.5302,2.5388,2.548,2.5601,2.5591,2.5597,2.5609,2.5661,2.5683,2.5707,2.5707,2.5707,2.5707,2.5707,2.5707,2.5707,2.5683,2.5648,2.5598,2.559,2.5557,2.5488,2.5412,2.5406,2.5406,0.0,0.0,0.0,0.0,0.0,0.0,0.0,0.0,0.0,0.0,-0.4445,-0.5647,0.0,0.0,0.0,0.0,0.0,0.0,0.0,0.0,0.0,0.0,-1.0499,-1.0817,-1.0875,-1.224,0.0,0.0,0.0,0.0,0.0,0.0,0.0,0.0,0.0,0.0,0.0,0.0,0.0,0.0,0.0,0.0,0.0,0.0,0.0,0.0,0.0,0.0,0.0,0.0,0.6204,0.7224,0.7721,0.8166,0.8584,0.8745,0.9345,1.0079,1.0322,1.0641,1.0947,1.1303,1.1404,1.1494,1.1662,1.1314,1.0927,1.068,1.1204,1.1496,1.0883,1.3327,1.5577,1.6046,1.77,1.9563,2.1315,2.1598,2.1895,2.2535,2.2659,2.2884,2.3346,2.3392,2.361,2.419,2.4497,2.4689,2.476,2.5019,2.5228,2.5388,2.5448,2.5517,2.5601,2.5593,2.5604,2.5609,2.5613,2.5644,2.5707,2.5707,2.5707,2.5707,2.5707,2.5707,2.5705,2.5642,2.5609,2.5593,2.5544,2.551,2.5488,2.5412,2.5406,2.5406,0.0,0.0,0.0,0.0,0.0,0.0,0.0,-0.6157,-0.5887,-0.1687,-0.4175,-0.5497,-0.3261,-0.5671,-0.7123,0.0,0.0,0.0,0.0,0.0,0.0,0.0,0.0,-1.0309,-1.018,-1.1791,-1.2563,0.0,0.0,0.0,0.0,0.0,0.0,0.0,0.0,0.0,0.0,0.0,0.0,0.0,0.0,0.0,0.0,0.0,0.0,0.0,0.0,0.0,0.0,0.0,0.5643,0.6656,0.7654,0.8234,0.857,0.8805,0.9168,0.9646,1.0166,1.0438,1.0679,1.1088,1.1341,1.1428,1.1145,1.0779,1.0396,0.9886,1.0171,1.0328,0.9761,1.2066,1.4106,1.4302,1.6286,1.8442,2.0197,2.0908,2.1591,2.2581,2.2712,2.2884,2.3346,2.3392,2.361,2.417,2.4513,2.4704,2.4749,2.5038,2.525,2.5406,2.544,2.5495,2.5601,2.56,2.5603,2.5609,2.5643,2.5662,2.5707,2.5707,2.5707,2.5707,2.5707,2.5681,2.5645,2.5609,2.5589,2.5537,2.5466,2.5441,2.5434,2.5378,2.5351,2.5351,0.0,0.0,0.0,0.0,0.0,0.0,0.0,-0.5602,-0.54,-0.153,-0.3641,-0.4571,-0.2099,-0.3677,-0.4858,0.0,0.0,0.0,0.0,0.0,0.0,0.0,0.0,0.0,0.0,0.0,0.0,-1.1791,0.0,0.0,0.0,0.0,0.0,0.0,0.0,0.0,0.0,0.0,0.0,0.0,0.0,0.0,0.0,0.0,0.0,0.0,0.0,0.0,0.0,0.0,0.4657,0.5752,0.6971,0.7761,0.8278,0.8635,0.8854,0.9177,0.9961,1.0235,1.04,1.0805,1.1136,1.1191,1.0541,1.014,0.9718,0.9032,0.9059,0.9084,0.8712,1.049,1.2191,1.275,1.4606,1.6776,1.9082,2.0057,2.11,2.2529,2.2712,2.2859,2.3294,2.3369,2.3588,2.4074,2.4479,2.4738,2.4813,2.5051,2.525,2.5406,2.5406,2.5461,2.5599,2.5597,2.5607,2.5616,2.5662,2.5691,2.5707,2.5707,2.5707,2.5707,2.5683,2.5648,2.5598,2.558,2.5526,2.5473,2.5395,2.5382,2.5374,2.5313,2.5303,2.5303,0.0,0.0,0.0,0.0,0.0,0.0,0.0,-0.4817,-0.4846,-0.2073,-0.2283,-0.1978,-0.0149,-0.2967,-0.4649,0.0,0.0,0.0,0.0,0.0,0.0,0.0,0.0,0.0,0.0,0.0,0.0,-1.1084,-1.3368,0.0,0.0,0.0,0.0,0.0,0.0,-1.3259,0.0,0.0,0.0,0.0,0.0,0.0,0.0,0.0,0.0,0.0,0.0,0.0,0.0,0.0,0.0,0.4823,0.5446,0.6535,0.7615,0.7796,0.8365,0.9096,0.9549,0.9991,1.04,1.0805,1.093,1.0856,1.0486,0.9638,0.8783,0.8304,0.8065,0.793,0.7834,0.9234,1.1033,1.2936,1.405,1.5933,1.9506,2.0105,2.078,2.2502,2.2712,2.2816,2.3102,2.3289,2.3522,2.3816,2.4373,2.4842,2.5144,2.518,2.525,2.5406,2.5406,2.5471,2.5593,2.5601,2.5637,2.5683,2.5703,2.57,2.5707,2.5707,2.5707,2.5705,2.5642,2.5605,2.5593,2.5473,2.541,2.5395,2.534,2.5303,2.5322,2.5313,2.5303,2.5303,0.0,0.0,0.0,0.0,0.0,0.0,-0.3091,-0.4084,-0.4421,-0.3217,-0.2795,-0.2259,-0.1369,-0.1619,-0.1933,-0.2086,0.0,0.0,0.0,0.0,0.0,0.0,0.0,0.0,0.0,0.0,0.0,-1.1065,-1.302,0.0,0.0,0.0,0.0,0.0,0.0,-1.3411,-1.344,0.0,0.0,0.0,0.0,0.0,0.0,0.0,0.0,0.0,0.0,0.0,-0.186,-0.0109,0.2003,0.3993,0.4649,0.5352,0.0,0.7063,0.7795,0.848,0.9079,0.9368,0.9686,1.0361,1.0326,1.0067,0.9809,0.8937,0.8071,0.7605,0.7173,0.6935,0.7065,0.7968,0.9227,1.087,1.2242,1.4116,1.6943,1.8395,1.9751,2.1261,2.2004,2.2581,2.3052,2.3289,2.366,2.4301,2.4559,2.4842,2.518,2.5236,2.5302,2.5406,2.5448,2.5506,2.5601,2.5603,2.5631,2.5703,2.57,2.5694,2.5707,2.5707,2.5707,2.5707,2.5676,2.5609,2.5532,2.5486,2.541,2.534,2.5303,2.5303,2.5303,2.5303,2.5303,2.5303,0.0,0.0,0.0,0.0,0.0,-0.2896,-0.2746,-0.3177,-0.3462,-0.3278,-0.2521,-0.1942,-0.1761,-0.057,-0.0144,-0.1027,-0.1657,0.0,0.0,0.0,0.0,0.0,0.0,0.0,0.0,0.0,0.0,-1.0752,-1.2391,-1.3121,0.0,0.0,-1.353,-1.4114,0.0,0.0,0.0,0.0,0.0,0.0,0.0,0.0,0.0,0.0,0.0,0.0,0.0,0.0,0.0,0.0,0.0,0.3311,0.0,0.0,0.0,0.0,0.7364,0.7864,0.8755,0.9016,0.9177,0.9922,0.9811,0.9478,0.9172,0.8382,0.7599,0.7056,0.6573,0.6295,0.6493,0.7012,0.7888,0.9325,1.079,1.2642,1.5286,1.7151,1.8852,2.0524,2.1466,2.2214,2.2764,2.3177,2.3764,2.4642,2.4707,2.4842,2.518,2.5269,2.5332,2.5406,2.5464,2.5518,2.5601,2.5595,2.5637,2.5703,2.5696,2.5707,2.5707,2.5707,2.5683,2.5676,2.5648,2.5585,2.5473,2.5446,2.539,2.5303,2.5303,2.5303,2.5303,2.5253,2.5243,2.5243,0.0,0.0,0.0,0.0,0.0,0.0,-0.2588,-0.2059,-0.1726,-0.1726,-0.0784,-0.02,-0.0393,-0.0052,-0.0154,-0.1031,-0.1106,0.0,0.0,0.0,0.0,0.0,0.0,0.0,0.0,0.0,0.0,0.0,0.0,-1.191,-1.1132,-1.1946,-1.2317,-1.2338,0.0,0.0,0.0,0.0,0.0,0.0,0.0,0.0,0.0,0.0,0.0,0.0,0.0,0.0,0.0,0.0,0.0,0.0,0.0,0.0,0.0,0.0,0.707,0.7394,0.8652,0.9016,0.9096,0.95,0.9549,0.9345,0.8733,0.8079,0.7422,0.6739,0.6345,0.6104,0.6104,0.6443,0.7249,0.8937,1.0002,1.1917,1.5572,1.6799,1.8228,2.0702,2.1299,2.1707,2.2147,2.2923,2.3764,2.4642,2.4707,2.4842,2.518,2.5269,2.5332,2.5406,2.5464,2.5518,2.5601,2.5595,2.5637,2.5703,2.5696,2.5707,2.5707,2.5707,2.5654,2.5598,2.5532,2.5467,2.5406,2.5331,2.5313,2.5303,2.5303,2.5303,2.5274,2.5149,2.5096,2.5096,0.0,0.0,0.0,0.0,0.0,0.0,0.0,-0.2696,-0.2757,-0.3207,-0.1899,-0.1206,-0.1953,-0.0863,-0.0126,-0.0265,-0.0782,0.0,0.0,0.0,0.0,0.0,0.0,0.0,0.0,0.0,0.0,0.0,0.0,0.0,-1.2114,-1.1817,-1.1975,-1.2413,-1.0526,0.0,0.0,0.0,0.0,0.0,0.0,0.0,0.0,0.0,0.0,0.0,0.0,0.0,0.0,0.0,0.0,0.0,0.0,0.0,0.0,0.0,0.0,0.6746,0.6889,0.7205,0.7552,0.7721,0.7624,0.742,0.6989,0.6615,0.6241,0.5735,0.5555,0.5555,0.5789,0.6045,0.7058,0.9613,1.0572,1.2121,1.5304,1.709,1.8504,1.9767,2.1334,2.2502,2.2972,2.3236,2.3764,2.4642,2.4707,2.4842,2.518,2.5302,2.5388,2.5406,2.5464,2.5523,2.5598,2.5605,2.5622,2.5696,2.5691,2.5707,2.5707,2.5707,2.5654,2.5601,2.5585,2.5504,2.5406,2.5382,2.535,2.5303,2.5303,2.5303,2.5274,2.5149,2.516,2.5233,0.0,0.0,0.0,0.0,0.0,0.0,0.0,-0.2918,-0.2984,-0.339,-0.2116,-0.1488,-0.2297,-0.1125,-0.0211,-0.0069,-0.0762,0.0,0.0,0.0,0.0,0.0,0.0,0.0,0.0,0.0,0.0,0.0,0.0,0.0,0.0,0.0,0.0,-0.964,-0.8183,0.0,0.0,0.0,0.0,0.0,0.0,0.0,0.0,0.0,0.0,0.0,0.0,0.0,0.0,0.0,0.0,0.0,0.0,0.0,0.0,0.0,0.4671,0.5621,0.5841,0.6164,0.6439,0.6394,0.6352,0.6196,0.5788,0.5617,0.5427,0.5031,0.5059,0.5233,0.5442,0.5704,0.6658,0.8968,0.9943,1.1514,1.4713,1.6459,1.8034,1.9767,2.1371,2.2616,2.3323,2.3392,2.3764,2.4642,2.4707,2.4842,2.518,2.5302,2.536,2.5406,2.5495,2.556,2.5595,2.5605,2.5622,2.5697,2.5691,2.5707,2.5707,2.5707,2.5654,2.5601,2.5561,2.5504,0.0,2.5374,2.534,2.5284,2.5243,2.5214,2.5192,2.5031,2.5024,2.5138,0.0,0.0,0.0,0.0,0.0,0.0,0.0,-0.2807,-0.2589,-0.2447,-0.1623,-0.1191,-0.1588,-0.0911,-0.0392,-0.0327,0.0,0.0,0.0,0.0,0.0,0.0,0.0,0.0,0.0,0.0,0.0,-0.7433,-0.7351,-0.6493,-0.4898,0.0,0.0,0.0,-0.5537,0.0,0.0,0.0,0.0,0.0,0.0,0.0,0.0,0.0,0.0,0.0,0.0,0.0,0.0,0.0,0.0,0.0,0.0,0.0,0.0,0.0,0.0,0.0,0.0,0.5647,0.5638,0.5481,0.5557,0.5509,0.5004,0.496,0.0,0.4536,0.4765,0.5039,0.5088,0.5437,0.6156,0.7531,0.8596,1.047,1.4024,1.5436,1.729,2.0528,2.1444,2.222,2.3236,2.3392,2.3764,2.461,2.4692,2.4842,2.518,2.5269,2.5332,2.5406,2.5531,2.559,2.5605,2.5598,2.5638,2.5703,2.5696,2.5707,2.5707,2.5707,2.5654,2.5593,2.5526,2.546,2.5398,2.5322,2.5303,2.5293,2.5149,2.5096,2.508,2.4808,2.4794,2.4915,0.0,0.0,0.0,0.0,0.0,0.0,0.0,0.0,0.0,0.0,-0.16,-0.1338,-0.1042,-0.0785,-0.0579,0.0,0.0,0.0,0.0,0.0,0.0,0.0,0.0,0.0,0.0,0.0,0.0,-0.6802,-0.6651,-0.6289,-0.5781,-0.5165,0.0,0.0,0.0,0.0,0.0,0.0,0.0,0.0,0.0,0.0,0.0,0.0,0.0,0.0,0.01,0.0601,0.0,0.0,0.0,0.0,0.0,0.0,0.0,0.0,0.2879,0.3295,0.3596,0.0,0.4415,0.4076,0.4106,0.4105,0.0,0.3997,0.42,0.3999,0.4211,0.4528,0.4937,0.5445,0.657,0.897,1.0062,1.1876,1.5449,1.772,1.9541,2.0879,2.1625,2.222,2.2746,2.3165,2.3684,2.4332,2.4572,2.4842,2.518,2.5312,2.5369,2.5406,2.5531,2.561,2.5601,2.5607,2.5622,2.5694,2.5709,2.5707,2.5707,2.5707,2.5642,2.5521,2.551,2.5432,2.5322,2.5313,2.5303,2.5293,2.5149,2.5096,2.508,2.4808,2.4847,2.5037,0.0,0.0,0.0,0.0,0.0,0.0,0.0,0.0,0.0,0.0,0.0,0.0,0.0,0.0,0.0,0.0,0.0,0.0,0.0,0.0,0.0,0.0,0.0,0.0,0.0,0.0,0.0,0.0,0.0,-0.4023,0.0,0.0,0.0,0.0,0.0,0.0,0.0,0.0,0.0,0.0,0.0,0.0,0.0,0.0,0.0,0.0,0.1321,0.1555,0.0,0.1933,0.1953,0.1943,0.0,0.0,0.0,0.0,0.2394,0.2649,0.2745,0.3297,0.382,0.3555,0.3566,0.3581,0.3423,0.3505,0.3612,0.3646,0.0,0.4287,0.5199,0.5638,0.6694,0.9247,1.0481,1.2406,1.615,1.8419,1.9958,2.0684,2.1272,2.1869,2.2538,2.3093,2.3663,2.4244,2.4556,2.4842,2.518,2.5332,2.5406,2.5406,2.5531,2.5595,2.5609,2.5609,2.5623,2.5707,2.5707,2.5707,2.5707,2.5707,2.5645,2.5542,2.5515,2.5439,2.533,2.5303,2.5303,2.5274,2.5115,2.5043,2.4975,2.4734,2.479,2.5006,0.0,0.0,0.0,0.0,0.0,0.0,0.0,0.0,0.0,0.0,0.0,0.0,0.0,0.0,0.0,0.0,0.0,0.0,0.0,0.0,0.0,0.0,0.0,0.0,0.0,0.0,0.0,0.0,0.0,0.0,0.0,0.0,0.0397,0.0,0.0,0.0,0.0,0.0,0.0,0.0,0.0,0.0,0.0,0.0,0.0,0.0,0.0,0.0,0.0,0.1784,0.1859,0.188,0.1792,0.0,0.0,0.0,0.0,0.0,0.2521,0.3109,0.3607,0.342,0.3404,0.3408,0.3351,0.0,0.0,0.0,0.0,0.0,0.0,0.5957,0.6906,0.9191,1.0952,1.3215,1.6704,1.8481,1.9671,2.0333,2.0814,2.1437,2.2334,2.3021,2.362,2.4173,2.4489,2.4827,2.5156,2.5312,2.5378,2.5406,2.5531,2.5595,2.5609,2.5609,2.5623,2.5707,2.5707,2.5707,2.5707,2.5707,2.5654,2.5598,2.5526,2.546,2.5387,2.5331,2.5303,2.5274,2.508,2.4955,2.4874,2.4657,2.4704,2.4874,0.0,0.0,0.0,0.0,0.0,0.0,0.0,0.0,0.0,0.0,0.0,0.0,0.0,0.0,0.0,0.0,0.0,0.0,0.0,0.0,0.0,0.0,0.0,0.0,0.0,0.0,0.0,0.0,0.0,0.0,0.0308,0.0306,0.0339,0.0412,0.0,0.0,0.0,0.0,0.0,0.0,0.0,0.0,0.0,0.0,0.0,0.0,0.0,0.0,0.0,0.1487,0.1525,0.1535,0.1865,0.0,0.0,0.0,0.0,0.0,0.2818,0.3375,0.37,0.2995,0.2944,0.2988,0.2716,0.2874,0.0,0.0,0.0,0.0,0.0,0.6449,0.7979,1.0019,1.3629,1.6619,1.7853,1.9166,2.0085,2.0444,2.1023,2.1491,2.1642,2.2712,2.3512,2.3777,2.43,2.4772,2.5101,2.5231,2.5341,2.5406,2.5531,2.5595,2.5609,2.5609,2.5623,2.5707,2.5707,2.5707,2.5707,2.5707,2.5654,2.5598,2.5526,2.546,2.5387,2.5331,2.5303,2.5274,2.508,2.4955,2.4874,2.4657,2.466,2.4764,0.0,0.0,0.0,0.0,0.0,0.0,0.0,0.0,0.0,0.0,0.0,0.0,0.0,0.0,0.0,0.0,0.0,0.0,0.0,0.0,0.0,0.0,0.0,0.0,0.0,0.0,0.0,0.0,0.0,0.012,0.0188,0.0274,0.0305,0.0337,0.0,0.0,0.0,0.0,0.0,0.0,0.0,0.0,0.0,0.0,0.0,0.0,0.0,0.0,0.0,0.0,0.1293,0.1432,0.158,0.0,0.0,0.0,0.0,0.0,0.2387,0.2779,0.3033,0.2809,0.3161,0.3468,0.3208,0.3084,0.0,0.0,0.0,0.0,0.0,0.7287,0.9315,1.2686,1.5293,1.7291,1.8425,1.9126,1.9696,2.0139,2.0599,2.1039,2.1507,2.2487,2.3257,2.3717,2.4282,2.4707,2.498,2.5149,2.5284,2.5341,2.551,2.561,2.5609,2.5609,2.5623,2.5707,2.5707,2.5707,2.5707,2.5707,2.5654,2.5598,2.5526,2.546,2.5387,2.5331,2.5322,2.5341,2.522,2.5087,2.4987,2.4779,2.4749,2.4832,0.0,0.0,0.0,0.0,0.0,0.0,0.0,0.0,0.0,0.0,0.0,0.0,0.0,0.0,0.0,0.0,0.0,0.0,0.0,0.0,0.0,0.0,0.0,0.0,0.0,0.0,-0.0285,-0.0076,-0.0048,0.0,0.0055,0.0182,0.0243,0.0,0.0,0.0,0.0,0.0,0.0,0.0,0.0,0.0,0.0,0.0,0.0,0.0,0.0,0.0,0.0,0.0,0.0,0.0,0.0,0.0,0.0,0.1582,0.1629,0.167,0.1984,0.2211,0.2428,0.2745,0.0,0.367,0.3681,0.3359,0.0,0.0,0.0,0.0,0.6395,0.82,1.0798,1.4955,1.6336,1.7413,1.8821,1.9184,1.9442,1.9949,2.0364,2.0813,2.1477,2.2354,2.3165,2.3717,2.4247,2.4642,2.4888,2.5041,2.5184,2.5274,2.5464,2.5571,2.5607,2.5609,2.5623,2.5707,2.5707,2.5707,2.5707,2.5707,2.5676,2.5613,2.5532,2.5473,2.541,2.534,2.5351,2.5389,2.5312,2.5187,2.5057,2.4874,2.4888,2.4949,0.0,0.0,0.0,0.0,0.0,0.0,0.0,0.0,0.0,0.0,0.0,0.0,0.0,0.0,0.0,0.0,0.0,0.0,0.0,0.0,0.0,0.0,0.0,0.0,0.0,-0.0597,-0.0535,-0.0278,-0.0403,-0.0322,-0.0077,0.0,0.0049,0.0112,0.0,0.0,0.0,0.0,0.0,0.0,0.0,0.0,0.0,0.0,0.0,0.0,0.0,0.0,0.0,0.0,0.0,0.0,0.0,0.0,0.1167,0.1373,0.1378,0.1456,0.2116,0.2256,0.2311,0.2782,0.2793,0.0,0.3556,0.3496,0.0,0.3889,0.0,0.0,0.6003,0.9103,1.2487,1.5234,1.6728,1.797,1.9281,1.9624,1.9909,2.0304,2.0942,2.1308,2.1339,2.2485,2.3351,2.3596,2.4099,2.4564,2.4888,2.4904,2.4998,2.5205,2.5339,2.546,2.5601,2.5607,2.5623,2.5707,2.5707,2.5707,2.5707,2.5707,2.5707,2.5683,2.5552,2.5498,2.5486,2.5348,2.5351,2.5389,2.5273,2.5126,2.4994,2.4929,2.4962,2.5103,0.0,0.0,0.0,0.0,0.0,0.0,0.0,0.0,0.0,0.0,0.0,0.0,0.0,0.0,0.0,0.0,0.0,0.0,0.0,0.0,0.0,0.0,0.0,-0.0891,-0.0752,-0.0792,-0.0686,-0.0428,-0.0441,-0.0338,-0.0152,-0.0096,0.0,0.0,0.0,0.0,0.0,0.0,0.0,0.0,0.0,0.0,0.0,0.0,0.0,0.0,0.0,0.0,0.0,0.0,0.0584,0.0607,0.0,0.0,0.1065,0.1223,0.1334,0.1476,0.1734,0.1922,0.22,0.2771,0.2716,0.0,0.0,0.3638,0.3923,0.4826,0.5468,0.0,0.8381,1.0617,1.2929,1.5222,1.6667,1.7973,1.9169,1.9551,1.9889,2.0354,2.0761,2.1103,2.1339,2.2113,2.2895,2.3545,2.3945,2.4319,2.4764,2.4936,2.5053,2.5143,2.5348,2.5517,2.5601,2.5603,2.5622,2.5707,2.5707,2.5707,2.5707,2.5707,2.5707,2.5685,2.5606,2.5546,2.5498,2.5441,2.5404,2.5388,2.5303,2.5212,2.5115,2.5006,2.5031,2.5096,0.0,0.0,0.0,0.0,0.0,0.0,0.0,0.0,0.0,0.0,0.0,0.0,0.0,0.0,0.0,0.0,0.0,0.0,0.0,0.0,0.0,0.0,0.0,-0.0954,-0.0955,-0.0968,-0.0825,-0.0558,-0.0449,-0.038,-0.0328,0.0,0.0,0.0,0.0,0.0,0.0,0.0,0.0,0.0,0.0,0.0,0.0,0.0,0.0,0.0,0.0,0.0,0.0,0.0,0.0561,0.0,0.0,0.0,0.0,0.0,0.1363,0.1493,0.1601,0.1708,0.2008,0.281,0.0,0.0,0.4008,0.4157,0.4428,0.56,0.6065,0.7237,1.0193,1.1571,1.2977,1.5306,1.661,1.776,1.8983,1.9384,1.9711,2.0304,2.0628,2.0942,2.1324,2.1874,2.2574,2.3454,2.3806,2.4174,2.4642,2.4896,2.5061,2.5099,2.5321,2.5486,2.5598,2.5601,2.5621,2.5707,2.5707,2.5707,2.5707,2.5707,2.5707,2.5707,2.5629,2.5558,2.5498,2.5505,2.5464,2.5406,2.536,2.5284,2.5212,2.5157,2.5126,2.5138,0.0,0.0,0.0,0.0,0.0,0.0,0.0,0.0,0.0,0.0,0.0,0.0,0.0,0.0,0.0,0.0,0.0,0.0,0.0,0.0,0.0,0.0,0.0,-0.0896,-0.1085,-0.111,-0.0962,-0.07,-0.0512,-0.0481,-0.0607,-0.0468,0.0,0.0,0.0,0.0,0.0,0.0,0.0,0.0,0.0,0.0,0.0,0.0,0.0,0.0,0.0,0.0,0.0,0.0,0.0806,0.0698,0.0,0.0,0.0,0.1331,0.1409,0.1482,0.1821,0.1667,0.172,0.2986,0.0,0.0,0.5276,0.5084,0.4943,0.6091,0.6683,0.7925,1.0938,1.1688,1.2764,1.5647,1.6539,1.7434,1.8898,1.9101,1.9398,2.02,2.0595,2.0942,2.1276,2.1849,2.2521,2.3343,2.3705,2.4099,2.4556,2.4785,2.4949,2.5103,2.5235,2.5394,2.559,2.5598,2.5621,2.5707,2.5707,2.5707,2.5707,2.5707,2.5707,2.5707,2.5629,2.5558,2.5498,2.5505,2.5464,2.5395,2.5393,2.536,2.5321,2.538,2.5322,2.5203,0.0,0.0,0.0,0.0,0.0,0.0,0.0,0.0,0.0,0.0,0.0,0.0,0.0,0.0,0.0,0.0,0.0,0.0,0.0,0.0,0.0,0.0,0.0,0.0,0.0,0.0,-0.1005,-0.0976,-0.0824,-0.074,0.0,0.0,0.0,-0.045,0.0,0.0,0.0,0.0,0.0,0.0,0.0,0.0,0.0,0.0,0.0,0.0,0.0,0.0,0.0,0.0,0.0,0.0,0.0,0.0,0.0,0.1422,0.1607,0.1803,0.1995,0.2367,0.2909,0.3665,0.0,0.0,0.0,0.5803,0.0,0.0,0.8141,0.9349,1.1132,1.2335,1.3706,1.5416,1.6384,1.7434,1.8898,1.9101,1.9398,2.02,2.0795,2.1182,2.1308,2.1899,2.2563,2.3282,2.3512,2.3888,2.4493,2.4775,2.4949,2.5103,2.5224,2.5379,2.5532,2.5577,2.5613,2.5625,2.5675,2.5707,2.5707,2.5707,2.5691,2.5697,2.5672,2.5629,2.5556,2.5478,2.5456,2.5468,2.5421,2.5385,2.5378,2.5379,2.5361,2.5341,0.0,0.0,0.0,0.0,0.0,0.0,0.0,0.0,0.0,0.0,0.0,0.0,0.0,0.0,0.0,0.0,0.0,0.0,0.0,0.0,0.0,0.0,0.0,0.0,0.0,-0.101,-0.1017,0.0,0.0,0.0,0.0,0.0,0.0,-0.0585,0.0,-0.0472,0.0,0.0,0.0,0.0,-0.018,-0.0135,-0.0067,0.0,0.0,0.0,0.0,0.0,0.0,0.0,0.0,0.0,0.0,0.0,0.0,0.1557,0.1865,0.2195,0.2388,0.2882,0.3531,0.4466,0.496,0.5525,0.6837,0.0,0.6722,0.783,0.8532,0.9529,1.1445,1.2443,1.3597,1.559,1.6357,1.729,1.8869,1.9101,1.9398,2.02,2.0778,2.115,2.1308,2.1797,2.2409,2.3153,2.3401,2.3767,2.4392,2.4731,2.4949,2.5103,2.5233,2.5354,2.5502,2.5574,2.5601,2.5605,2.5677,2.5707,2.5707,2.5691,2.5694,2.5696,2.5672,2.5632,2.558,2.549,2.5468,2.5511,2.5456,2.5421,2.5357,2.5387,2.5388,2.5361,0.0,0.0,0.0,0.0,0.0,0.0,0.0,0.0,0.0,0.0,0.0,0.0,0.0,0.0,0.0,0.0,0.0,0.0,0.0,0.0,0.0,0.0,0.0,0.0,0.0,0.0,0.0,0.0,0.0,0.0,0.0,0.0,-0.0674,-0.0652,0.0,-0.0472,0.0,0.0,0.0,0.0,-0.0135,-0.0045,0.0067,0.009,0.0,0.0,0.0,0.0,0.0,0.0,0.0,0.0,0.0962,0.1208,0.1477,0.174,0.2136,0.2564,0.2914,0.32,0.3739,0.5248,0.5674,0.6134,0.7621,0.778,0.777,0.8461,0.8384,0.9081,1.1851,1.2246,1.3047,1.5971,1.6525,1.7139,1.8864,1.9101,1.9398,2.02,2.0628,2.0974,2.1276,2.1631,2.2198,2.3042,2.3351,2.3726,2.4266,2.467,2.4955,2.5103,2.5222,2.5337,2.549,2.5561,2.56,2.5604,2.5679,2.5707,2.5707,2.5697,2.5697,2.5709,2.5627,2.5603,2.5586,2.5534,2.5506,2.5511,2.5511,2.544,2.5311,2.5385,2.5359,2.5322,0.0,0.0,0.0,0.0,0.0,0.0,0.0,0.0,0.0,0.0,0.0,0.0,0.0,0.0,0.0,0.0,0.0,0.0,0.0,0.0,0.0,0.0,0.0,0.0,0.0,0.0,0.0,0.0,0.0,0.0,0.0,0.0,0.0,-0.0315,0.0,-0.027,0.0,0.0,0.0,-0.0405,-0.036,-0.0315,-0.027,-0.0067,0.0135,0.0,0.0,0.0,0.0,0.0,0.0,0.0,0.1208,0.1474,0.1692,0.1964,0.225,0.2593,0.3037,0.3541,0.0,0.5446,0.6615,0.7626,0.822,0.8316,0.8496,0.9142,0.9603,1.0358,1.188,1.3098,1.4308,1.5711,1.6589,1.7531,1.8921,1.9101,1.9398,2.02,2.0844,2.1214,2.1291,2.1857,2.2426,2.3042,2.3351,2.3726,2.4266,2.4578,2.4847,2.5084,2.5138,2.5254,2.5503,2.5579,2.5605,2.5603,2.5662,2.5707,2.5707,2.5709,2.5697,2.5702,2.5626,2.5601,2.5586,2.5531,2.5503,2.5511,2.5511,2.5484,2.5448,2.5401,2.5393,2.5376,0.0,0.0,0.0,0.0,0.0,0.0,0.0,0.0,0.0,0.0,0.0,0.0,0.0,0.0,0.0,0.0,0.0,0.0,0.0,0.0,-0.0895,-0.0895,0.0,0.0,0.0,0.0,0.0,0.0,0.0,0.0,0.0,0.0,0.0,-0.0292,0.0,-0.0202,0.0,0.0,-0.018,-0.0135,-0.0225,-0.0225,-0.0157,-0.0043,0.0063,0.0169,0.0275,0.0,0.0,0.0,0.0,0.0,0.0,0.0,0.1582,0.1942,0.225,0.2556,0.3068,0.3634,0.0,0.5915,0.0,0.8055,0.8795,0.8999,0.9231,1.005,1.0073,1.0402,1.1709,1.2957,1.4204,1.5336,1.6288,1.7357,1.8549,1.8884,1.9258,1.994,2.063,2.1119,2.126,2.1751,2.2287,2.2876,2.3206,2.3617,2.4079,2.4425,2.4731,2.5006,2.508,2.5192,2.5406,2.5498,2.5581,2.5593,2.5662,2.5701,2.5694,2.5709,2.5697,2.5703,2.565,2.5645,2.5632,2.5576,2.553,2.5511,2.5511,2.5511,2.5511,2.5456,2.5456,2.5456,0.0,0.0,0.0,0.0,0.0,0.0,0.0,0.0,0.0,0.0,0.0,0.0,0.0,0.0,0.0,0.0,0.0,0.0,0.0,-0.0995,-0.0939,-0.1034,0.0,0.0,0.0,0.0,0.0,0.0,0.0,0.0,0.0,0.0,0.0,-0.027,0.0,0.0,0.0,0.0,0.009,0.0202,0.0,-0.0022,0.0087,0.0061,0.0058,0.0077,0.0234,0.0334,0.0379,0.0393,0.0,0.0,0.0,0.0,0.1433,0.1876,0.2184,0.251,0.3051,0.3781,0.4803,0.6493,0.7406,0.8213,0.9349,0.9637,0.9942,1.0829,1.0331,1.0175,1.1514,1.2562,1.3607,1.4776,1.5786,1.6819,1.7915,1.8351,1.8841,1.9531,2.0273,2.0879,2.126,2.1661,2.2118,2.2659,2.3105,2.3508,2.3885,2.4301,2.4654,2.4929,2.5037,2.5171,2.5332,2.5451,2.5544,2.5603,2.5675,2.5703,2.5698,2.5694,2.5699,2.5703,2.5703,2.5694,2.5691,2.5641,2.5573,2.553,2.553,2.553,2.553,2.5511,2.5511,2.5511,0.0,0.0,0.0,0.0,0.0,0.0,0.0,0.0,0.0,0.0,0.0,-0.1683,-0.1416,-0.1405,0.0,0.0,0.0,0.0,-0.1027,0.0,0.0,-0.116,0.0,0.0,0.0,0.0,0.0,0.0,0.0,0.0,0.0,0.0,0.0,0.0202,0.0,0.0,0.0,0.0,-0.0045,-0.0135,-0.0045,0.0,0.004,0.0197,0.0261,0.0261,0.0286,0.0314,0.0319,0.0372,0.0515,0.0,0.0,0.0,0.1547,0.1898,0.2158,0.2439,0.3046,0.0,0.5855,0.0,0.8061,0.8964,0.9818,1.0235,1.0572,1.0905,1.0895,1.0964,1.1448,1.26,1.358,1.3851,1.4979,1.613,1.6973,1.7196,1.7744,1.9034,1.9878,2.0629,2.1243,2.1857,2.2349,2.2685,2.3165,2.3599,2.3885,2.4389,2.479,2.5061,2.5084,2.5214,2.5468,2.5542,2.5596,2.5609,2.5663,2.5693,2.5709,2.5701,2.5703,2.5703,2.5703,2.5703,2.5681,2.5636,2.5587,2.5588,2.5588,2.5588,2.5588,2.553,2.5511,2.5511,0.0,0.0,0.0,0.0,0.0,0.0,0.0,0.0,0.0,0.0,0.0,-0.1604,-0.1372,-0.1443,0.0,0.0,0.0,0.0,-0.1005,-0.0976,0.0,0.0,0.0,0.0,0.0,0.0,0.0,0.0,0.0,0.0,0.0,-0.0083,0.015,0.0,0.0,0.0,0.0,0.0,0.0,0.0134,0.0043,0.0,0.0,0.0057,0.0091,0.0148,0.0251,0.0393,0.0518,0.0437,0.0627,0.0961,0.1139,0.0,0.0,0.0,0.1982,0.2264,0.3179,0.4469,0.5876,0.0,0.8202,0.9173,1.0155,1.0611,1.0916,1.1228,1.1442,1.1664,1.1796,1.2924,1.3914,1.4169,1.5131,1.6078,1.6691,1.7142,1.7811,1.8921,1.972,2.0546,2.1488,2.1857,2.2135,2.246,2.2958,2.3397,2.3663,2.4174,2.461,2.4874,2.5012,2.516,2.5274,2.5443,2.5583,2.5652,2.5684,2.5707,2.5707,2.5702,2.5703,2.5703,2.5703,2.5691,2.5706,2.5679,2.5632,2.5596,2.5557,2.5538,2.5551,2.5515,2.5511,2.5511,0.0,0.0,0.0,0.0,0.0,0.0,0.0,0.0,0.0,0.0,0.0,0.0,-0.1367,0.0,0.0,0.0,0.0,0.0,-0.1016,0.0,0.0,0.0,0.0,0.0,0.0,0.0,0.0,0.0,0.0,0.0,-0.0413,-0.0202,-0.0021,0.0,0.0202,0.027,0.0,0.0,0.0,0.0,0.0188,0.0084,0.0064,0.0019,0.0036,0.0095,0.0253,0.0471,0.0679,0.0523,0.0761,0.1116,0.1163,0.1274,0.0,0.0,0.0,0.2291,0.3282,0.0,0.5516,0.7082,0.8135,0.9107,1.0416,1.0916,1.1228,1.1586,1.1979,1.2246,1.2354,1.3286,1.406,1.4328,1.513,1.5882,1.6393,1.689,1.759,1.8546,1.9257,2.0134,2.1358,2.1574,2.1848,2.236,2.2833,2.323,2.3581,2.4041,2.4444,2.4734,2.4936,2.5072,2.5149,2.5401,2.5579,2.5707,2.5703,2.5693,2.5707,2.5702,2.5703,2.5703,2.5703,2.5703,2.571,2.5704,2.5671,2.5626,2.5565,2.5552,2.555,2.5561,2.555,2.553,0.0,0.0,0.0,0.0,0.0,0.0,0.0,0.0,0.0,0.0,0.0,0.0,0.0,0.0,0.0,0.0,0.0,0.0,0.0,0.0,0.0,0.0,0.0,0.0,0.0,0.0,0.0,0.0,0.0,0.0,-0.0492,-0.0409,-0.0268,-0.009,0.0045,0.018,0.0292,0.0,0.0,0.0,0.0,0.0341,0.0277,0.0274,0.0277,0.0293,0.0304,0.0471,0.0697,0.0695,0.087,0.1139,0.1321,0.1388,0.1455,0.0,0.0,0.0,0.3263,0.391,0.0,0.6921,0.7913,0.8865,1.0594,1.1228,1.1586,1.2004,1.2354,1.2696,1.3079,1.3467,1.3735,1.3735,1.436,1.5065,1.5669,1.5857,1.6371,1.7622,1.8141,1.8989,2.0508,2.0955,2.1559,2.2607,2.2933,2.3328,2.3844,2.4137,2.447,2.4888,2.4902,2.5043,2.5293,2.5492,2.5632,2.5703,2.5703,2.5701,2.5707,2.5702,2.5703,2.5703,2.5703,2.5703,2.5701,2.5696,2.5693,2.5683,2.5683,2.5697,2.5693,2.5685,2.5646,2.5588,0.0,0.0,0.0,0.0,0.0,0.0,0.0,0.0,0.0,0.0,0.0,0.0,0.0,0.0,0.0,0.0,0.0,0.0,0.0,0.0,0.0,0.0,0.0,0.0,0.0,0.0,0.0,0.0,0.0,-0.031,-0.0303,-0.0204,-0.0121,-0.009,0.0045,0.0135,0.018,0.027,0.0,0.0,0.0,0.0357,0.0363,0.0322,0.032,0.037,0.0361,0.0621,0.0924,0.0751,0.107,0.1538,0.1433,0.1519,0.1692,0.1931,0.228,0.2726,0.3247,0.0,0.4634,0.5936,0.7345,0.8718,0.9948,1.1102,1.1979,1.2354,1.2708,1.3079,1.3429,1.3669,1.3914,1.4324,1.4624,1.5041,1.5653,1.6093,1.6655,1.7638,1.8219,1.9166,2.0716,2.0569,2.0745,2.1562,2.1618,2.1737,2.2021,2.2502,2.2882,2.3097,2.3761,2.4507,2.528,2.5452,2.5589,2.5703,2.5703,2.5703,2.5701,2.5703,2.5703,2.5703,2.5703,2.5703,2.5703,2.5705,2.5707,2.5693,2.5696,2.5698,2.5684,2.5654,2.5624,2.5593,0.0,0.0,0.0,0.0,0.0,0.0,0.0,0.0,0.0,0.0,0.0,0.0,0.0,0.0,0.0,0.0,0.0,0.0,0.0,0.0,0.0,0.0,0.0,0.0,0.0,0.0,0.0,0.0,0.0,0.0,0.0,-0.0103,-0.0076,-0.0086,0.0,0.0066,0.0,0.0,0.0,0.0313,0.0316,0.0363,0.0403,0.0348,0.0351,0.0406,0.0395,0.0643,0.0936,0.0758,0.1136,0.1629,0.1455,0.1585,0.1847,0.204,0.239,0.2785,0.3099,0.0,0.0,0.5636,0.6754,0.7969,0.9514,1.0775,1.1745,1.2268,1.2817,1.3353,1.3809,1.3947,1.4203,1.4856,1.5072,1.5359,1.5968,1.6382,1.686,1.7603,1.8045,1.8826,2.0097,1.9814,1.99,2.0696,2.0725,2.0811,2.1054,2.1516,2.1865,2.2088,2.3135,2.4064,2.482,2.5228,2.5492,2.5634,2.5652,2.5681,2.5703,2.5703,2.5703,2.5703,2.5703,2.5703,2.5703,2.5703,2.5705,2.5703,2.5696,2.5703,2.5683,2.5648,2.5637,2.5632,0.0,0.0,0.0,0.0,0.0,0.0,0.0,0.0,0.0,-0.1616,0.0,0.0,0.0,0.0,0.0,0.0,0.0,-0.1083,-0.1013,0.0,0.0,0.0,0.0,0.0,0.0,0.0,0.0,0.0,0.0,0.0,0.0,0.0,-0.0156,-0.0098,-0.0098,-0.0021,0.0112,0.0179,0.0247,0.0315,0.0382,0.0405,0.0409,0.0394,0.0411,0.0389,0.0395,0.053,0.0697,0.0719,0.1033,0.1416,0.1413,0.1585,0.1847,0.204,0.2484,0.2865,0.0,0.0,0.0,0.6037,0.6194,0.6608,0.9295,1.0232,1.0813,1.17,1.2568,1.3395,1.4144,1.43,1.4543,1.5195,1.558,1.5983,1.6517,1.6596,1.6805,1.7427,1.7474,1.7821,1.8626,1.8676,1.9101,2.0168,2.0355,2.0635,2.1085,2.1314,2.1621,2.2036,2.3097,2.3733,2.3892,2.482,2.5368,2.5492,2.5551,2.5634,2.5703,2.5703,2.5703,2.5703,2.5703,2.5703,2.5703,2.5703,2.5703,2.5703,2.5703,2.5703,2.5703,2.5703,2.5703,2.5703,0.0,0.0,0.0,0.0,0.0,0.0,-0.1745,-0.1909,-0.2003,0.0,0.0,0.0,0.0,0.0,0.0,0.0,0.0,-0.1345,-0.122,-0.1047,-0.0929,-0.0877,-0.0729,-0.0593,0.0,0.0,0.0,0.0,0.0,0.0,0.0,0.0,0.0,0.0,0.0076,0.0219,0.0245,0.0163,0.0212,0.036,0.0337,0.0442,0.0611,0.0452,0.0388,0.0399,0.0408,0.0565,0.0818,0.1057,0.1278,0.1499,0.1638,0.1736,0.1847,0.204,0.2346,0.269,0.2993,0.0,0.0,0.0,0.0,0.0,0.7233,0.8402,0.9707,1.1406,1.1945,1.255,1.4041,1.4493,1.4794,1.5239,1.5389,1.5638,1.6231,1.6474,1.6712,1.7084,1.7338,1.778,1.8493,1.8103,1.8184,1.9009,1.8853,1.8814,1.916,1.9632,2.0278,2.1068,2.213,2.3038,2.3752,2.4791,2.5329,2.5348,2.5478,2.5557,2.5632,2.5629,2.565,2.5703,2.5703,2.5703,2.5703,2.5703,2.5703,2.5703,2.5703,2.5703,2.5703,2.5703,2.5703,2.5703,0.0,0.0,0.0,0.0,0.0,-0.2304,-0.2106,-0.2237,-0.232,0.0,0.0,0.0,0.0,0.0,0.0,0.0,0.0,0.0,-0.1387,-0.1106,-0.0906,-0.0818,-0.0704,-0.058,-0.0444,0.0,0.0,0.0,0.0,0.0,0.0,0.0,0.0,-0.0141,0.0067,0.0218,0.0294,0.0244,0.036,0.0585,0.0651,0.0775,0.0887,0.0728,0.064,0.062,0.0492,0.0517,0.0701,0.1064,0.1362,0.1623,0.1808,0.1854,0.1825,0.1931,0.2234,0.2558,0.2846,0.3055,0.0,0.4215,0.0,0.0,0.655,0.7724,0.8947,1.0432,1.1467,1.2489,1.3628,1.4332,1.4842,1.5165,1.5389,1.5711,1.6285,1.6501,1.6753,1.7175,1.7386,1.764,1.8038,1.773,1.7671,1.8094,1.8014,1.8103,1.841,1.8896,1.9581,2.0496,2.157,2.2614,2.3604,2.4624,2.5154,2.5216,2.5359,2.5432,2.5472,2.5525,2.561,2.5701,2.5699,2.5703,2.5703,2.5703,2.5703,2.5703,2.5703,2.5703,2.5703,2.5703,2.5703,2.5703,0.0,0.0,-0.2338,-0.2265,-0.2477,-0.2653,-0.2611,-0.263,-0.2634,0.0,0.0,0.0,0.0,0.0,0.0,0.0,0.0,0.0,-0.1555,-0.1214,-0.0928,-0.0729,-0.0702,-0.063,-0.0518,-0.0454,0.0,0.0,0.0,0.0,0.0,0.0,0.0,-0.0082,0.0,0.016,0.0346,0.0444,0.0631,0.0876,0.1099,0.1215,0.1216,0.1127,0.1082,0.1039,0.0711,0.0517,0.0517,0.088,0.1357,0.1795,0.1943,0.1926,0.1828,0.1811,0.2125,0.0,0.2549,0.2878,0.0,0.483,0.4606,0.0,0.6479,0.7518,0.8316,0.9118,1.0887,1.2409,1.283,1.3721,1.4474,1.4667,1.5286,1.5926,1.6517,1.6596,1.6831,1.7427,1.7515,1.7515,1.7515,1.7515,1.7498,1.7489,1.7772,1.8082,1.8454,1.8878,1.9469,2.0263,2.1395,2.2452,2.3412,2.4384,2.4936,2.5061,2.5233,2.5293,2.5294,2.5445,2.5569,2.5681,2.5673,2.5683,2.5683,2.5703,2.5703,2.5703,2.5703,2.5703,2.5703,2.5703,2.5703,2.5703,0.0,-0.2669,-0.2674,-0.2621,-0.2876,-0.2965,-0.2653,-0.2835,-0.2945,-0.2764,0.0,0.0,0.0,0.0,0.0,0.0,0.0,0.0,-0.1835,-0.1409,-0.1068,-0.0869,-0.0702,-0.0602,-0.0588,-0.0573,-0.0513,0.0,0.0,0.0,0.0,0.0,0.0,0.0,0.0226,0.0396,0.0559,0.0909,0.1095,0.1194,0.1148,0.1249,0.1442,0.1578,0.1572,0.1447,0.1233,0.099,0.084,0.1016,0.1561,0.2157,0.1983,0.2021,0.2097,0.1923,0.2146,0.2504,0.2866,0.3037,0.3299,0.4002,0.4357,0.0,0.509,0.5993,0.7121,0.8327,0.9158,0.9928,1.0931,1.2178,1.2873,1.2307,1.3898,1.5565,1.6474,1.6596,1.6831,1.7427,1.7515,1.7515,1.7515,1.7515,1.7498,1.7498,1.7844,1.8128,1.8232,1.9188,1.9847,2.012,2.1698,2.2703,2.3012,2.4158,2.4752,2.4795,2.5118,2.5293,2.5303,2.544,2.5511,2.5538,2.5532,2.5566,2.5626,2.5681,2.5703,2.5703,2.5703,2.5703,2.5703,2.5703,2.5703,2.5703,-0.285,-0.2963,-0.303,-0.2955,-0.3204,-0.3285,-0.2957,-0.3039,-0.3081,-0.293,0.0,0.0,0.0,0.0,0.0,0.0,0.0,0.0,-0.1814,-0.136,-0.1042,-0.0901,-0.0809,-0.0741,-0.0695,-0.0726,-0.0676,-0.0555,0.0,0.0,0.0,0.0,0.0,-0.0088,0.0176,0.0373,0.0531,0.0865,0.1075,0.1221,0.1423,0.166,0.1903,0.1945,0.1922,0.1866,0.1677,0.1632,0.1616,0.1524,0.1863,0.2298,0.2023,0.2012,0.2081,0.1984,0.2063,0.2301,0.2778,0.2901,0.3096,0.3978,0.4112,0.0,0.0,0.5341,0.6162,0.7595,0.8382,0.9142,1.0291,1.1447,1.2178,1.2079,1.3539,1.4848,1.5282,1.5743,1.6355,1.715,1.7073,1.71,1.7465,1.7515,1.7515,1.7515,1.7866,1.8107,1.81,1.9225,2.005,2.0541,2.1846,2.2799,2.328,2.4096,2.4503,2.4503,2.4904,2.5103,2.5103,2.5313,2.5404,2.5395,2.5466,2.5538,2.5607,2.5643,2.5642,2.565,2.5683,2.5703,2.5703,2.5703,2.5703,2.5703,-0.3097,-0.3275,-0.3393,-0.3337,-0.3474,-0.3535,-0.3266,-0.3208,-0.3138,0.0,0.0,0.0,0.0,0.0,-0.2381,0.0,0.0,0.0,-0.1795,-0.136,-0.1066,-0.0961,-0.0949,-0.0904,-0.0833,-0.0888,-0.0842,-0.0708,0.0,0.0,0.0,-0.0161,-0.0112,-0.0098,0.0129,0.0312,0.0452,0.0688,0.0921,0.1184,0.1672,0.2001,0.2175,0.2186,0.22,0.2195,0.1992,0.2126,0.2304,0.198,0.2112,0.2368,0.2106,0.204,0.2084,0.2085,0.2068,0.2179,0.2723,0.2843,0.3052,0.4093,0.3984,0.3882,0.0,0.0,0.0,0.6947,0.785,0.8672,0.9682,1.0594,1.1353,1.1754,1.293,1.3714,1.3457,1.4266,1.5305,1.6495,1.6619,1.6762,1.7139,1.7103,1.72,1.7482,1.7686,1.7864,1.7966,1.9077,2.0097,2.0919,2.1832,2.2747,2.3606,2.4023,2.4229,2.4265,2.4678,2.4883,2.4923,2.5182,2.5302,2.5329,2.5453,2.553,2.5588,2.5588,2.5583,2.5585,2.565,2.5681,2.5681,2.5703,2.5703,2.5703,-0.3814,-0.3857,-0.3818,-0.375,-0.3709,-0.3598,-0.3338,-0.3245,-0.3095,0.0,0.0,0.0,-0.2096,-0.2074,-0.211,-0.2182,-0.2224,-0.2211,-0.2142,-0.1752,-0.1427,-0.1169,-0.1112,-0.1038,-0.098,-0.0989,-0.0894,-0.0708,0.0,0.0,0.0,0.0064,0.0193,0.0253,0.033,0.0,0.0,0.0728,0.0976,0.1311,0.1676,0.1773,0.1731,0.2253,0.2431,0.2361,0.2154,0.2089,0.2099,0.1867,0.2123,0.2437,0.2182,0.2208,0.237,0.2435,0.237,0.2431,0.3269,0.3383,0.3324,0.37,0.4179,0.4475,0.4251,0.0,0.5754,0.6457,0.0,0.7357,0.7824,0.0,0.0,0.9022,1.0676,1.1766,1.1088,1.1904,1.3232,1.5027,1.6499,1.7016,1.6071,1.5714,1.6088,1.7415,1.7048,1.7101,1.7871,1.8883,1.9843,2.0723,2.1657,2.2526,2.3342,2.3798,2.4022,2.4041,2.4564,2.4872,2.4998,2.5203,2.536,2.5492,2.5492,2.5511,2.5511,2.5511,2.5499,2.551,2.558,2.5613,2.5623,2.5681,2.5703,2.5703,-0.3739,-0.3804,-0.3869,-0.38,-0.378,-0.3605,-0.3141,-0.2869,-0.2681,0.0,0.0,-0.239,-0.2255,-0.2196,-0.2193,-0.2205,-0.2125,-0.2051,-0.2027,-0.1689,-0.14,-0.1214,-0.1166,-0.1131,-0.1054,-0.1054,-0.0995,-0.0882,-0.0555,0.0,0.0,0.0,0.016,0.0188,0.0369,0.0468,0.049,0.0661,0.0822,0.0982,0.1355,0.1405,0.1364,0.2261,0.266,0.2719,0.2513,0.2516,0.2577,0.2312,0.2352,0.2458,0.2181,0.2172,0.2269,0.244,0.2466,0.2579,0.3388,0.3543,0.3527,0.3793,0.3889,0.3853,0.3772,0.3961,0.4545,0.5982,0.0,0.0,0.0,0.0,0.0,0.0,0.9781,1.0431,1.0341,1.1303,1.2588,1.4116,1.4304,1.4571,1.5269,1.556,1.6203,1.7408,1.6431,1.6356,1.7726,1.8305,1.9013,1.9904,2.0725,2.1604,2.2547,2.3007,2.3467,2.3959,2.4441,2.4731,2.4818,2.5018,2.5173,2.5274,2.5423,2.5511,2.5511,2.5511,2.5484,2.5445,2.5518,2.5564,2.5589,2.562,2.5632,2.5646,-0.3483,0.0,-0.3835,-0.3689,-0.3668,-0.3472,-0.2928,-0.2567,-0.2359,-0.2315,-0.2398,-0.2426,-0.2359,-0.2369,-0.2385,-0.2427,-0.2283,-0.2188,-0.2188,-0.1842,-0.1558,-0.1456,-0.1318,-0.1239,-0.1219,-0.1149,-0.1093,-0.0995,-0.0571,0.0,0.0,0.0,0.0212,0.0212,0.0451,0.0537,0.0511,0.0689,0.0802,0.0904,0.121,0.131,0.1372,0.2214,0.2699,0.2937,0.2807,0.2832,0.2917,0.2661,0.2552,0.2514,0.2275,0.2189,0.2239,0.2615,0.2668,0.2815,0.3663,0.3841,0.3802,0.3857,0.3626,0.3372,0.3293,0.3206,0.3639,0.5463,0.591,0.0,0.0,0.0,0.816,0.8958,0.0,0.9364,0.9349,1.0405,1.1585,1.2725,1.2134,1.2339,1.4126,1.4568,1.532,1.671,1.5786,1.5785,1.7266,1.7703,1.8254,1.8947,1.9717,2.0697,2.1908,2.2314,2.296,2.3876,2.4302,2.4564,2.4711,2.4864,2.4998,2.513,2.5351,2.5468,2.5511,2.5511,2.5456,2.5401,2.5456,2.5495,2.5553,2.5561,2.5564,2.5571,-0.3158,-0.3491,-0.3696,-0.3381,-0.3317,-0.319,-0.2762,-0.2481,-0.2267,-0.2122,-0.2122,-0.2145,-0.2195,-0.2431,-0.2691,-0.2961,-0.2984,-0.298,-0.298,-0.2466,-0.215,-0.2079,-0.1628,-0.1427,-0.1496,-0.129,-0.1131,-0.0995,-0.0529,0.0,0.0,0.0,0.0,0.0,0.0625,0.0726,0.078,0.0864,0.1039,0.1297,0.1451,0.1671,0.1969,0.208,0.2441,0.2909,0.2907,0.2907,0.2893,0.2721,0.268,0.2656,0.2531,0.2416,0.2421,0.3149,0.3127,0.3147,0.4333,0.4482,0.4187,0.3723,0.3602,0.3445,0.2853,0.2973,0.3575,0.4948,0.5844,0.6716,0.7818,0.8374,0.8685,0.0,0.8808,0.0,0.0,0.8551,0.9632,1.0324,1.0604,1.1227,1.2443,1.1952,1.2524,1.4902,1.5033,1.5425,1.6387,1.725,1.7749,1.7845,1.87,1.9958,2.1687,2.1914,2.2624,2.3816,2.4078,2.4391,2.4697,2.478,2.4949,2.5205,2.5274,2.5388,2.5511,2.5511,2.5456,2.5401,2.5401,2.5412,2.5415,2.5476,2.5492,2.5519,-0.334,-0.3426,-0.3499,-0.3387,-0.3366,-0.3254,-0.2885,-0.2524,-0.2355,-0.2534,-0.2362,-0.2378,-0.2757,-0.2731,-0.2766,-0.3053,-0.2939,-0.2892,-0.2999,-0.2449,-0.2234,-0.2413,-0.1803,-0.1562,-0.1762,-0.1438,-0.1248,-0.1197,-0.0641,0.0,0.0,0.0,0.0,0.0,0.0584,0.0682,0.0734,0.0801,0.0925,0.105,0.1391,0.169,0.2004,0.2074,0.2434,0.2836,0.2485,0.2642,0.2943,0.2639,0.2492,0.2464,0.2593,0.2696,0.2832,0.3229,0.3467,0.3775,0.4392,0.4509,0.4347,0.4081,0.3733,0.3339,0.2861,0.2969,0.3481,0.4686,0.546,0.6287,0.7387,0.774,0.7945,0.0,0.0,0.7671,0.0,0.843,0.8666,0.871,1.0587,1.1583,1.0783,1.1568,1.2884,1.4724,1.4513,1.5071,1.6894,1.6907,1.7127,1.771,1.8031,1.8739,1.9975,2.0828,2.1706,2.262,2.3503,2.4097,2.4355,2.4487,2.467,2.4949,2.5037,2.5182,2.5293,2.5293,2.533,2.5401,2.5401,2.5404,2.5395,2.5421,2.5429,2.5429,-0.3387,-0.333,-0.3309,-0.3245,-0.3196,-0.3111,-0.2864,-0.2675,-0.2618,-0.2774,-0.2704,-0.2767,-0.3205,-0.3124,-0.3142,-0.3382,-0.3286,-0.322,-0.3171,-0.2702,-0.2484,-0.2638,-0.2099,-0.1892,-0.2112,-0.1708,-0.1504,-0.1469,-0.077,-0.0426,0.0,0.0,0.0,0.0,0.0,0.0655,0.0764,0.0842,0.0917,0.1024,0.1385,0.1661,0.1869,0.2082,0.2445,0.2816,0.2598,0.2827,0.317,0.2773,0.2592,0.2532,0.2705,0.2829,0.2973,0.3431,0.3766,0.4073,0.4477,0.4572,0.4463,0.4229,0.3866,0.3479,0.303,0.3134,0.3603,0.47,0.5462,0.6243,0.7379,0.7638,0.7746,0.0,0.0,0.7309,0.0,0.7914,0.7823,0.7993,0.9698,1.0575,0.9772,1.0577,1.2058,1.4234,1.3999,1.4681,1.679,1.6785,1.6884,1.7227,1.7478,1.808,1.9011,2.0119,2.1136,2.2011,2.3141,2.3816,2.4058,2.4247,2.4456,2.4663,2.4842,2.5,2.513,2.513,2.5194,2.5283,2.5283,2.5312,2.5369,2.5395,2.5393,2.5401,-0.3245,-0.3208,-0.3144,-0.295,-0.2859,-0.2789,-0.2724,-0.2874,-0.2978,-0.2856,-0.3065,-0.3306,-0.3501,-0.3615,-0.378,-0.3967,-0.398,-0.3862,-0.3535,-0.3196,-0.292,-0.2761,-0.2463,-0.2366,-0.2519,-0.2112,-0.1855,-0.1806,-0.0926,-0.0468,0.0,0.0,0.0,0.0,0.054,0.0691,0.0893,0.0956,0.1089,0.1235,0.1509,0.1609,0.1653,0.2096,0.2506,0.2844,0.314,0.3407,0.3534,0.309,0.2912,0.2912,0.2912,0.2873,0.2926,0.384,0.4034,0.4061,0.4621,0.4709,0.453,0.4204,0.3987,0.3771,0.3314,0.346,0.3966,0.491,0.5711,0.6609,0.7655,0.807,0.811,0.0,0.0,0.736,0.7328,0.7103,0.7273,0.8181,0.8141,0.8404,0.936,0.9084,1.0188,1.3398,1.3553,1.4313,1.6144,1.6806,1.6927,1.6447,1.71,1.7893,1.8829,1.9802,2.0835,2.1935,2.2962,2.3576,2.3795,2.4039,2.4247,2.4402,2.4648,2.4861,2.4994,2.4994,2.5037,2.5111,2.5091,2.5184,2.5313,2.5388,2.5404,2.5401,-0.3294,-0.3187,-0.3117,-0.3122,-0.3025,-0.2918,-0.2859,-0.3013,-0.3177,-0.3304,-0.3409,-0.36,-0.3851,-0.3769,-0.3724,-0.3775,-0.3759,-0.381,-0.3851,-0.3382,-0.3181,-0.3428,-0.2761,-0.248,-0.2727,-0.2196,-0.1855,-0.1806,-0.0974,-0.0512,-0.0379,0.0,0.0,0.0,0.0,0.0538,0.0678,0.0862,0.1153,0.1519,0.1846,0.1942,0.1991,0.2846,0.3134,0.3076,0.2856,0.3144,0.3615,0.3262,0.3129,0.3173,0.3357,0.3551,0.3785,0.3913,0.4156,0.4427,0.453,0.4543,0.4517,0.4423,0.406,0.372,0.3589,0.3637,0.3966,0.491,0.5521,0.6118,0.7063,0.7565,0.7807,0.767,0.7956,0.8105,0.7844,0.8296,0.887,0.9388,0.9781,0.9634,0.8769,1.018,1.1653,1.2871,1.3515,1.4675,1.6563,1.5493,1.5528,1.7025,1.6822,1.7057,1.7835,1.9327,2.0296,2.0759,2.2258,2.3182,2.3576,2.3642,2.386,2.4174,2.4265,2.4472,2.4771,2.4771,2.4883,2.5037,2.5149,2.5253,2.5389,2.5379,2.5397,2.5404,-0.3309,-0.3452,-0.3589,-0.3643,-0.3694,-0.3621,-0.3226,-0.3224,-0.3353,-0.3569,-0.3724,-0.3861,-0.3962,-0.4002,-0.3993,-0.3961,-0.3896,-0.384,-0.386,-0.3538,-0.3434,-0.3601,-0.3145,-0.2888,-0.2932,-0.2346,-0.1976,-0.1842,-0.099,-0.0535,-0.0468,0.0,0.0,0.0,0.0,0.0502,0.0652,0.0814,0.1162,0.1645,0.1948,0.2216,0.0,0.3265,0.3513,0.3432,0.3276,0.3528,0.3921,0.352,0.3391,0.3391,0.3571,0.3748,0.3924,0.4056,0.4272,0.4491,0.4499,0.4456,0.4412,0.4499,0.4379,0.4256,0.4256,0.4414,0.4773,0.5494,0.5796,0.6209,0.6943,0.7273,0.7382,0.7427,0.7577,0.7714,0.7895,0.8379,0.8875,0.9244,0.9953,0.9968,0.8863,1.034,1.1764,1.2681,1.3195,1.4223,1.6003,1.5511,1.578,1.7076,1.6967,1.7084,1.7515,1.9144,2.0111,2.0333,2.1996,2.2977,2.3342,2.3458,2.362,2.3858,2.402,2.4229,2.4458,2.4559,2.47,2.4888,2.5084,2.5203,2.5283,2.538,2.5407,2.5397,-0.3453,-0.3891,-0.4243,-0.4204,-0.4475,-0.4477,-0.3864,-0.363,-0.3594,-0.3748,-0.402,-0.4165,-0.4055,-0.4332,-0.4465,-0.4367,-0.4198,-0.4002,-0.3796,-0.3756,-0.3684,-0.3559,-0.3506,-0.3335,-0.3105,-0.2497,-0.2085,-0.1869,-0.0975,-0.0541,0.0,0.0,0.0,0.0,0.0,0.0493,0.0686,0.0803,0.118,0.1676,0.196,0.2429,0.3017,0.3455,0.3671,0.3806,0.3957,0.4103,0.4228,0.3829,0.3697,0.3697,0.3697,0.3697,0.3785,0.4184,0.4292,0.4353,0.4449,0.4418,0.4386,0.4542,0.4794,0.5043,0.5101,0.5394,0.5825,0.6204,0.6289,0.6465,0.7076,0.7112,0.7141,0.7242,0.7071,0.719,0.7942,0.8187,0.8337,0.8576,0.9499,0.0,0.9162,1.0157,1.1337,1.2526,1.2603,1.3353,1.5016,1.5696,1.6247,1.6783,1.7126,1.7327,1.7427,1.9094,2.0044,2.0284,2.1919,2.2825,2.307,2.3295,2.344,2.3508,2.3899,2.4078,2.4116,2.4393,2.4582,2.4719,2.4968,2.5053,2.5084,2.5273,2.5341,2.5351,-0.4205,-0.4393,-0.452,-0.4243,-0.4475,-0.4804,-0.51,-0.4666,-0.4277,-0.4211,-0.4561,-0.4813,-0.4723,-0.4985,-0.5012,-0.4733,-0.4682,-0.4543,-0.4199,-0.4033,-0.3946,-0.3906,-0.3486,-0.3208,-0.3105,-0.2444,-0.1974,-0.1645,-0.1052,-0.062,0.0,0.0,0.0,0.0,0.0,0.0406,0.0547,0.0686,0.118,0.1872,0.2034,0.254,0.3257,0.3581,0.3689,0.3735,0.3874,0.4077,0.4272,0.4184,0.4184,0.4184,0.4184,0.4184,0.4184,0.4272,0.4382,0.4453,0.4499,0.4605,0.4774,0.4991,0.5134,0.5224,0.5522,0.5653,0.5825,0.6204,0.6289,0.6465,0.6937,0.7349,0.7687,0.8029,0.8347,0.8793,0.9373,0.9573,0.9541,0.9281,1.0132,1.0192,0.8751,1.0781,1.2055,1.1767,1.1632,1.2467,1.4588,1.3241,1.3615,1.6235,1.6173,1.6378,1.7002,1.8779,1.9786,2.0078,2.1532,2.2446,2.285,2.2902,2.3133,2.3508,2.3753,2.3959,2.4116,2.4393,2.458,2.4697,2.4737,2.4836,2.4943,2.4981,2.5061,2.519,-0.5282,-0.5033,-0.4854,-0.5181,-0.524,-0.5294,-0.5569,-0.5403,-0.5175,-0.4843,-0.5003,-0.5091,-0.4964,-0.5189,-0.5205,-0.4876,-0.4818,-0.4677,-0.4366,-0.4221,-0.4053,-0.3853,-0.3532,-0.3171,-0.2739,-0.2279,-0.1849,-0.1453,-0.099,-0.0606,-0.0337,-0.0045,0.0,0.0203,0.0,0.0356,0.0465,0.0474,0.1005,0.1865,0.1975,0.2534,0.3368,0.3602,0.3716,0.3727,0.3851,0.4025,0.4176,0.4176,0.4296,0.4414,0.4414,0.4475,0.4548,0.4548,0.4609,0.4678,0.4678,0.4933,0.5251,0.5194,0.5595,0.6034,0.6004,0.6209,0.6422,0.6634,0.6677,0.6719,0.6979,0.7189,0.7565,0.8193,0.848,0.8895,0.9634,0.9646,0.9468,0.9072,0.9688,0.9702,0.8653,1.0171,1.1039,1.0643,1.118,1.2217,1.3903,1.3388,1.3957,1.592,1.6103,1.6397,1.6901,1.8561,1.9611,2.0001,2.1576,2.248,2.2816,2.2919,2.3077,2.3319,2.3553,2.3753,2.3979,2.4358,2.4532,2.4594,2.4666,2.4741,2.4799,2.4877,2.4943,2.5031,-0.6102,-0.5658,-0.5401,-0.6147,-0.6091,-0.5961,-0.6021,-0.6125,-0.5995,-0.537,-0.5406,-0.5365,-0.5126,-0.5395,-0.548,-0.5107,-0.494,-0.4728,-0.442,-0.4251,-0.3988,-0.3648,-0.3451,-0.3035,-0.2441,-0.2116,-0.1777,-0.1342,-0.0913,-0.0625,-0.0425,-0.0069,0.0092,0.0095,0.0218,0.0299,0.0353,0.0417,0.0955,0.1764,0.1969,0.2577,0.3394,0.3524,0.3633,0.3705,0.3798,0.395,0.4113,0.4127,0.4307,0.451,0.451,0.4646,0.4804,0.4804,0.4931,0.501,0.501,0.5458,0.5854,0.5632,0.6184,0.6708,0.6483,0.6719,0.6979,0.6979,0.6979,0.6979,0.6979,0.7063,0.7398,0.8193,0.8398,0.8732,0.9594,0.944,0.9104,0.8753,0.8983,0.8994,0.8479,0.9125,0.9584,0.9671,1.0737,1.1919,1.3152,1.3845,1.4639,1.5652,1.6105,1.6485,1.6783,1.8211,1.9268,1.9924,2.1397,2.23,2.2668,2.2876,2.2995,2.3052,2.3365,2.3642,2.3899,2.4248,2.4446,2.4517,2.4626,2.4657,2.4676,2.4771,2.4828,2.4874,-0.5963,-0.6194,-0.6348,-0.6439,-0.6595,-0.6778,-0.7004,-0.6975,-0.6538,-0.5439,-0.5734,-0.5845,-0.5408,-0.5926,-0.6145,-0.5756,-0.5329,-0.4872,-0.4413,-0.3931,-0.3585,-0.3435,-0.3019,-0.2679,-0.251,-0.2101,-0.1758,-0.1484,-0.103,-0.069,-0.0492,-0.0144,0.0049,0.0111,0.0178,0.0195,0.0143,0.0655,0.1148,0.1678,0.2222,0.2751,0.3214,0.3258,0.3384,0.3594,0.3641,0.3877,0.42,0.4186,0.4386,0.4595,0.4595,0.4697,0.4804,0.4804,0.5275,0.5775,0.5775,0.6135,0.6587,0.6832,0.6783,0.6669,0.6875,0.6979,0.6979,0.6979,0.6979,0.6979,0.6979,0.7349,0.7765,0.8234,0.8651,0.9136,0.9704,0.9507,0.9158,0.8812,0.8597,0.8329,0.7914,0.8006,0.8417,0.9194,0.9913,1.103,1.2581,1.2968,1.3812,1.5299,1.5682,1.605,1.6443,1.7567,1.8616,1.9644,2.0462,2.1317,2.2181,2.2426,2.2659,2.285,2.3301,2.371,2.4078,2.4116,2.4266,2.45,2.4498,2.4534,2.4534,2.4532,2.4613,2.4723,-0.74,-0.6892,-0.6557,-0.6987,-0.6803,-0.6772,-0.7259,-0.7088,-0.6576,-0.5709,-0.6006,-0.6105,-0.5702,-0.586,-0.5947,-0.5941,-0.5435,-0.4973,-0.4623,-0.4005,-0.3556,-0.3294,-0.3011,-0.2758,-0.243,-0.2147,-0.1873,-0.1573,-0.1122,-0.0831,-0.0622,-0.0309,-0.0141,-0.0089,0.0,0.0,0.0,0.0549,0.1065,0.1561,0.222,0.2789,0.3207,0.3381,0.3543,0.3736,0.3736,0.3929,0.4209,0.4209,0.4463,0.4766,0.4766,0.5194,0.5645,0.5645,0.6125,0.6627,0.6627,0.6884,0.712,0.711,0.7127,0.7122,0.7003,0.6979,0.6979,0.6979,0.6979,0.6979,0.6979,0.7391,0.7848,0.8234,0.8692,0.9185,0.9674,0.944,0.9188,0.9119,0.8402,0.7999,0.8197,0.7784,0.802,0.9329,0.9165,0.9715,1.138,1.1972,1.2798,1.3941,1.5008,1.5725,1.605,1.7176,1.8278,1.9311,2.0351,2.1306,2.2124,2.249,2.279,2.2995,2.3365,2.3598,2.3753,2.3999,2.4154,2.4266,2.4429,2.45,2.45,2.45,2.4515,2.4582,-0.8223,-0.7555,-0.7182,-0.7746,-0.7503,-0.7306,-0.7623,-0.7357,-0.6826,-0.6004,-0.6085,-0.6006,-0.5555,-0.5663,-0.5764,-0.575,-0.5333,-0.4933,-0.4571,-0.3877,-0.3385,-0.3112,-0.2949,-0.273,-0.2423,-0.2234,-0.2025,-0.1799,-0.1363,-0.1089,-0.0964,-0.0599,-0.0366,-0.0267,-0.022,-0.0192,-0.0157,0.0517,0.1019,0.1491,0.226,0.2853,0.3198,0.3389,0.3595,0.3729,0.3729,0.3923,0.4207,0.4207,0.4471,0.4888,0.5047,0.5561,0.6159,0.6372,0.6858,0.7348,0.7348,0.7477,0.7579,0.7387,0.7347,0.7281,0.7068,0.6979,0.6979,0.6979,0.6979,0.6979,0.6979,0.7266,0.7682,0.8234,0.8561,0.9016,0.9603,0.9411,0.917,0.9112,0.8223,0.7744,0.8129,0.7737,0.8019,0.9401,0.8973,0.9434,1.1228,1.1701,1.2422,1.3558,1.4746,1.5507,1.5811,1.6838,1.7911,1.9013,2.0167,2.1149,2.1969,2.2409,2.2747,2.3003,2.3223,2.3371,2.3526,2.3878,2.4058,2.4135,2.4393,2.45,2.45,2.45,2.45,2.45,-0.7823,-0.8167,-0.846,-0.8802,-0.8866,-0.8761,-0.846,-0.8045,-0.7424,-0.6335,-0.5868,-0.5384,-0.4868,-0.5539,-0.5755,-0.5183,-0.5096,-0.4831,-0.4172,-0.3419,-0.2968,-0.2894,-0.2648,-0.2501,-0.2501,-0.2312,-0.2242,-0.2296,-0.1751,-0.1527,-0.1563,-0.0978,-0.0588,-0.0392,-0.0412,-0.0388,-0.0314,0.0582,0.1144,0.1473,0.2428,0.2968,0.3216,0.3218,0.3346,0.3614,0.3614,0.3857,0.419,0.419,0.4411,0.4798,0.5399,0.5782,0.6109,0.6696,0.7391,0.7871,0.7871,0.7911,0.7888,0.7882,0.743,0.7027,0.7021,0.6979,0.6979,0.6979,0.6979,0.6979,0.6979,0.7021,0.7273,0.8152,0.8316,0.8651,0.9563,0.9411,0.9068,0.8639,0.8011,0.7568,0.7419,0.7772,0.8356,0.9245,0.9542,1.0581,1.2675,1.2416,1.3004,1.4724,1.5117,1.5463,1.5811,1.6458,1.7485,1.8795,1.9613,2.0564,2.162,2.194,2.2364,2.2816,2.2816,2.3077,2.3526,2.371,2.3919,2.4135,2.4393,2.45,2.45,2.45,2.45,2.45,-0.9608,-0.9489,-0.9343,-0.9313,-0.9289,-0.9274,-0.9172,-0.8443,-0.7702,-0.6957,-0.6225,-0.5575,-0.5193,-0.5188,-0.5324,-0.541,-0.5171,-0.482,-0.4546,-0.3813,-0.3296,-0.3113,-0.2936,-0.2827,-0.2829,-0.2586,-0.2477,-0.2498,-0.1986,-0.1619,-0.1438,-0.1145,-0.0946,-0.0862,-0.0631,-0.0517,-0.0487,0.0535,0.0979,0.1191,0.2419,0.2977,0.3086,0.3382,0.3599,0.3739,0.3739,0.3874,0.4135,0.4622,0.4893,0.5167,0.6268,0.6539,0.6534,0.7235,0.7877,0.8408,0.8474,0.8219,0.7882,0.7882,0.743,0.6979,0.6979,0.6979,0.6979,0.6979,0.6979,0.6979,0.6979,0.7273,0.7641,0.8193,0.8561,0.8975,0.9603,0.9612,0.9513,0.9441,0.8714,0.8415,0.8911,0.8261,0.8238,0.9345,0.9265,0.9788,1.1215,1.2032,1.2733,1.3272,1.4598,1.5358,1.5477,1.6353,1.7364,1.8483,1.9403,2.0534,2.1811,2.2027,2.2364,2.2816,2.2816,2.2952,2.3247,2.3486,2.371,2.3919,2.4135,2.4339,2.45,2.45,2.45,2.45,-1.0309,-1.0195,-1.0089,-0.9988,-1.0009,-1.0002,-0.9864,-0.8919,-0.8085,-0.7649,-0.6649,-0.5867,-0.5637,-0.5428,-0.5346,-0.541,-0.518,-0.4906,-0.4554,-0.4072,-0.3674,-0.3345,-0.3293,-0.3199,-0.3092,-0.2941,-0.2829,-0.2763,-0.2331,-0.1941,-0.1669,-0.1527,-0.1406,-0.1315,-0.1109,-0.0839,-0.0555,0.0256,0.0771,0.1238,0.2296,0.2763,0.2934,0.3274,0.3466,0.3574,0.3688,0.3799,0.4021,0.4512,0.4889,0.5269,0.6421,0.6756,0.6972,0.7723,0.8256,0.8626,0.8752,0.8464,0.807,0.7915,0.7596,0.7335,0.7214,0.7188,0.7154,0.7041,0.6979,0.6979,0.6979,0.7231,0.7558,0.8021,0.8439,0.8895,0.9386,0.9603,0.9603,0.9328,0.8838,0.8541,0.8612,0.8582,0.8833,0.9512,1.0069,1.0689,1.1412,1.2063,1.2657,1.3163,1.4417,1.5293,1.5647,1.6524,1.7447,1.8433,1.9546,2.0685,2.1797,2.1869,2.2186,2.2685,2.2685,2.2825,2.3102,2.3389,2.3576,2.371,2.3981,2.4192,2.4357,2.4446,2.45,2.45,-1.0214,-1.0514,-1.0762,-1.0762,-1.0847,-1.0806,-1.0506,-0.9441,-0.8581,-0.8303,-0.7104,-0.6239,-0.6255,-0.6097,-0.5789,-0.5214,-0.5246,-0.5039,-0.4289,-0.4189,-0.3972,-0.3636,-0.3658,-0.3569,-0.3256,-0.3265,-0.3218,-0.3013,-0.2768,-0.2467,-0.2114,-0.212,-0.1972,-0.1724,-0.1728,-0.1322,-0.0611,-0.0158,0.0587,0.1604,0.2044,0.2408,0.2689,0.2965,0.3074,0.313,0.3471,0.3635,0.3796,0.4021,0.4567,0.5273,0.6041,0.6701,0.73,0.8156,0.8474,0.8633,0.8745,0.8591,0.8303,0.8029,0.7895,0.7856,0.7569,0.7527,0.7432,0.7108,0.7034,0.6979,0.6979,0.6979,0.7147,0.7682,0.8062,0.848,0.8975,0.9435,0.9437,0.8673,0.8581,0.8163,0.7159,0.8859,0.9959,0.9758,1.1616,1.2765,1.2751,1.2418,1.2812,1.4111,1.463,1.5304,1.6271,1.6938,1.7763,1.8693,1.9983,2.0926,2.1589,2.1589,2.1932,2.247,2.2487,2.2712,2.3095,2.3365,2.3481,2.3549,2.3919,2.4078,2.4135,2.4375,2.4482,2.45,-1.1149,-1.1178,-1.1148,-1.1148,-1.1166,-1.1191,-1.1098,-1.0089,-0.9242,-0.8868,-0.7692,-0.683,-0.6722,-0.6442,-0.6162,-0.5947,-0.5695,-0.5316,-0.4765,-0.4551,-0.4277,-0.3978,-0.385,-0.3752,-0.367,-0.3456,-0.3268,-0.3013,-0.2871,-0.2723,-0.2469,-0.2332,-0.2153,-0.1997,-0.1837,-0.1422,-0.0767,-0.0221,0.0388,0.1108,0.1898,0.224,0.2352,0.2689,0.291,0.313,0.3188,0.3413,0.3802,0.4677,0.5281,0.5823,0.6864,0.7408,0.7788,0.8162,0.8275,0.8321,0.858,0.8416,0.8187,0.8283,0.8096,0.7862,0.7836,0.7635,0.7493,0.7375,0.7181,0.6979,0.6979,0.6979,0.7273,0.8021,0.8234,0.861,0.9435,0.9643,0.9649,0.9456,0.9437,0.9498,0.9685,1.005,1.0296,1.0298,1.1486,1.1992,1.1548,1.267,1.3791,1.4843,1.5225,1.5896,1.6953,1.7635,1.8523,1.9693,2.0299,2.0861,2.1388,2.1511,2.1827,2.2198,2.2415,2.2632,2.2893,2.3102,2.3319,2.3526,2.3598,2.3837,2.4116,2.4173,2.4321,2.45,-1.1528,-1.1427,-1.1368,-1.1318,-1.1326,-1.1326,-1.1326,-1.033,-0.9502,-0.9293,-0.8145,-0.7359,-0.7292,-0.6943,-0.6685,-0.6534,-0.6,-0.5471,-0.5042,-0.4877,-0.4647,-0.4386,-0.4289,-0.4121,-0.398,-0.3862,-0.3597,-0.3279,-0.3176,-0.3018,-0.2805,-0.2429,-0.2342,-0.2454,-0.2054,-0.1511,-0.0784,-0.0448,0.0224,0.1122,0.1682,0.1906,0.1962,0.2354,0.2575,0.2685,0.2854,0.3135,0.3522,0.4405,0.5117,0.5769,0.6756,0.7354,0.7735,0.8008,0.8115,0.8221,0.8474,0.8358,0.8294,0.8454,0.8293,0.8136,0.8136,0.8003,0.7849,0.7567,0.7335,0.7188,0.7047,0.6979,0.7231,0.7897,0.8193,0.8561,0.9266,0.9554,0.9683,0.9683,0.9793,0.9973,1.0253,1.0673,1.0959,1.0908,1.1828,1.2319,1.2215,1.3131,1.4023,1.4865,1.5434,1.6306,1.7447,1.8216,1.8987,1.9762,1.998,2.0413,2.0974,2.1166,2.157,2.2027,2.2243,2.2453,2.2659,2.279,2.2952,2.3182,2.3283,2.3518,2.3858,2.402,2.4192,2.4339,-1.1578,-1.1519,-1.1477,-1.1326,-1.1326,-1.1326,-1.1326,-1.0387,-0.9666,-0.9614,-0.856,-0.7777,-0.7723,-0.7467,-0.7203,-0.6933,-0.6337,-0.5736,-0.5238,-0.5179,-0.5062,-0.476,-0.4725,-0.4573,-0.4284,-0.4242,-0.4027,-0.3638,-0.3524,-0.3355,-0.313,-0.2519,-0.2464,-0.2916,-0.2183,-0.1454,-0.0726,-0.0615,0.0168,0.129,0.1459,0.1572,0.1628,0.1962,0.2128,0.224,0.2521,0.28,0.313,0.3744,0.4515,0.5386,0.6263,0.6918,0.7521,0.7735,0.7955,0.8109,0.8321,0.8374,0.8421,0.8521,0.8507,0.8386,0.8437,0.8404,0.8223,0.784,0.7664,0.7521,0.7348,0.7258,0.7335,0.774,0.8193,0.8602,0.8987,0.9444,0.9787,0.9762,0.9971,1.0089,1.0076,1.1009,1.1584,1.1526,1.2365,1.3095,1.3481,1.3688,1.41,1.4751,1.5565,1.6619,1.7947,1.8714,1.9236,1.9479,1.9479,1.9909,2.0597,2.0795,2.1245,2.1869,2.201,2.2226,2.2443,2.247,2.2605,2.2816,2.2982,2.3242,2.3531,2.3878,2.4058,2.4135,-1.1728,-1.1578,-1.1477,-1.1326,-1.1326,-1.1326,-1.1326,-1.0702,-1.0087,-0.9666,-0.8935,-0.8256,-0.7777,-0.7568,-0.7306,-0.6933,-0.6771,-0.6445,-0.5736,-0.5572,-0.5391,-0.5035,-0.4944,-0.478,-0.4601,-0.4346,-0.4079,-0.3744,-0.3744,-0.3633,-0.3357,-0.2745,-0.2687,-0.3021,-0.1788,-0.1174,-0.1006,-0.028,0.0449,0.1122,0.129,0.1459,0.1628,0.1684,0.1906,0.2184,0.224,0.2464,0.2856,0.3574,0.4343,0.5101,0.5832,0.6598,0.7192,0.7467,0.7574,0.7681,0.8115,0.8321,0.8421,0.8421,0.8389,0.841,0.8567,0.837,0.8317,0.8812,0.8421,0.8165,0.8594,0.8346,0.8132,0.8262,0.8896,0.9338,0.9129,0.9747,1.0173,1.0048,1.0079,1.0283,1.0764,1.1313,1.1693,1.1962,1.284,1.3409,1.3493,1.4321,1.5008,1.5442,1.6022,1.7068,1.8627,1.893,1.9236,1.9479,1.9479,1.9909,2.0597,2.0795,2.1166,2.1664,2.1969,2.2124,2.2198,2.2415,2.2605,2.2816,2.2825,2.3109,2.3504,2.3576,2.3816,2.4116,-1.1828,-1.1719,-1.161,-1.1427,-1.1326,-1.1326,-1.1326,-1.0812,-1.019,-0.9666,-0.9093,-0.8468,-0.7889,-0.7676,-0.7515,-0.7252,-0.7149,-0.6879,-0.6332,-0.5896,-0.5572,-0.5242,-0.5069,-0.4904,-0.4691,-0.4467,-0.4245,-0.4024,-0.3852,-0.3741,-0.3577,-0.2573,-0.2517,-0.3188,-0.1623,-0.0951,-0.1062,-0.0336,0.0393,0.101,0.1122,0.1234,0.1347,0.1515,0.174,0.1906,0.1962,0.2186,0.2521,0.313,0.3901,0.478,0.5496,0.6263,0.6923,0.7192,0.7467,0.7735,0.7955,0.8162,0.8268,0.8268,0.8321,0.8421,0.8573,0.8469,0.8537,0.9076,0.8952,0.8827,0.9236,0.9157,0.9074,0.9325,0.9675,0.9891,0.9744,1.0072,1.0206,0.9909,1.0166,1.0634,1.1259,1.191,1.2529,1.3035,1.3617,1.4087,1.4309,1.4819,1.529,1.5721,1.6727,1.7779,1.8784,1.8988,1.9176,1.9273,1.942,1.9782,2.0289,2.0597,2.1007,2.145,2.1708,2.1869,2.194,2.2089,2.2243,2.2446,2.2588,2.2825,2.3133,2.3412,2.3685,2.3941,-1.1927,-1.1868,-1.176,-1.1528,-1.1418,-1.1326,-1.1326,-1.0913,-1.0344,-0.9666,-0.9242,-0.8725,-0.7955,-0.7788,-0.7676,-0.7515,-0.7419,-0.7144,-0.6701,-0.6277,-0.5845,-0.5407,-0.5238,-0.5014,-0.4798,-0.4629,-0.4467,-0.4249,-0.4021,-0.3796,-0.363,-0.2402,-0.2293,-0.3021,-0.1288,-0.0672,-0.0951,-0.0336,0.028,0.0842,0.0954,0.1066,0.1122,0.1403,0.1572,0.1628,0.1741,0.1908,0.2184,0.274,0.3572,0.4512,0.5218,0.5987,0.6652,0.6923,0.7413,0.7848,0.7901,0.8008,0.8115,0.8115,0.8268,0.8374,0.8527,0.8573,0.877,0.9342,0.9388,0.9496,0.9938,0.996,0.9959,1.0188,1.0372,1.0454,1.0334,1.0478,1.045,1.0127,1.0466,1.1065,1.1767,1.2465,1.3151,1.3853,1.4237,1.461,1.4989,1.5193,1.5575,1.6044,1.7242,1.8147,1.8721,1.8988,1.9101,1.9101,1.9384,1.969,2.0005,2.041,2.0844,2.1262,2.1497,2.1664,2.1768,2.1797,2.1911,2.2124,2.2343,2.2579,2.2825,2.3206,2.3508,2.3753,-1.1927,-1.1877,-1.1819,-1.1528,-1.1469,-1.1427,-1.1326,-1.1276,-1.0854,-0.9769,-0.9562,-0.9099,-0.8002,-0.7901,-0.7794,-0.7521,-0.7467,-0.7246,-0.6756,-0.6647,-0.6381,-0.5795,-0.5348,-0.5069,-0.5073,-0.4798,-0.4632,-0.4463,-0.4245,-0.3802,-0.313,-0.235,-0.2015,-0.2015,-0.056,-0.0168,-0.0673,0.0056,0.0505,0.0729,0.0729,0.0898,0.1122,0.129,0.1459,0.1628,0.1741,0.1797,0.1964,0.2796,0.3514,0.4174,0.5058,0.5723,0.6282,0.6652,0.7085,0.7574,0.7848,0.7901,0.7901,0.7901,0.8062,0.8275,0.8374,0.8521,0.8928,1.0077,1.0029,1.01,1.1152,1.1077,1.0693,1.0328,1.0903,1.1168,1.038,1.0921,1.1334,1.1183,1.1213,1.1614,1.2531,1.2657,1.3043,1.3836,1.4364,1.4784,1.5001,1.5468,1.6095,1.6791,1.7284,1.7854,1.8517,1.8912,1.9101,1.9101,1.9384,1.969,2.0005,2.041,2.0811,2.1119,2.1466,2.162,2.1603,2.1738,2.1911,2.2096,2.2124,2.2392,2.2816,2.2842,2.3151,2.3553,-1.2026,-1.2026,-1.1977,-1.1778,-1.1619,-1.1477,-1.1418,-1.1368,-1.0905,-0.9769,-0.9614,-0.9145,-0.8008,-0.7901,-0.7842,-0.7622,-0.7568,-0.7359,-0.709,-0.6977,-0.6598,-0.585,-0.5626,-0.5407,-0.5124,-0.5014,-0.4853,-0.4632,-0.4467,-0.4021,-0.3244,-0.2406,-0.2183,-0.246,-0.0728,-0.0448,-0.1175,-0.0168,0.0449,0.0673,0.0673,0.0785,0.101,0.1122,0.129,0.1459,0.1628,0.1741,0.1853,0.2188,0.3019,0.3959,0.434,0.5226,0.6168,0.6598,0.6864,0.7085,0.7521,0.7788,0.7901,0.7901,0.7955,0.8055,0.8315,0.8685,0.9249,1.021,1.058,1.0946,1.1749,1.1766,1.161,1.1463,1.1654,1.1663,1.1104,1.1297,1.138,1.109,1.1431,1.1923,1.2593,1.3151,1.3803,1.4598,1.4981,1.5262,1.5492,1.5684,1.6144,1.6876,1.7186,1.772,1.8478,1.876,1.8988,1.9101,1.9581,1.9884,2.0005,2.0494,2.0844,2.1103,2.123,2.1419,2.162,2.1664,2.1768,2.1928,2.2039,2.2309,2.2632,2.2764,2.3102,2.3549,-1.2076,-1.2076,-1.2076,-1.1927,-1.1728,-1.1628,-1.1519,-1.1427,-1.0956,-0.9769,-0.9614,-0.9145,-0.8008,-0.7901,-0.7842,-0.7723,-0.7622,-0.7521,-0.7365,-0.7252,-0.682,-0.595,-0.585,-0.5626,-0.5183,-0.5128,-0.5014,-0.4743,-0.4629,-0.4187,-0.3466,-0.2738,-0.2514,-0.2681,-0.1063,-0.0727,-0.1398,-0.0336,0.028,0.0561,0.0561,0.0673,0.0842,0.101,0.1122,0.1234,0.1459,0.1628,0.1797,0.213,0.2963,0.3907,0.4343,0.5171,0.6109,0.6539,0.6701,0.681,0.7359,0.7628,0.7794,0.7901,0.7955,0.8115,0.8421,0.8844,0.942,1.0379,1.0905,1.1377,1.1977,1.2076,1.2076,1.2076,1.2076,1.1984,1.1709,1.1673,1.161,1.1325,1.1691,1.2161,1.2745,1.3363,1.4092,1.4903,1.5244,1.5513,1.5792,1.5792,1.6144,1.6876,1.7044,1.7529,1.84,1.8683,1.8898,1.9101,1.9581,1.9884,2.0005,2.046,2.0794,2.099,2.1071,2.1262,2.1511,2.1573,2.1694,2.1811,2.194,2.2158,2.2398,2.2632,2.2952,2.3324,-1.2076,-1.2076,-1.2076,-1.1927,-1.1877,-1.1828,-1.1528,-1.1528,-1.1057,-0.9769,-0.9614,-0.9145,-0.8008,-0.7901,-0.7842,-0.7723,-0.7723,-0.7616,-0.7521,-0.7365,-0.6982,-0.6263,-0.595,-0.5631,-0.5301,-0.5183,-0.5014,-0.4897,-0.4743,-0.4298,-0.3569,-0.34,-0.3012,-0.2456,-0.1509,-0.1118,-0.1062,-0.0336,0.0056,0.0224,0.0224,0.0393,0.0729,0.0842,0.101,0.1122,0.1234,0.1403,0.1794,0.2903,0.3514,0.4018,0.5234,0.5782,0.6109,0.6539,0.6701,0.681,0.7354,0.7521,0.7574,0.7848,0.8062,0.8321,0.8725,0.889,0.9368,1.0667,1.0922,1.1175,1.1977,1.2076,1.2076,1.2076,1.2076,1.2076,1.2076,1.2076,1.2076,1.2076,1.2076,1.2412,1.3122,1.3218,1.36,1.4605,1.4971,1.5289,1.5792,1.5792,1.6144,1.6876,1.6876,1.7337,1.8202,1.8606,1.8898,1.9101,1.9384,1.969,2.0005,2.0289,2.0545,2.0794,2.099,2.1151,2.1309,2.1511,2.1664,2.1797,2.1797,2.1911,2.2124,2.2398,2.2649,2.2868,-1.2076,-1.2076,-1.2076,-1.2026,-1.1977,-1.1828,-1.1678,-1.1578,-1.1167,-1.0293,-0.9821,-0.9302,-0.8626,-0.8162,-0.7901,-0.7842,-0.7729,-0.7622,-0.7365,-0.7317,-0.709,-0.6593,-0.649,-0.6168,-0.5686,-0.5626,-0.5403,-0.5014,-0.4901,-0.446,-0.3738,-0.3514,-0.3292,-0.3074,-0.1788,-0.1398,-0.1677,-0.0616,0.0,0.0224,0.0224,0.0393,0.0729,0.0729,0.0898,0.1122,0.1122,0.1234,0.1514,0.2458,0.3067,0.3677,0.512,0.5782,0.6,0.6164,0.6277,0.644,0.6815,0.6923,0.7085,0.7735,0.7955,0.8062,0.8421,0.9145,0.9865,1.0431,1.1209,1.1828,1.2076,1.2076,1.2076,1.2076,1.2076,1.2076,1.2076,1.2076,1.2076,1.2076,1.2332,1.2715,1.317,1.3467,1.3988,1.4926,1.5334,1.5659,1.5792,1.5792,1.6144,1.6876,1.6876,1.7337,1.8202,1.8464,1.8697,1.8898,1.9295,1.969,2.0005,2.0289,2.0545,2.0794,2.086,2.099,2.1151,2.1325,2.1511,2.1664,2.1768,2.1911,2.2124,2.2398,2.2649,2.2868,-1.2076,-1.2076,-1.2076,-1.2076,-1.2026,-1.1927,-1.1778,-1.1719,-1.1368,-1.06,-1.0028,-0.9562,-0.9145,-0.8672,-0.8309,-0.8262,-0.7943,-0.7676,-0.7467,-0.7419,-0.7252,-0.6928,-0.6869,-0.6544,-0.5795,-0.5795,-0.5572,-0.5124,-0.5014,-0.4736,-0.4236,-0.4015,-0.3907,-0.3855,-0.2623,-0.2122,-0.2124,-0.1063,-0.0392,0.0056,0.0056,0.0224,0.0505,0.0505,0.0673,0.0954,0.0954,0.1066,0.1346,0.2125,0.3014,0.4012,0.5234,0.5727,0.5837,0.5946,0.6059,0.6223,0.6598,0.6701,0.6864,0.7413,0.7681,0.7895,0.8368,0.9197,0.9969,1.0415,1.1242,1.1977,1.2076,1.2076,1.2076,1.2076,1.2076,1.2076,1.2076,1.2076,1.2076,1.2076,1.248,1.2813,1.317,1.3563,1.414,1.5017,1.5379,1.5614,1.5792,1.5792,1.6044,1.6637,1.665,1.706,1.7868,1.8055,1.8411,1.8784,1.9161,1.9493,1.9797,2.0115,2.0392,2.0662,2.0761,2.0893,2.1087,2.1246,2.1419,2.1603,2.1738,2.1869,2.2027,2.2243,2.248,2.2738,-1.2076,-1.2076,-1.2076,-1.2076,-1.2076,-1.2076,-1.1927,-1.1877,-1.1569,-1.0812,-1.0182,-0.9769,-0.9666,-0.9295,-0.8981,-0.8876,-0.8362,-0.7895,-0.7723,-0.7568,-0.7467,-0.7317,-0.7198,-0.6712,-0.5905,-0.585,-0.5626,-0.5183,-0.5128,-0.5014,-0.4901,-0.4794,-0.4688,-0.4632,-0.3735,-0.3012,-0.2456,-0.1676,-0.0896,-0.0224,-0.0224,-0.0056,0.0224,0.0224,0.0393,0.0673,0.0673,0.0842,0.1178,0.1961,0.3239,0.4574,0.5289,0.5567,0.5677,0.5896,0.6,0.6109,0.6544,0.6652,0.6707,0.6977,0.7246,0.7622,0.8362,0.904,0.9762,1.0415,1.1141,1.1719,1.2026,1.2076,1.2076,1.2076,1.2076,1.2076,1.2076,1.2076,1.2076,1.2076,1.2431,1.2813,1.317,1.361,1.4233,1.5062,1.5108,1.5334,1.5792,1.5792,1.5957,1.6312,1.6312,1.6655,1.7352,1.7598,1.8068,1.8784,1.8988,1.9236,1.953,1.9797,2.0115,2.041,2.0662,2.0893,2.1087,2.1246,2.1419,2.1589,2.1738,2.1797,2.1811,2.2027,2.2271,2.2497,-1.2076,-1.2076,-1.2076,-1.2076,-1.2076,-1.2076,-1.1927,-1.1819,-1.1628,-1.1318,-1.0336,-0.9769,-1.019,-0.9503,-0.9131,-0.9555,-0.9086,-0.8461,-0.7723,-0.767,-0.7574,-0.7311,-0.7257,-0.7036,-0.649,-0.6268,-0.5946,-0.5626,-0.5293,-0.5069,-0.5069,-0.4901,-0.4794,-0.4688,-0.4018,-0.3236,-0.2456,-0.1788,-0.1008,-0.0224,-0.0224,-0.0056,0.0224,0.0224,0.0336,0.0505,0.0617,0.0729,0.0953,0.1903,0.3128,0.4346,0.4625,0.5124,0.5622,0.5791,0.5896,0.6055,0.6223,0.6282,0.6391,0.6707,0.6815,0.7025,0.7723,0.8508,0.934,1.0115,1.0771,1.1334,1.1968,1.2076,1.2076,1.2076,1.2076,1.2076,1.2076,1.2076,1.2076,1.2076,1.2175,1.251,1.3122,1.3988,1.4651,1.5062,1.5289,1.5513,1.5792,1.5792,1.6001,1.6423,1.6367,1.657,1.7076,1.7666,1.8161,1.8581,1.876,1.9087,1.9479,1.9566,1.9889,2.041,2.0478,2.0613,2.0893,2.1183,2.1325,2.1388,2.1678,2.1797,2.1811,2.2027,2.2124,2.2254,-1.2076,-1.2076,-1.2076,-1.2076,-1.2076,-1.2076,-1.2026,-1.1927,-1.1828,-1.1628,-1.0744,-1.0344,-1.0761,-1.0182,-0.9814,-0.9865,-0.934,-0.8718,-0.7996,-0.7777,-0.7616,-0.7521,-0.7365,-0.7203,-0.6982,-0.6647,-0.6218,-0.5795,-0.5572,-0.5352,-0.5183,-0.5069,-0.4959,-0.4853,-0.4515,-0.3735,-0.2681,-0.2347,-0.1511,-0.0449,-0.0336,-0.0168,0.0,0.0056,0.0168,0.0336,0.0449,0.0617,0.0953,0.1792,0.2681,0.3511,0.4181,0.468,0.5179,0.5681,0.585,0.5955,0.6123,0.6178,0.6228,0.644,0.6598,0.6864,0.7461,0.819,0.9013,0.9909,1.0568,1.1225,1.1968,1.2076,1.2076,1.2076,1.2076,1.2076,1.2076,1.2076,1.2175,1.2382,1.251,1.2929,1.3695,1.4233,1.4708,1.5062,1.5244,1.5468,1.5792,1.5792,1.5957,1.625,1.6194,1.6367,1.6837,1.7284,1.7747,1.8175,1.8707,1.9049,1.931,1.9617,1.9904,2.022,2.0478,2.0679,2.0827,2.1151,2.1309,2.134,2.1678,2.1797,2.1811,2.1911,2.2084,2.2354,-1.2076,-1.2076,-1.2076,-1.2076,-1.2076,-1.2076,-1.2076,-1.2076,-1.1977,-1.1778,-1.1167,-1.0905,-1.1267,-1.1015,-1.0643,-1.0218,-0.9547,-0.8935,-0.8368,-0.7943,-0.7723,-0.7723,-0.7507,-0.7372,-0.7378,-0.6986,-0.6529,-0.5955,-0.59,-0.5681,-0.5407,-0.5293,-0.5183,-0.5069,-0.4956,-0.4236,-0.3072,-0.2961,-0.2125,-0.0842,-0.0564,-0.0396,-0.0226,-0.0114,0.0,0.0114,0.0228,0.0512,0.1018,0.1628,0.2125,0.2623,0.3677,0.4236,0.4625,0.5517,0.5795,0.585,0.6123,0.6178,0.6178,0.6178,0.6386,0.6761,0.7246,0.7871,0.8646,0.9651,1.0364,1.1023,1.1868,1.2026,1.2026,1.2076,1.2076,1.2076,1.2076,1.2076,1.2224,1.2578,1.2939,1.3505,1.4233,1.4384,1.4605,1.5062,1.5108,1.5289,1.5792,1.5792,1.5881,1.5988,1.5988,1.6207,1.6595,1.6879,1.7242,1.7787,1.863,1.9026,1.9064,1.9581,1.9884,1.9955,2.046,2.0695,2.0761,2.1151,2.1309,2.134,2.1678,2.1797,2.1781,2.184,2.2147,2.2605,-1.2076,-1.2076,-1.2076,-1.2076,-1.2076,-1.2076,-1.2076,-1.1977,-1.1927,-1.1877,-1.1167,-1.0854,-1.1418,-1.1528,-1.136,-1.0922,-1.0261,-0.9599,-0.8928,-0.8256,-0.7842,-0.7723,-0.7775,-0.779,-0.7627,-0.7402,-0.7072,-0.6598,-0.6268,-0.6,-0.574,-0.5736,-0.5513,-0.5124,-0.5069,-0.457,-0.363,-0.3128,-0.2347,-0.1402,-0.0868,-0.0585,-0.047,-0.0302,-0.0244,-0.0183,0.0305,0.0659,0.0932,0.1132,0.1624,0.2181,0.3019,0.3683,0.4398,0.5344,0.5736,0.585,0.6123,0.6178,0.6178,0.6178,0.6232,0.6391,0.6707,0.7241,0.7931,0.9072,0.9547,1.0174,1.1519,1.1769,1.1828,1.2076,1.2076,1.2076,1.2076,1.2076,1.2126,1.2175,1.2793,1.3362,1.3858,1.4197,1.4605,1.5062,1.5108,1.5289,1.5792,1.5792,1.5881,1.5988,1.5988,1.6088,1.6275,1.6752,1.7242,1.772,1.8305,1.8669,1.886,1.9101,1.9362,1.9603,1.994,2.022,2.0512,2.1087,2.1309,2.134,2.1678,2.1797,2.1811,2.1998,2.2364,2.2764,-1.2076,-1.2076,-1.2076,-1.2076,-1.2076,-1.2076,-1.2076,-1.2026,-1.1977,-1.1927,-1.1519,-1.1267,-1.1477,-1.1628,-1.1519,-1.1099,-1.0976,-1.0453,-0.9395,-0.9178,-0.8826,-0.8271,-0.8218,-0.8167,-0.8057,-0.7877,-0.7649,-0.7312,-0.6844,-0.645,-0.6165,-0.6165,-0.5934,-0.5529,-0.5425,-0.4973,-0.4348,-0.3812,-0.3014,-0.195,-0.1501,-0.1028,-0.0666,-0.0368,-0.0309,-0.0246,0.0242,0.0596,0.0821,0.0965,0.1233,0.1624,0.2294,0.3016,0.3793,0.4728,0.5234,0.5626,0.6009,0.6059,0.6119,0.6178,0.6178,0.6228,0.6391,0.6761,0.7396,0.8541,0.9235,0.9969,1.1091,1.151,1.1778,1.2076,1.2076,1.2076,1.2076,1.2076,1.2175,1.2431,1.3094,1.3621,1.3773,1.414,1.4605,1.5062,1.5108,1.5289,1.5792,1.5792,1.5881,1.61,1.6088,1.6188,1.6362,1.6735,1.706,1.7282,1.7975,1.8567,1.8988,1.9199,1.9384,1.953,1.9848,2.015,2.0444,2.0909,2.1166,2.134,2.1678,2.1797,2.1811,2.2027,2.2237,2.2463]},{"header":{"parameterUnit":"m.s-1","parameterCategory":1,"la1":30.6,"la2":28.766,"lo1":-90.7593,"lo2":-88.6598,"dy":0.0162,"dx":0.0183,"nx":116,"ny":114,"refTime":"2024-05-16T06:00:00:Z","depth":0,"parameterNumber":3,"parameterNumberName":"V-component_of_WINDS"},"data":[0.0,0.0,0.0,0.0,0.0,0.0,0.0,0.0,0.0,0.0,0.0,0.0,0.0,0.0,0.0,0.0,0.0,0.0,0.0,0.0,0.0,0.0,0.0,0.0,0.0,0.0,0.0,0.0,0.0,0.0,0.0,0.0,0.0,0.0,0.0,0.0,0.0,0.0,0.0,0.0,0.0,0.0,0.0,0.0,0.0,0.0,0.0,0.0,0.0,0.0,0.0,0.0,0.0,0.0,0.0,0.0,0.0,0.0,0.0,0.0,0.0,0.0,0.0,0.0,0.0,0.0,0.0,0.0,0.0,0.0,0.0,0.0,0.0,0.0,0.0,0.0,0.0,0.0,0.0,0.0,0.0,0.0,0.0,0.0,0.0,0.0,0.0,0.0,0.0,0.0,0.0,0.0,0.0,0.0,0.0,0.0,0.0,0.0,0.0,0.0,0.0,0.0,0.0,0.0,0.0,0.0,0.0,0.0,0.0,0.0,0.0,0.0,0.0,0.0,0.0,0.0,0.0,0.0,0.0,0.0,0.0,0.0,0.0,0.0,0.0,0.0,0.0,0.0,0.0,0.0,0.0,0.0,0.0,0.0,0.0,0.0,0.0,0.0,0.0,0.0,0.0,0.0,0.0,0.0,0.0,0.0,0.0,0.0,0.0,0.0,0.0,0.0,0.0,0.0,0.0,0.0,0.0,0.0,0.0,0.0,0.0,0.0,0.0,0.0,0.0,0.0,0.0,0.0,0.0,0.0,0.0,0.0,0.0,0.0,0.0,0.0,0.0,0.0,0.0,0.0,0.0,0.0,0.0,0.0,0.0,0.0,0.0,0.0,0.0,0.0,0.0,0.0,0.0,0.0,0.0,0.0,0.0,0.0,0.0,0.0,0.0,0.0,0.0,0.0,0.0,0.0,0.0,0.0,0.0,0.0,0.0,0.0,0.0,0.0,0.0,0.0,0.0,0.0,0.0,0.0,0.0,0.0,0.0,0.0,0.0,0.0,0.0,0.0,0.0,0.0,0.0,0.0,0.0,0.0,0.0,0.0,0.0,0.0,0.0,0.0,0.0,0.0,0.0,0.0,0.0,0.0,0.0,0.0,0.0,0.0,0.0,0.0,0.0,0.0,0.0,0.0,0.0,0.0,0.0,0.0,0.0,0.0,0.0,0.0,0.0,0.0,0.0,0.0,0.0,0.0,0.0,0.0,0.0,0.0,0.0,0.0,0.0,0.0,0.0,0.0,0.0,0.0,0.0,0.0,0.0,0.0,0.0,0.0,0.0,0.0,0.0,0.0,0.0,0.0,0.0,0.0,0.0,0.0,0.0,0.0,0.0,0.0,0.0,0.0,0.0,0.0,0.0,0.0,0.0,0.0,0.0,0.0,0.0,0.0,0.0,0.0,0.0,0.0,0.0,0.0,0.0,0.0,0.0,0.0,0.0,0.0,0.0,0.0,0.0,0.0,0.0,0.0,0.0,0.0,0.0,0.0,0.0,0.0,0.0,0.0,0.0,0.0,0.0,0.0,0.0,0.0,0.0,0.0,0.0,0.0,0.0,0.0,0.0,0.0,0.0,0.0,0.0,0.0,0.0,0.0,0.0,0.0,0.0,0.0,0.0,0.0,0.0,0.0,0.0,0.0,0.0,0.0,0.0,0.0,0.0,0.0,0.0,0.0,0.0,0.0,0.0,0.0,0.0,0.0,0.0,0.0,0.0,0.0,0.0,0.0,0.0,0.0,0.0,0.0,0.0,0.0,0.0,0.0,0.0,0.0,0.0,0.0,0.0,0.0,0.0,0.0,0.0,0.0,0.0,0.0,0.0,0.0,0.0,0.0,0.0,0.0,0.0,0.0,0.0,0.0,0.0,0.0,0.0,0.0,0.0,0.0,0.0,0.0,0.0,0.0,0.0,0.0,0.0,0.0,0.0,0.0,0.0,0.0,0.0,0.0,0.0,0.0,0.0,0.0,0.0,0.0,0.0,0.0,0.0,0.0,0.0,0.0,0.0,0.0,0.0,0.0,0.0,0.0,0.0,0.0,0.0,0.0,0.0,0.0,0.0,0.0,0.0,0.0,0.0,0.0,0.0,0.0,0.0,0.0,0.0,0.0,0.0,0.0,0.0,0.0,0.0,0.0,0.0,0.0,0.0,0.0,0.0,0.0,0.0,0.0,0.0,0.0,0.0,0.0,0.0,0.0,0.0,0.0,0.0,0.0,0.0,0.0,0.0,0.0,0.0,0.0,0.0,0.0,0.0,0.0,0.0,0.0,0.0,0.0,0.0,0.0,0.0,0.0,0.0,0.0,0.0,0.0,0.0,0.0,0.0,0.0,0.0,0.0,0.0,0.0,0.0,0.0,0.0,0.0,0.0,0.0,0.0,0.0,0.0,0.0,0.0,0.0,0.0,0.0,0.0,0.0,0.0,0.0,0.0,0.0,0.0,0.0,0.0,0.0,0.0,0.0,0.0,0.0,0.0,0.0,0.0,0.0,0.0,0.0,0.0,0.0,0.0,0.0,0.0,0.0,0.0,0.0,0.0,0.0,0.0,0.0,0.0,0.0,0.0,0.0,0.0,0.0,0.0,0.0,0.0,0.0,0.0,0.0,0.0,0.0,0.0,0.0,0.0,0.0,0.0,0.0,0.0,0.0,0.0,0.0,0.0,0.0,0.0,0.0,0.0,0.0,0.0,0.0,0.0,0.0,0.0,0.0,0.0,0.0,0.0,0.0,0.0,0.0,0.0,0.0,0.0,0.0,0.0,0.0,0.0,0.0,0.0,0.0,0.0,0.0,0.0,0.0,0.0,0.0,0.0,0.0,0.0,0.0,0.0,0.0,0.0,0.0,0.0,0.0,0.0,0.0,0.0,0.0,0.0,0.0,0.0,0.0,0.0,0.0,0.0,0.0,0.0,0.0,0.0,0.0,0.0,0.0,0.0,0.0,0.0,0.0,0.0,0.0,0.0,0.0,0.0,0.0,0.0,0.0,0.0,0.0,0.0,0.0,0.0,0.0,0.0,0.0,0.0,0.0,0.0,0.0,0.0,0.0,0.0,0.0,0.0,0.0,0.0,0.0,0.0,0.0,0.0,0.0,0.0,0.0,0.0,0.0,0.0,0.0,0.0,0.0,0.0,0.0,0.0,0.0,0.0,0.0,0.0,0.0,0.0,0.0,0.0,0.0,0.0,0.0,0.0,0.0,0.0,0.0,0.0,0.0,0.0,0.0,0.0,0.0,0.0,0.0,0.0,0.0,0.0,0.0,0.0,0.0,0.0,0.0,0.0,0.0,0.0,0.0,0.0,0.0,0.0,0.0,0.0,0.0,0.0,0.0,0.0,0.0,0.0,0.0,0.0,0.0,0.0,0.0,0.0,0.0,0.0,0.0,0.0,0.0,0.0,0.0,0.0,0.0,0.0,0.0,0.0,0.0,0.0,0.0,0.0,0.0,0.0,0.0,0.0,0.0,0.0,0.0,0.0,0.0,0.0,0.0,0.0,0.0,0.0,0.0,0.0,0.0,0.0,0.0,0.0,0.0,0.0,0.0,0.0,0.0,0.0,0.0,0.0,0.0,0.0,0.0,0.0,0.0,0.0,0.0,0.0,0.0,0.0,0.0,0.0,0.0,0.0,0.0,0.0,0.0,0.0,0.0,0.0,0.0,0.0,0.0,0.0,0.0,0.0,0.0,0.0,0.0,0.0,0.0,0.0,0.0,0.0,0.0,0.0,0.0,0.0,0.0,0.0,0.0,0.0,0.0,0.0,0.0,0.0,0.0,0.0,0.0,0.0,0.0,0.0,0.0,0.0,0.0,0.0,0.0,0.0,0.0,0.0,0.0,0.0,0.0,0.0,0.0,0.0,0.0,0.0,0.0,0.0,0.0,0.0,0.0,0.0,0.0,0.0,0.0,0.0,0.0,0.0,0.0,0.0,0.0,0.0,0.0,0.0,0.0,0.0,0.0,0.0,0.0,0.0,0.0,0.0,0.0,0.0,0.0,0.0,0.0,0.0,0.0,0.0,0.0,0.0,0.0,0.0,0.0,0.0,0.0,0.0,0.0,0.0,0.0,0.0,0.0,0.0,0.0,0.0,0.0,0.0,0.0,0.0,0.0,0.0,0.0,0.0,0.0,0.0,0.0,0.0,0.0,0.0,0.0,0.0,0.0,0.0,0.0,0.0,0.0,0.0,0.0,0.0,0.0,0.0,0.0,0.0,0.0,0.0,0.0,0.0,0.0,0.0,0.0,0.0,0.0,0.0,0.0,0.0,0.0,0.0,0.0,0.0,0.0,0.0,0.0,0.0,0.0,0.0,0.0,0.0,0.0,0.0,0.0,0.0,0.0,0.0,0.0,0.0,0.0,0.0,0.0,0.0,0.0,0.0,0.0,0.0,0.0,0.0,0.0,0.0,0.0,0.0,0.0,0.0,0.0,0.0,0.0,0.0,0.0,0.0,0.0,0.0,0.0,0.0,0.0,0.0,0.0,0.0,0.0,0.0,0.0,0.0,0.0,0.0,0.0,0.0,0.0,0.0,0.0,0.0,0.0,0.0,0.0,0.0,0.0,0.0,0.0,0.0,0.0,0.0,0.0,0.0,0.0,0.0,0.0,0.0,0.0,0.0,0.0,0.0,0.0,0.0,0.0,0.0,0.0,0.0,0.0,0.0,0.0,0.0,0.0,0.0,0.0,0.0,0.0,0.0,0.0,0.0,0.0,0.0,0.0,0.0,0.0,0.0,0.0,0.0,0.0,0.0,0.0,0.0,0.0,0.0,0.0,0.0,0.0,0.0,0.0,0.0,0.0,0.0,0.0,0.0,0.0,0.0,0.0,0.0,0.0,0.0,0.0,0.0,0.0,0.0,0.0,0.0,0.0,0.0,0.0,0.0,0.0,0.0,0.0,0.0,0.0,0.0,0.0,0.0,0.0,0.0,0.0,0.0,0.0,0.0,0.0,0.0,0.0,0.0,0.0,0.0,0.0,0.0,0.0,0.0,0.0,0.0,0.0,0.0,0.0,0.0,0.0,0.0,0.0,0.0,0.0,0.0,0.0,0.0,0.0,0.0,0.0,0.0,0.0,0.0,0.0,0.0,0.0,0.0,0.0,0.0,0.0,0.0,0.0,0.0,0.0,0.0,0.0,0.0,0.0,0.0,0.0,0.0,0.0,0.0,0.0,0.0,0.0,0.0,0.0,0.0,0.0,0.0,0.0,0.0,0.0,0.0,0.0,0.0,0.0,0.0,0.0,0.0,0.0,0.0,0.0,0.0,0.0,0.0,0.0,0.0,0.0,0.0,0.0,0.0,0.0,0.0,0.0,0.0,0.0,0.0,0.0,0.0,0.0,0.0,0.0,0.0,0.0,0.0,0.0,0.0,0.0,0.0,0.0,0.0,0.0,0.0,0.0,0.0,0.0,0.0,0.0,0.0,0.0,0.0,0.0,0.0,0.0,0.0,0.0,0.0,0.0,0.0,0.0,0.0,0.0,0.0,0.0,0.0,0.0,0.0,0.0,0.0,0.0,0.0,0.0,0.0,0.0,0.0,0.0,0.0,0.0,0.0,0.0,0.0,0.0,0.0,0.0,0.0,0.0,0.0,0.0,0.0,0.0,0.0,0.0,0.0,0.0,0.0,0.0,0.0,0.0,0.0,0.0,0.0,0.0,0.0,0.0,0.0,0.0,0.0,0.0,0.0,0.0,0.0,0.0,0.0,0.0,0.0,0.0,0.0,0.0,0.0,0.0,0.0,0.0,0.0,0.0,0.0,0.0,0.0,0.0,0.0,0.0,0.0,0.0,0.0,0.0,0.0,0.0,0.0,0.0,0.0,0.0,0.0,0.0,0.0,0.0,0.0,0.0,0.0,0.0,0.0,0.0,0.0,0.0,0.0,0.0,0.0,0.0,0.0,0.0,0.0,0.0,0.0,0.0,0.0,0.0,0.0,0.0,0.0,0.0,0.0,0.0,0.0,0.0,0.0,0.0,0.0,0.0,0.0,0.0,0.0,0.0,0.0,0.0,0.0,0.0,0.0,0.0,0.0,0.0,0.0,0.0,0.0,0.0,0.0,0.0,0.0,0.0,0.0,0.0,0.0,0.0,0.0,0.0,0.0,0.0,0.9271,0.8848,0.0,0.0,0.0,0.0,0.0,0.0,0.0,0.0,0.0,0.0,0.0,0.0,0.0,0.0,0.0,0.0,0.0,0.0,0.0,0.0,0.0,0.0,0.0,0.6249,0.6054,0.6048,0.503,0.4388,0.4388,0.0,0.0,0.0,0.0,0.0,0.9125,0.95,0.9687,0.9641,0.9611,0.9743,1.0023,0.9966,0.9564,0.8891,0.0,0.0,0.0,0.0,0.0,0.0,0.0,0.0,0.0,0.0,0.0,0.0,0.0,0.0,0.0,0.0,0.0,0.0,0.0,0.0,0.0,0.0,0.0,0.0,0.0,0.0,0.0,0.0,0.0,0.0,0.0,0.0,0.0,0.0,0.0,0.0,0.0,0.0,0.0,0.0,0.0,0.0,0.0,0.0,0.0,0.0,0.0,0.0,0.0,0.0,0.0,0.0,0.0,0.0,0.0,0.0,0.0,0.0,0.0,0.0,0.0,0.0,0.0,0.0,0.0,0.0,0.0,0.0,0.0,0.0,0.9276,0.8926,0.0,0.0,0.0,0.0,0.0,0.0,0.0,0.0,0.0,0.0,0.0,0.0,0.0,0.0,0.0,0.0,0.0,0.0,0.0,0.0,0.0,0.3593,0.5313,0.4559,0.3744,0.3309,0.3244,0.3054,0.2684,0.4795,0.0,0.0,0.0,0.8788,0.7972,0.8751,0.9216,0.9347,0.9814,1.0277,1.0775,1.0821,1.0348,0.9445,0.9321,0.0,0.0,0.0,0.0,0.0,0.0,0.0,0.0,0.0,0.0,0.0,0.0,0.0,0.0,0.0,0.0,0.0,0.0,0.0,0.0,0.0,0.0,0.0,0.0,0.0,0.0,0.0,0.0,0.0,0.0,0.0,0.0,0.0,0.0,0.0,0.0,0.0,0.0,0.0,0.0,0.0,0.0,0.0,0.0,0.0,0.0,0.0,0.0,0.0,0.0,0.0,0.0,0.0,0.0,0.0,0.0,0.0,0.0,0.0,0.0,0.0,0.0,0.0,0.985,0.981,0.9735,0.9787,0.9481,0.8943,0.9473,0.9139,0.8221,0.7968,0.0,0.0,0.0,0.0,0.0,0.0,0.0,0.0,0.0,0.0,0.0,0.0,0.0,0.0,0.0,0.0,0.0,0.0,0.0,0.1071,0.1118,0.3798,0.4711,0.2559,0.2461,0.1717,-0.02,0.2338,0.0,0.0,0.5539,0.6632,0.5825,0.659,0.7324,0.7957,1.0517,1.1818,1.1891,1.1781,1.1571,1.1247,1.112,1.0959,1.0764,0.0,0.0,0.0,0.0,0.0,0.0,0.0,0.0,0.0,0.0,0.0,0.0,0.0,0.0,0.0,0.0,0.0,0.0,0.0,0.0,0.0,0.0,0.0,0.0,0.0,0.0,0.0,0.0,0.0,0.0,0.0,0.0,0.0,0.0,0.0,0.0,0.0,0.0,0.0,0.0,0.0,1.0021,0.9484,0.0,0.0,0.0,0.0,0.0,0.0,0.0,0.0,0.0,0.0,0.0,0.0,0.0,1.0125,1.0587,1.0476,1.0487,1.0651,1.0753,1.0623,1.0284,1.0302,1.0254,1.0152,0.9833,0.0,0.7574,0.7091,0.0,0.0,0.0,0.0,0.0,0.0,0.0,0.0,0.0,0.0,0.0,0.0,0.0,0.0,0.0,0.0,0.0,0.0,0.0,0.0,0.0,0.5858,0.6224,0.3917,0.4219,0.3393,0.0681,0.2847,0.332,0.1263,0.4695,0.5714,0.3706,0.7247,0.9474,1.0175,1.1968,1.2794,1.2717,1.2696,1.283,1.3118,1.2948,1.2251,1.1151,1.0331,0.0,0.0,0.0,0.0,0.0,0.0,0.0,0.0,0.0,0.0,0.0,0.0,0.0,0.0,0.0,0.0,0.0,0.0,0.0,0.0,0.0,0.0,0.0,0.0,0.0,0.0,0.0,0.0,0.0,0.0,0.0,0.0,0.0,0.0,0.0,0.0,0.0,0.0,0.0,0.9735,1.03,0.9493,1.0021,1.0168,0.0,0.0,0.0,0.0,0.0,0.0,0.0,0.0,0.0,1.0728,1.0912,1.0959,1.0873,1.0799,1.0714,1.0564,1.0201,0.995,0.9755,0.932,0.9044,0.8877,0.8649,0.7919,0.6819,0.6735,0.6432,0.5969,0.0,0.0,0.0,0.0,0.5102,0.436,0.0,0.0,0.0,0.0,0.0,0.0,0.0,0.0,0.0,0.0,0.0,0.0,0.6007,0.7318,0.7308,0.5113,0.6229,0.5834,0.2954,0.4577,0.4552,0.2101,0.4572,0.4819,0.2271,0.6317,0.9367,1.123,1.1267,1.1646,1.2341,1.156,1.1877,1.3049,1.1997,1.1686,1.1806,0.9894,0.7975,0.0,0.0,0.0,0.0,0.0,0.0,0.0,0.0,0.0,0.0,0.0,0.0,0.0,0.0,0.0,0.0,0.0,0.0,0.0,0.0,0.0,0.0,0.0,0.0,0.0,0.0,0.0,0.0,0.0,0.0,0.0,0.0,0.0,0.0,0.0,0.0,0.0,0.0,1.0418,1.0624,0.9986,1.047,1.0569,0.0,0.0,0.0,0.0,0.0,0.0,1.1052,1.1428,1.1519,1.1256,1.1686,1.1773,1.1474,1.1105,1.0801,1.0532,0.9678,0.9228,0.9089,0.8486,0.8137,0.7929,0.7837,0.7284,0.651,0.6468,0.5761,0.4718,0.4514,0.4359,0.4291,0.4562,0.4132,0.3355,0.0,0.0,0.0,0.0,0.0,0.0,0.0,0.0,0.0,0.0,0.0,0.4068,0.3876,0.6622,0.7545,0.5198,0.7652,0.8367,0.0,0.0,0.7521,0.6603,0.5008,0.3462,0.2045,0.1559,0.3806,0.8863,0.6622,0.7081,1.0002,0.6932,0.7067,0.9693,0.6304,0.8089,1.3372,0.8798,0.6714,0.6146,0.0,0.0,0.0,0.0,0.0,0.0,0.0,0.0,0.0,0.0,0.0,0.0,0.0,0.0,0.0,0.0,0.0,0.0,0.0,0.0,0.0,0.0,0.0,0.0,0.0,0.0,0.0,0.0,0.0,0.0,0.0,0.0,0.0,0.0,0.0,0.0,0.0,0.0,0.0,1.13,1.1715,0.0,0.0,0.0,0.0,1.184,1.2036,1.2257,1.2569,1.2719,1.262,1.2249,1.2074,1.2229,1.2709,1.137,1.0788,1.0867,0.9733,0.902,0.864,0.86,0.856,0.8551,0.8166,0.7639,0.6989,0.6122,0.5532,0.5119,0.4684,0.425,0.3871,0.352,0.276,0.1841,0.0,0.0,0.0,0.0,0.0,0.9519,0.8142,0.8551,0.8513,0.7065,0.7527,0.7959,0.7898,0.9363,1.0258,0.998,1.1405,1.1408,0.9233,0.7874,0.6117,0.3854,0.276,0.268,0.372,0.3878,0.4768,0.6452,0.559,0.5754,0.6853,0.5561,0.5615,0.6693,0.4901,0.5506,0.7698,0.482,0.2661,0.0963,-0.1247,-0.2015,0.0,0.0,0.0,0.0,0.0,0.0,0.0,0.0,0.0,0.0,0.0,0.0,0.0,0.0,0.0,0.0,0.0,0.0,0.0,0.0,0.0,0.0,0.0,0.0,0.0,0.0,0.0,0.0,0.0,0.0,0.0,0.0,0.0,0.0,0.0,0.0,0.0,1.1909,1.2404,0.0,1.1795,1.1917,1.201,1.1889,1.2086,1.2253,1.2359,1.2744,1.2807,1.2455,1.2532,1.2448,1.2164,1.1389,1.0782,1.0312,0.9187,0.8423,0.799,0.7252,0.6917,0.6917,0.646,0.578,0.4994,0.4441,0.4183,0.4067,0.3097,0.2627,0.2432,0.2087,0.1778,0.1424,0.0,0.0,0.0,0.0,0.9967,0.9876,0.9276,0.9759,0.9982,0.9339,0.9798,1.0318,1.0602,1.1351,1.181,1.1728,1.334,1.2974,0.9657,0.8329,0.6362,0.3406,0.1853,0.1938,0.3787,0.3155,0.314,0.381,0.4153,0.4784,0.565,0.4378,0.4437,0.5432,0.2087,0.1331,0.2409,-0.0208,-0.158,-0.2183,-0.412,-0.4846,-0.4683,0.0,0.0,0.0,0.0,0.0,0.0,0.0,0.0,0.0,0.0,0.0,0.0,0.0,0.0,0.0,0.0,0.0,0.0,0.0,0.0,0.0,0.0,0.0,0.0,0.0,0.0,0.0,0.0,0.0,0.0,0.0,0.0,0.0,0.0,1.2058,1.2656,1.3057,1.3373,1.338,1.29,1.2909,1.2888,1.273,1.2579,1.2496,1.2563,1.2723,1.265,1.2298,1.2387,1.2175,1.1568,1.0912,1.0273,0.9588,0.8277,0.7412,0.7043,0.6039,0.5577,0.5491,0.5183,0.48,0.427,0.3651,0.3442,0.3424,0.2129,0.152,0.1315,0.0985,0.092,0.0899,0.0,0.0,0.0,0.9812,0.9924,0.9446,0.7748,0.9028,0.9542,0.772,0.9061,1.0501,1.1285,1.208,1.1769,0.984,1.2991,1.2836,0.7478,0.8738,0.8461,0.5701,0.2539,0.1209,0.195,-0.1129,-0.1541,0.0973,0.1933,0.3751,0.6236,0.2946,0.3063,0.5628,-0.2344,-0.4272,-0.1788,-0.5677,-0.5476,-0.2816,-0.6179,-0.768,-0.7796,0.0,0.0,0.0,0.0,0.0,0.0,0.0,0.0,0.0,0.0,0.0,0.0,0.0,0.0,0.0,0.0,0.0,0.0,0.0,0.0,0.0,0.0,0.0,0.0,0.0,0.0,0.0,0.0,0.0,0.0,0.0,0.0,0.0,1.3177,1.3209,1.3597,1.4788,1.4674,1.4476,1.4341,1.3855,1.3771,1.4403,1.3519,1.3037,1.3242,1.2753,1.2246,1.1774,1.1616,1.1361,1.1068,0.9954,0.9178,0.8738,0.7113,0.6112,0.5765,0.512,0.4739,0.4574,0.4574,0.4801,0.5038,0.3748,0.3309,0.3265,0.1925,0.1121,0.0674,0.0315,0.0225,0.0135,0.0,0.0,0.942,0.798,0.9061,0.9975,0.9508,0.9859,1.0015,0.9489,0.9878,0.9767,0.8656,0.872,0.8337,0.7003,0.9068,1.0335,1.0067,0.808,0.5029,0.0825,0.1596,0.1077,-0.1101,-0.0062,-0.032,-0.2006,-0.1744,-0.122,-0.0551,-0.191,-0.2081,-0.1226,-0.1092,-0.2214,-0.4139,-0.2544,-0.3166,-0.5418,-0.7675,-0.66,-0.3622,0.0,0.0,0.0,0.0,0.0,0.0,0.0,0.0,0.0,0.0,0.0,0.0,0.0,0.0,0.0,0.0,0.0,0.0,0.0,0.0,0.0,0.0,0.0,0.0,0.0,0.0,0.0,0.0,0.0,0.0,0.0,1.1982,1.2872,1.3107,1.3713,1.4441,1.5296,1.5133,1.4949,1.4957,1.4296,1.3734,1.3428,1.2521,1.2013,1.2057,1.156,1.1201,1.1089,1.0474,1.0128,0.9992,0.9178,0.8513,0.8064,0.712,0.6283,0.5572,0.5135,0.4744,0.436,0.4108,0.3884,0.3568,0.2322,0.1611,0.13,0.0988,0.0809,0.0674,0.0584,0.0405,0.018,0.0,0.8443,0.9295,0.7355,0.8784,0.9943,0.9144,0.9694,0.9921,0.9134,0.9717,0.9906,0.9163,0.837,0.7646,0.6988,0.7545,0.7716,0.7207,0.4472,0.2105,0.0404,0.0655,0.0456,-0.033,0.0033,-0.0778,-0.2896,-0.1192,-0.0435,-0.0631,-0.1065,-0.1287,-0.1287,-0.1312,-0.2804,-0.5166,-0.3136,-0.3885,-0.66,-0.7858,-0.5804,-0.1791,-0.0087,0.2869,0.611,0.6048,0.7851,1.0213,0.9915,0.0,0.0,0.0,0.0,0.0,0.0,0.0,0.0,0.0,0.0,0.0,0.0,0.0,0.0,0.0,0.0,0.0,0.0,0.0,0.0,0.0,0.0,0.0,0.0,1.2913,1.3787,1.4092,1.461,1.5126,1.5582,1.5318,1.5064,1.4972,1.4256,1.3557,1.2938,1.2421,1.1912,1.133,1.1214,1.096,1.0518,0.9753,0.9274,0.9055,0.834,0.7784,0.7335,0.6567,0.5851,0.5178,0.4478,0.4005,0.3707,0.3556,0.3075,0.2338,0.1608,0.1013,0.0599,0.0,0.0,0.0,0.0,0.0314,-0.0135,0.0,0.8207,0.9017,0.7187,0.8538,0.9325,0.7654,0.8819,0.9292,0.7627,0.0,1.0167,1.0872,0.9456,0.8356,0.8078,0.7226,0.5246,0.0,0.0,0.0253,0.2531,-0.0093,-0.0323,0.2422,-0.0395,-0.21,-0.245,0.1168,0.2753,0.2393,0.2129,0.1978,0.1805,-0.1907,-0.3906,-0.4553,-0.4833,-0.5324,-0.597,-0.6433,-0.4443,-0.0817,0.3487,0.498,0.5196,0.8168,0.9016,0.9121,1.1648,0.0,0.0,0.0,0.0,0.0,0.0,0.0,0.0,0.0,0.0,0.0,0.0,0.0,0.0,0.0,0.0,0.0,0.0,0.0,0.0,0.0,0.0,0.0,0.0,1.3967,1.4837,1.5408,1.5524,1.5582,1.5635,1.5271,1.4909,1.4564,1.3841,1.3235,1.2745,1.2745,1.2246,1.1054,1.1326,0.0,0.0,0.0,0.8656,0.8151,0.7517,0.7034,0.6641,0.5722,0.5072,0.4691,0.3575,0.3015,0.2895,0.297,0.2492,0.1582,0.1527,0.1145,0.0666,0.0686,0.0719,0.0719,0.0719,0.0179,-0.0537,0.0,0.6254,0.706,0.5181,0.6571,0.7817,0.7457,0.7712,0.781,0.7449,0.772,0.8,0.8152,0.7853,0.7012,0.5488,0.5078,0.3947,0.0,0.0,0.2137,0.2742,-0.0093,-0.0407,0.2345,-0.0487,-0.2078,-0.226,-0.1462,-0.1106,-0.1201,-0.154,-0.1748,-0.1822,0.046,0.1056,0.036,0.0287,-0.0107,-0.0703,-0.0874,0.0897,0.3774,0.4347,0.8266,1.3569,1.4217,1.3967,1.3411,1.4013,1.3794,1.3234,1.3183,0.0,0.0,0.0,0.0,0.0,0.0,0.0,0.0,0.0,0.0,0.0,0.0,0.0,0.0,0.0,0.0,0.0,0.0,0.0,0.0,1.3408,1.4558,1.5255,1.4913,1.5074,1.5184,1.5227,1.4923,1.455,1.4149,1.3392,1.2906,1.2794,1.2219,1.1729,1.1489,1.077,1.0188,0.9633,0.867,0.7871,0.7244,0.686,0.6555,0.6307,0.5437,0.0,0.4364,0.3827,0.333,0.2973,0.3045,0.2995,0.279,0.2223,0.1383,0.0476,0.064,0.0719,0.0719,0.0719,0.0494,0.0045,0.4979,0.6578,0.7968,0.6115,0.6692,0.7089,0.615,0.5992,0.5997,0.6001,0.6825,0.7753,0.8694,0.7963,0.7421,0.7452,0.6901,0.0,0.0,0.3654,0.4281,0.3092,0.3143,0.3835,0.5225,0.4164,0.3579,0.351,0.351,0.2516,0.07,0.2425,0.1154,-0.2443,0.1454,0.1769,-0.0668,-0.0668,0.0073,0.1247,0.1171,0.4457,0.9317,0.8515,1.1685,1.6593,1.6601,1.6346,1.5948,1.5602,1.5233,1.4779,1.3989,1.3494,1.3135,0.0,0.0,0.0,0.0,0.0,0.0,0.0,0.0,0.0,0.0,0.0,0.0,0.0,0.0,1.229,1.3109,0.0,1.4096,1.4526,1.5189,1.5494,1.5006,1.5117,1.5139,1.489,1.4542,1.4162,1.3747,1.338,1.2958,1.2546,1.208,1.1644,1.1211,1.0667,1.0021,0.936,0.8533,0.7801,0.72,0.6556,0.6099,0.5825,0.5079,0.4496,0.4077,0.3627,0.3323,0.3091,0.3166,0.3219,0.311,0.1625,0.0798,0.0392,0.0529,0.0566,0.0509,-0.0,-0.0179,-0.036,0.5587,0.738,0.8888,0.7094,0.65,0.5915,0.477,0.4272,0.4173,0.4547,0.5671,0.729,0.9538,0.8157,0.7683,0.0,0.0,0.0,0.0,0.538,0.6346,0.4884,0.6904,0.8327,0.8888,0.9063,0.9156,0.918,0.918,0.7612,0.4685,0.7757,0.5905,0.016,0.3247,0.2675,-0.0644,-0.0755,0.064,0.2883,0.2055,0.6092,1.2506,1.1566,1.3871,1.7581,1.756,1.7395,1.7074,1.65,1.62,1.5842,1.4494,1.4474,1.4733,1.3547,1.3462,0.0,0.0,0.0,0.0,0.0,0.0,0.0,0.0,1.2182,1.271,1.3046,1.3102,1.3357,1.4336,1.4734,1.5089,1.5631,1.5659,1.5507,1.528,1.5212,1.506,1.4692,1.4406,1.4038,1.3452,1.3478,1.3167,1.2368,1.2106,1.1696,1.0949,1.0608,1.0002,0.9076,0.8421,0.78,0.7093,0.6353,0.5748,0.5331,0.461,0.4141,0.387,0.3447,0.3206,0.3211,0.3342,0.3332,0.3096,0.0911,0.0105,0.0306,0.0306,0.0301,0.0146,-0.1119,-0.1469,-0.1383,0.0,0.7182,0.6961,0.5212,0.3487,0.2844,0.4364,0.3136,0.265,0.4377,0.3641,0.4312,0.7856,0.6894,0.5895,0.0,0.0,0.0,0.5259,0.6277,0.7936,1.0211,0.8766,0.9109,1.1695,0.9954,0.9048,0.9117,0.9117,0.8928,0.8564,0.9,0.8745,0.7941,0.8368,0.8287,0.7805,0.7264,0.7214,0.7131,0.3269,0.4492,0.8622,0.8512,1.2652,1.8536,1.8536,1.7586,1.6333,1.6306,1.5833,1.5204,1.5078,1.4632,1.424,1.4848,0.0,1.3063,1.3652,1.3231,1.273,1.3176,1.319,1.3372,0.0,1.4686,1.4883,1.526,1.525,1.5331,1.5874,1.5614,1.5509,1.6068,1.5578,1.5231,1.5352,1.4812,1.4539,1.4852,1.4841,1.4457,1.3587,1.3526,1.3355,1.2775,1.2349,1.1868,1.1344,1.0436,0.9489,0.8593,0.8057,0.7222,0.6066,0.5962,0.5498,0.4697,0.4193,0.3953,0.3873,0.3493,0.3284,0.3295,0.3476,0.3583,0.3382,0.0991,0.0,0.0053,0.0053,0.0053,-0.0209,-0.2482,-0.3307,-0.3257,0.0,0.6269,0.5352,0.4666,0.3905,0.3284,0.2953,0.2759,0.3103,0.4429,0.3788,0.4449,0.7702,0.6745,0.5777,0.5594,0.0,0.0,0.6574,0.9843,1.1756,1.1569,1.2934,1.4278,1.5487,1.5594,1.5623,1.5617,1.5617,1.4513,1.2409,1.2803,1.0602,0.6448,0.8712,0.8477,0.6375,0.5763,0.6745,0.8366,0.4359,0.5117,0.8638,0.8634,1.1523,1.5887,1.8049,1.8383,0.0,0.0,1.6198,1.5823,1.5347,1.5008,1.4805,1.5093,1.4686,0.0,1.4489,1.4086,1.3666,1.4006,1.4552,1.5002,1.5044,1.5275,1.5643,1.6072,1.6038,1.6,1.6313,1.6061,1.5921,1.6248,1.5715,1.5286,1.5527,1.5332,1.5092,1.5092,1.503,1.4638,1.3669,1.3559,1.3388,1.2882,1.1849,1.1133,1.0965,0.9703,0.8672,0.8078,0.7492,0.6811,0.6086,0.5597,0.5088,0.4534,0.424,0.3991,0.3699,0.3547,0.3468,0.3476,0.3588,0.2792,0.1429,0.039,0.0,0.0,0.0,0.0,-0.0218,-0.1906,-0.2983,-0.3556,0.0,0.565,0.4266,0.3813,0.376,0.332,0.1917,0.1993,0.2711,0.4059,0.363,0.4043,0.6278,0.5769,0.5261,0.5261,0.7604,0.0,0.0,1.1191,1.2821,1.1158,1.4865,1.668,1.6042,1.8161,1.9288,1.9251,1.9251,1.8221,1.623,1.5882,1.3226,0.8852,1.081,1.0031,0.731,0.79,0.9127,1.032,0.6552,0.7297,1.0522,0.9498,1.0755,1.3426,1.6092,1.7446,0.0,0.0,1.5996,1.5738,1.5345,1.5245,1.5273,1.5387,1.5391,1.5318,1.5181,1.4907,1.4713,1.4947,1.5785,1.6377,1.5678,1.5918,1.637,1.6664,1.6515,1.6354,1.6433,1.6274,1.6203,1.636,1.5839,1.5518,1.5854,1.571,1.5513,1.5362,1.5101,1.4597,1.3837,1.3657,1.3286,1.2559,1.1325,1.0407,1.0041,0.8817,0.7883,0.7456,0.6853,0.6312,0.5828,0.521,0.4678,0.4242,0.4142,0.3935,0.3585,0.3596,0.3263,0.2589,0.2589,0.1628,0.0,0.0,0.0,0.0,0.0,0.0,-0.0167,-0.1374,-0.2547,-0.3609,0.0,0.0,0.384,0.2098,0.1779,0.1763,0.1715,0.0461,0.043,0.2999,0.2362,0.1902,0.2515,0.3231,0.3665,0.3665,0.4654,0.5844,0.7206,0.8363,0.908,0.9266,1.27,1.3573,1.1351,1.4722,1.6552,1.6611,1.6623,1.7827,2.007,1.7093,1.7232,1.9879,1.6946,1.5205,1.4725,1.8359,1.7812,1.4188,1.0443,1.1172,1.4134,1.0495,1.0399,1.2252,1.2349,0.0,0.0,0.0,1.4724,1.4215,1.5037,1.521,0.0,1.6038,1.6124,1.5936,1.58,1.5676,1.5674,1.6125,1.6709,1.7105,1.6878,1.7207,1.7499,1.7311,1.6903,1.6533,1.634,1.6308,1.6325,1.6371,1.5931,1.5768,1.6297,1.5696,1.535,1.5752,1.4903,1.4294,1.4283,1.3884,1.3016,1.1566,1.0914,0.999,0.8633,0.7806,0.7128,0.6756,0.6154,0.5555,0.4952,0.4677,0.4239,0.3638,0.3635,0.3635,0.3585,0.3604,0.2305,0.0112,0.0112,0.0056,0.0,0.0,0.0,0.0,0.0,0.0,-0.0168,-0.134,-0.2569,-0.3588,0.0,0.0,0.0,0.36,0.1467,-0.0165,-0.0165,0.1292,0.2429,0.2557,0.3585,0.0,0.0,0.0,0.0,0.0,0.4958,0.6531,0.6327,0.9247,1.1089,1.1306,1.2849,1.341,1.2763,1.3225,1.3545,1.3659,1.3826,1.5146,1.7441,1.4314,1.4257,1.6755,1.5857,1.5336,1.5154,1.5625,1.3977,1.0882,0.906,0.7943,0.7541,0.8662,1.0303,1.1929,0.0,0.0,0.0,1.4381,1.4314,1.4333,1.3603,0.0,0.0,1.5695,1.582,1.5802,1.6119,1.6463,1.6739,1.68,1.7277,1.7675,1.7405,1.7388,1.732,1.7101,1.6799,1.6501,1.6219,1.6129,1.625,1.6727,1.6116,1.5915,1.682,1.6148,1.5501,1.5209,1.4674,1.4003,1.3236,1.2832,1.2344,1.1715,1.045,0.9436,0.8862,0.7599,0.6696,0.6253,0.5492,0.4838,0.4284,0.3793,0.3522,0.3471,0.3535,0.2747,0.1231,0.1233,0.0785,0.0,0.0,-0.0224,-0.0617,-0.0617,-0.0336,0.0,0.0,-0.0954,-0.2361,-0.1961,-0.2575,-0.3588,0.0,0.0,0.0,0.0,0.0,0.0,0.0,0.0,0.0,0.0,0.0,0.0,0.0,0.0,0.0,0.0,0.0,0.5224,0.467,0.0,0.8918,0.9315,1.048,1.1002,1.0753,1.0843,1.1059,1.1371,1.1327,1.2878,1.5829,1.2725,1.3048,1.6169,1.5488,1.5357,1.5575,1.4783,1.2902,1.0231,0.8261,0.7611,0.7857,0.8401,1.0242,0.0,0.0,0.0,0.0,1.3723,1.3933,1.4122,1.3432,0.0,0.0,1.5454,1.5827,1.6279,1.6517,1.6851,1.7174,1.7349,1.7671,1.7878,1.7612,1.7344,1.7126,1.685,1.6554,1.6246,1.594,1.5726,1.587,1.675,1.6177,1.5979,1.704,1.6367,1.5534,1.4949,1.434,1.3589,1.2609,1.2039,1.1543,1.1116,0.9894,0.8967,0.8396,0.723,0.6263,0.5714,0.4948,0.4284,0.3843,0.335,0.3074,0.2965,0.2745,0.1849,0.0336,-0.0,-0.0168,-0.0168,-0.0168,-0.0336,-0.0729,-0.0842,-0.0953,-0.0952,-0.0729,-0.1572,-0.2923,-0.2577,-0.291,-0.3585,0.0,0.0,0.0,0.0,0.0,0.0,0.0,0.0,0.0,0.0,0.0,0.0,0.0,0.0,0.0,0.0,0.0,0.0,0.0,0.0,0.0,0.3905,0.6023,0.6705,0.5698,0.7676,0.9026,0.9693,0.912,1.1026,1.5114,1.2299,1.3546,1.8078,1.5832,1.5278,1.6014,1.5937,1.4522,1.1989,0.835,1.0049,1.4239,0.971,0.0,0.0,0.0,0.0,0.0,1.3274,1.354,1.3551,1.4504,0.0,0.0,1.5444,1.6201,1.7328,1.7038,1.6955,1.7106,1.7696,1.7861,1.7772,1.7432,1.7167,1.6892,1.6633,1.6207,1.5784,1.5492,1.5102,1.5198,1.6438,1.6055,1.5956,1.6959,1.6213,1.5365,1.4846,1.3978,1.3112,1.2365,1.1516,1.0669,0.9814,0.9392,0.86,0.7343,0.6588,0.5828,0.5069,0.4512,0.3956,0.3572,0.3241,0.2796,0.2127,0.1285,0.084,0.0785,-0.0056,-0.0449,-0.0449,-0.0449,-0.0449,-0.0449,-0.0785,-0.1569,-0.2579,-0.2077,-0.185,-0.2014,-0.319,-0.3585,-0.3585,0.0,0.0,0.0,0.0,0.0,0.0,0.0,0.0,0.0,0.0,0.0,0.0,0.0,0.0,0.0,0.0,0.0,0.0,0.0,0.0,0.0,0.0,0.0,0.6844,0.6872,0.625,0.0,0.0,0.0,0.8139,1.0636,0.9727,1.089,1.3687,1.2842,1.2821,1.3365,1.2315,1.0512,0.8417,0.0,0.9004,0.8808,0.0,0.0,0.0,0.0,0.0,0.0,0.0,1.3187,1.3525,1.5491,1.5886,1.5762,1.6567,1.7011,1.73,1.7569,1.7676,1.7662,1.7429,1.7384,1.7264,1.6763,1.6633,1.6554,1.6274,1.5924,1.5518,1.4998,1.5031,1.5176,1.5407,1.5478,1.5605,1.5847,1.5309,1.4549,1.3579,1.3351,1.2667,1.1191,1.0947,1.0438,0.9413,0.8567,0.7824,0.7187,0.6381,0.5513,0.4684,0.4242,0.3688,0.2912,0.297,0.2519,0.1679,0.1006,0.028,-0.0449,-0.0673,-0.0785,-0.0785,-0.0785,-0.0785,-0.0785,-0.0842,-0.1065,-0.1458,-0.2361,-0.2585,-0.2577,-0.3304,-0.3585,-0.3585,0.0,0.0,0.0,0.0,0.0,0.0,0.0,0.0,0.0,0.0,0.0,0.0,0.0,0.0,0.0,0.0,0.0,0.0,0.0,0.0,0.0,0.0,0.0,0.5542,0.6356,0.5431,0.5279,0.0,0.0,0.0,0.0,0.8792,0.9846,1.1837,1.1855,1.1489,1.0777,0.0,0.0,0.0,0.0,0.0,0.0,0.0,0.0,0.0,0.0,0.0,0.0,0.0,0.0,1.4851,1.613,1.6393,1.6386,1.7027,1.7404,1.7613,1.7698,1.7743,1.7698,1.7401,1.7264,1.7011,1.6279,1.6046,1.5848,1.5296,1.5152,1.49,1.421,1.4149,1.4337,1.4799,1.4815,1.4911,1.5336,1.4937,1.4204,1.3102,1.288,1.2187,1.0635,1.0635,1.0174,0.8949,0.815,0.7563,0.7187,0.6332,0.5407,0.4632,0.419,0.3577,0.2691,0.2521,0.2015,0.1229,0.0615,-0.0112,-0.0898,-0.0898,-0.0898,-0.0898,-0.0898,-0.0898,-0.0898,-0.0898,-0.1065,-0.1401,-0.2413,-0.2863,-0.3081,-0.358,-0.3749,-0.3749,0.0,0.0,0.0,0.0,0.0,0.0,0.0,0.0,0.0,0.0,0.0,0.0,0.0,0.0,0.0,0.0,0.0,0.0,0.0,0.0,0.0,0.0,0.0,0.383,0.5048,0.5029,0.538,0.0,0.0,0.0,0.0,0.0,0.0,0.0,0.0,0.0,0.0,0.0,0.0,0.0,0.0,0.0,0.0,0.0,0.0,0.0,0.0,0.0,0.0,0.0,1.5987,1.6778,1.6747,1.7182,1.7666,1.7315,1.7628,1.8001,1.7635,1.7512,1.7489,1.7425,1.7305,1.6898,1.587,1.5436,1.4987,1.4053,1.4027,1.394,1.3156,1.2976,1.3291,1.4263,1.4159,1.4208,1.5066,1.4642,1.3939,1.3006,1.251,1.176,1.0517,1.0517,1.0005,0.858,0.7943,0.7509,0.7235,0.6277,0.5407,0.4632,0.4135,0.3524,0.2691,0.2183,0.1566,0.0894,0.0392,-0.0224,-0.0898,-0.0898,-0.0898,-0.0898,-0.0898,-0.0898,-0.0898,-0.1009,-0.1344,-0.1846,-0.2408,-0.2912,-0.3469,-0.3855,-0.4024,-0.4024,0.0,0.0,0.0,0.0,0.0,0.0,0.0,0.0,0.0,0.0,0.3697,0.2633,0.0,0.0,0.0,0.0,0.0,0.0,0.0,0.0,0.0,0.0,0.3462,0.3857,0.4366,0.4791,0.0,0.0,0.0,0.0,0.0,0.0,0.0,0.0,0.0,0.0,0.0,0.0,0.0,0.0,0.0,0.0,0.0,0.0,0.0,0.0,0.0,0.0,0.0,0.0,1.6593,1.7767,1.8301,1.8449,1.8409,1.8334,1.8145,1.7905,1.7789,1.7622,1.7434,1.7158,1.7068,1.6724,1.5546,1.4878,1.424,1.3367,1.2775,1.2274,1.167,1.2428,1.3128,1.3052,1.3954,1.4476,1.3975,1.3826,1.3351,1.2363,1.2175,1.166,1.0517,1.0415,0.9961,0.8804,0.7783,0.7079,0.675,0.5891,0.5018,0.4135,0.3747,0.3246,0.2691,0.2577,0.2015,0.0894,0.0783,0.0168,-0.0898,-0.0898,-0.0898,-0.0898,-0.0898,-0.0898,-0.0954,-0.1456,-0.1679,-0.1902,-0.2854,-0.3302,-0.3469,-0.3855,-0.4024,-0.4024,0.0,0.0,0.0,0.0,0.0,0.0,0.0,0.297,0.2575,0.6463,0.4194,0.3095,0.54,0.4511,0.403,0.0,0.0,0.0,0.0,0.0,0.0,0.0,0.0,0.3474,0.3781,0.4379,0.4823,0.0,0.0,0.0,0.0,0.0,0.0,0.0,0.0,0.0,0.0,0.0,0.0,0.0,0.0,0.0,0.0,0.0,0.0,0.0,0.0,0.0,0.0,0.0,1.5093,1.7006,1.8478,1.8825,1.8696,1.8565,1.8388,1.8142,1.7878,1.7721,1.7599,1.7321,1.7134,1.6627,1.52,1.4304,1.3367,1.21,1.1446,1.0931,1.0286,1.1203,1.1994,1.179,1.2782,1.3461,1.3116,1.3128,1.2909,1.2197,1.2076,1.166,1.0517,1.0415,0.9961,0.8857,0.7729,0.7025,0.6864,0.5896,0.4908,0.4024,0.3802,0.3413,0.2691,0.2071,0.1454,0.0894,0.028,-0.0336,-0.0898,-0.0898,-0.0898,-0.0898,-0.0898,-0.1065,-0.14,-0.1679,-0.1958,-0.2347,-0.3183,-0.3519,-0.3574,-0.4076,-0.4242,-0.4242,0.0,0.0,0.0,0.0,0.0,0.0,0.0,0.4052,0.3625,0.7123,0.5224,0.4571,0.7261,0.6402,0.5688,0.0,0.0,0.0,0.0,0.0,0.0,0.0,0.0,0.0,0.0,0.0,0.0,0.4379,0.0,0.0,0.0,0.0,0.0,0.0,0.0,0.0,0.0,0.0,0.0,0.0,0.0,0.0,0.0,0.0,0.0,0.0,0.0,0.0,0.0,0.0,1.3062,1.5282,1.7364,1.8284,1.8592,1.8623,1.8563,1.8406,1.7971,1.7816,1.7743,1.7545,1.7314,1.667,1.4984,1.3829,1.2607,1.0956,1.024,0.9742,0.918,0.9999,1.0833,1.1084,1.1881,1.2527,1.275,1.2901,1.2741,1.2169,1.2076,1.171,1.0677,1.0466,1.0012,0.9061,0.7836,0.6977,0.6707,0.5841,0.4908,0.4024,0.4024,0.3522,0.2521,0.1566,0.095,0.0671,-0.028,-0.0785,-0.0898,-0.0898,-0.0898,-0.0898,-0.1009,-0.1344,-0.1846,-0.2069,-0.2458,-0.2959,-0.3569,-0.3793,-0.3849,-0.4349,-0.4519,-0.4519,0.0,0.0,0.0,0.0,0.0,0.0,0.0,0.5517,0.504,0.7228,0.7185,0.7719,0.9764,0.6824,0.4985,0.0,0.0,0.0,0.0,0.0,0.0,0.0,0.0,0.0,0.0,0.0,0.0,0.3682,0.4668,0.0,0.0,0.0,0.0,0.0,0.0,0.5189,0.0,0.0,0.0,0.0,0.0,0.0,0.0,0.0,0.0,0.0,0.0,0.0,0.0,0.0,0.0,1.2647,1.4374,1.6276,1.8049,1.882,1.8788,1.8445,1.8149,1.7932,1.7743,1.7545,1.7491,1.6959,1.5046,1.3637,1.2256,1.044,0.9319,0.8654,0.8663,0.9355,1.0334,1.1699,1.2268,1.2787,1.3343,1.3433,1.3111,1.2218,1.2076,1.1877,1.1267,1.0736,1.0167,0.9562,0.8037,0.6598,0.5517,0.5352,0.4908,0.4024,0.4024,0.3297,0.1902,0.179,0.1175,0.0056,-0.0056,-0.0393,-0.0898,-0.0898,-0.0898,-0.0954,-0.1456,-0.1734,-0.1902,-0.2959,-0.3458,-0.3569,-0.4184,-0.4405,-0.4408,-0.4463,-0.4519,-0.4519,0.0,0.0,0.0,0.0,0.0,0.0,0.8851,0.6865,0.5815,0.7141,0.6918,0.7111,0.8405,0.7303,0.6577,0.6878,0.0,0.0,0.0,0.0,0.0,0.0,0.0,0.0,0.0,0.0,0.0,0.3356,0.4043,0.0,0.0,0.0,0.0,0.0,0.0,0.4358,0.427,0.0,0.0,0.0,0.0,0.0,0.0,0.0,0.0,0.0,0.0,0.0,0.7064,0.8359,0.9957,1.168,1.3313,1.4409,0.0,1.7052,1.8142,1.8715,1.841,1.8287,1.8121,1.7766,1.7356,1.6509,1.4611,1.3125,1.1635,0.9822,0.8818,0.8229,0.8092,0.862,0.9471,1.0729,1.1415,1.2163,1.3178,1.3426,1.326,1.2586,1.2512,1.2197,1.1368,1.0736,0.974,0.819,0.745,0.6598,0.5352,0.5077,0.4632,0.4024,0.3747,0.3019,0.179,0.1454,0.0839,-0.0,-0.0393,-0.0673,-0.0898,-0.0898,-0.0898,-0.0898,-0.1177,-0.1679,-0.2402,-0.2847,-0.3458,-0.4184,-0.4405,-0.4519,-0.4519,-0.4519,-0.4519,-0.4519,0.0,0.0,0.0,0.0,0.0,0.9775,0.9575,0.7964,0.6982,0.7584,0.7022,0.7001,0.8112,0.7674,0.7323,0.7311,0.5925,0.0,0.0,0.0,0.0,0.0,0.0,0.0,0.0,0.0,0.0,0.3032,0.3553,0.37,0.0,0.0,0.3689,0.3617,0.0,0.0,0.0,0.0,0.0,0.0,0.0,0.0,0.0,0.0,0.0,0.0,0.0,0.0,0.0,0.0,0.0,1.0915,0.0,0.0,0.0,0.0,1.7561,1.8304,1.8459,1.8485,1.8406,1.7992,1.7518,1.6584,1.4466,1.3094,1.1646,0.9624,0.8644,0.8094,0.7911,0.8138,0.8799,1.0132,1.0837,1.1788,1.3347,1.3765,1.376,1.3329,1.3154,1.2696,1.185,1.0931,0.9481,0.7241,0.7085,0.6598,0.5352,0.4912,0.4467,0.4024,0.3635,0.2907,0.179,0.1229,0.0615,-0.0,-0.0617,-0.0898,-0.0898,-0.0898,-0.1009,-0.1177,-0.1344,-0.2014,-0.2959,-0.3181,-0.3738,-0.4519,-0.4519,-0.4519,-0.4519,-0.468,-0.4736,-0.4736,0.0,0.0,0.0,0.0,0.0,0.0,0.8807,0.8745,0.8777,0.8777,0.8146,0.8318,0.9992,0.7929,0.6404,0.6422,0.4936,0.0,0.0,0.0,0.0,0.0,0.0,0.0,0.0,0.0,0.0,0.0,0.0,0.3528,0.3403,0.3681,0.3736,0.3596,0.0,0.0,0.0,0.0,0.0,0.0,0.0,0.0,0.0,0.0,0.0,0.0,0.0,0.0,0.0,0.0,0.0,0.0,0.0,0.0,0.0,0.0,1.7282,1.6805,1.814,1.8485,1.8445,1.8153,1.8149,1.7483,1.4826,1.3715,1.2538,0.9943,0.8813,0.8287,0.8287,0.8027,0.845,1.0372,1.0915,1.1865,1.4083,1.4732,1.4826,1.4429,1.3964,1.3433,1.2851,1.1366,0.9481,0.7241,0.7085,0.6598,0.5352,0.4912,0.4467,0.4024,0.3635,0.2907,0.179,0.1229,0.0615,-0.0,-0.0617,-0.0898,-0.0898,-0.0898,-0.1232,-0.1846,-0.2402,-0.3014,-0.3627,-0.4239,-0.4463,-0.4519,-0.4519,-0.4519,-0.457,-0.5117,-0.5277,-0.5277,0.0,0.0,0.0,0.0,0.0,0.0,0.0,0.8959,0.8181,0.7038,0.7276,0.7303,0.6592,0.6446,0.6405,0.6401,0.48,0.0,0.0,0.0,0.0,0.0,0.0,0.0,0.0,0.0,0.0,0.0,0.0,0.0,0.2658,0.2647,0.2655,0.2752,0.3624,0.0,0.0,0.0,0.0,0.0,0.0,0.0,0.0,0.0,0.0,0.0,0.0,0.0,0.0,0.0,0.0,0.0,0.0,0.0,0.0,0.0,0.0,1.7348,1.5938,1.6375,1.6863,1.5487,1.5208,1.472,1.2673,1.2121,1.1435,0.9405,0.8804,0.8595,0.8463,0.8282,0.9034,1.1818,1.2108,1.2999,1.5848,1.5867,1.5321,1.4494,1.3331,1.2218,1.1266,1.0712,0.9481,0.7241,0.7085,0.6598,0.5352,0.4632,0.4135,0.4024,0.3635,0.2683,0.1174,0.1006,0.0391,-0.0617,-0.0785,-0.0898,-0.0898,-0.0898,-0.1232,-0.179,-0.2014,-0.2681,-0.3627,-0.3793,-0.4128,-0.4519,-0.4519,-0.4519,-0.457,-0.5117,-0.5062,-0.4791,0.0,0.0,0.0,0.0,0.0,0.0,0.0,0.8848,0.8142,0.7147,0.7032,0.6852,0.6355,0.6069,0.6051,0.6367,0.4744,0.0,0.0,0.0,0.0,0.0,0.0,0.0,0.0,0.0,0.0,0.0,0.0,0.0,0.0,0.0,0.0,0.3773,0.4654,0.0,0.0,0.0,0.0,0.0,0.0,0.0,0.0,0.0,0.0,0.0,0.0,0.0,0.0,0.0,0.0,0.0,0.0,0.0,0.0,0.0,1.4377,1.6097,1.464,1.4972,1.545,1.4278,1.4019,1.3596,1.1867,1.1516,1.1065,0.9314,0.8897,0.8795,0.8667,0.8497,0.9165,1.1582,1.185,1.2787,1.5709,1.5825,1.5334,1.456,1.3419,1.2089,1.0568,1.0415,0.9481,0.7241,0.7085,0.6598,0.5352,0.4632,0.4187,0.4024,0.3413,0.2517,0.1229,0.1006,0.0391,-0.0561,-0.0785,-0.0898,-0.0898,-0.0898,-0.1232,-0.179,-0.2068,-0.2681,0.0,-0.3849,-0.4184,-0.4515,-0.4736,-0.4787,-0.4897,-0.5664,-0.5605,-0.5171,0.0,0.0,0.0,0.0,0.0,0.0,0.0,0.8576,0.8603,0.8604,0.7322,0.693,0.8366,0.6479,0.5435,0.6241,0.0,0.0,0.0,0.0,0.0,0.0,0.0,0.0,0.0,0.0,0.0,0.5253,0.4638,0.5449,0.7578,0.0,0.0,0.0,0.6341,0.0,0.0,0.0,0.0,0.0,0.0,0.0,0.0,0.0,0.0,0.0,0.0,0.0,0.0,0.0,0.0,0.0,0.0,0.0,0.0,0.0,0.0,0.0,0.0,1.4065,1.4132,1.4005,1.4017,1.3636,1.2007,1.1686,0.0,0.9565,0.9057,0.8953,0.8993,0.8786,0.9041,1.0414,1.0807,1.1834,1.4396,1.4972,1.503,1.4642,1.3993,1.2764,1.0712,1.0415,0.9481,0.7348,0.7139,0.6598,0.5352,0.4912,0.4467,0.4024,0.3135,0.2408,0.1734,0.1174,0.0559,-0.0056,-0.0617,-0.0898,-0.0898,-0.0898,-0.1232,-0.1902,-0.2458,-0.307,-0.3683,-0.4294,-0.4519,-0.4574,-0.5117,-0.5277,-0.5445,-0.6647,-0.6701,-0.6154,0.0,0.0,0.0,0.0,0.0,0.0,0.0,0.0,0.0,0.0,0.7447,0.6883,0.5984,0.5412,0.5183,0.0,0.0,0.0,0.0,0.0,0.0,0.0,0.0,0.0,0.0,0.0,0.0,0.581,0.5655,0.5942,0.6621,0.6322,0.0,0.0,0.0,0.0,0.0,0.0,0.0,0.0,0.0,0.0,0.0,0.0,0.0,0.0,0.9199,0.9825,0.0,0.0,0.0,0.0,0.0,0.0,0.0,0.0,1.0471,1.0695,1.0825,0.0,1.2381,1.1049,1.1205,1.1434,0.0,1.062,1.0731,0.9654,0.9349,0.9439,0.9956,0.9822,1.0565,1.3362,1.3474,1.4154,1.6785,1.6308,1.5405,1.4619,1.3711,1.2764,1.1715,1.0864,0.9629,0.7847,0.7337,0.6598,0.5352,0.4577,0.4132,0.4024,0.3135,0.2184,0.1118,0.095,0.0391,-0.0673,-0.0842,-0.0898,-0.0898,-0.0898,-0.1456,-0.2514,-0.2625,-0.3292,-0.4294,-0.4463,-0.4519,-0.4574,-0.5117,-0.5277,-0.5445,-0.6647,-0.6426,-0.555,0.0,0.0,0.0,0.0,0.0,0.0,0.0,0.0,0.0,0.0,0.0,0.0,0.0,0.0,0.0,0.0,0.0,0.0,0.0,0.0,0.0,0.0,0.0,0.0,0.0,0.0,0.0,0.0,0.0,0.777,0.0,0.0,0.0,0.0,0.0,0.0,0.0,0.0,0.0,0.0,0.0,0.0,0.0,0.0,0.0,0.0,1.0208,1.0728,0.0,1.14,1.1674,1.1933,0.0,0.0,0.0,0.0,0.9971,0.9886,0.99,1.1042,1.2025,1.1105,1.1224,1.1445,1.1024,1.0628,1.02,0.9688,0.0,0.9743,1.072,1.0384,1.0924,1.3905,1.3721,1.4085,1.6578,1.6584,1.5947,1.5028,1.4147,1.3205,1.211,1.1015,0.9681,0.8053,0.7391,0.6598,0.5352,0.4467,0.4024,0.4024,0.3135,0.2127,0.0894,0.0894,0.028,-0.0898,-0.0898,-0.0898,-0.0898,-0.0898,-0.14,-0.2291,-0.2569,-0.3236,-0.4125,-0.4405,-0.4519,-0.457,-0.5281,-0.5609,-0.5823,-0.6918,-0.6642,-0.5773,0.0,0.0,0.0,0.0,0.0,0.0,0.0,0.0,0.0,0.0,0.0,0.0,0.0,0.0,0.0,0.0,0.0,0.0,0.0,0.0,0.0,0.0,0.0,0.0,0.0,0.0,0.0,0.0,0.0,0.0,0.0,0.0,1.0696,0.0,0.0,0.0,0.0,0.0,0.0,0.0,0.0,0.0,0.0,0.0,0.0,0.0,0.0,0.0,0.0,1.1424,1.1906,1.2397,1.164,0.0,0.0,0.0,0.0,0.0,1.0302,1.1501,1.2579,1.2125,1.217,1.229,1.2083,0.0,0.0,0.0,0.0,0.0,0.0,1.1145,1.1436,1.3755,1.3524,1.3684,1.5508,1.6279,1.6361,1.5531,1.4778,1.3788,1.2444,1.1166,0.9784,0.8205,0.7545,0.6652,0.5462,0.4577,0.4076,0.4024,0.3135,0.2127,0.0894,0.0894,0.028,-0.0898,-0.0898,-0.0898,-0.0898,-0.0898,-0.1232,-0.1846,-0.2458,-0.307,-0.3624,-0.4239,-0.4519,-0.457,-0.5445,-0.5991,-0.6317,-0.7187,-0.7025,-0.6317,0.0,0.0,0.0,0.0,0.0,0.0,0.0,0.0,0.0,0.0,0.0,0.0,0.0,0.0,0.0,0.0,0.0,0.0,0.0,0.0,0.0,0.0,0.0,0.0,0.0,0.0,0.0,0.0,0.0,0.0,1.1773,1.0777,1.0366,1.048,0.0,0.0,0.0,0.0,0.0,0.0,0.0,0.0,0.0,0.0,0.0,0.0,0.0,0.0,0.0,1.1486,1.158,1.1657,1.1451,0.0,0.0,0.0,0.0,0.0,1.1737,1.3289,1.381,1.0986,1.1383,1.2097,1.0696,1.0634,0.0,0.0,0.0,0.0,0.0,1.3521,1.4469,1.5501,1.6099,1.6332,1.6075,1.6082,1.5976,1.5546,1.4652,1.3956,1.3721,1.1697,1.0041,0.9127,0.8072,0.6928,0.5795,0.4904,0.4298,0.4024,0.3135,0.2127,0.0894,0.0894,0.028,-0.0898,-0.0898,-0.0898,-0.0898,-0.0898,-0.1232,-0.1846,-0.2458,-0.307,-0.3624,-0.4239,-0.4519,-0.457,-0.5445,-0.5991,-0.6317,-0.7187,-0.7246,-0.681,0.0,0.0,0.0,0.0,0.0,0.0,0.0,0.0,0.0,0.0,0.0,0.0,0.0,0.0,0.0,0.0,0.0,0.0,0.0,0.0,0.0,0.0,0.0,0.0,0.0,0.0,0.0,0.0,0.0,1.0995,1.2284,1.1403,1.0757,1.0307,0.0,0.0,0.0,0.0,0.0,0.0,0.0,0.0,0.0,0.0,0.0,0.0,0.0,0.0,0.0,0.0,1.1804,1.2103,1.1612,0.0,0.0,0.0,0.0,0.0,1.0994,1.2407,1.3271,1.1699,1.292,1.4172,1.2988,1.2255,0.0,0.0,0.0,0.0,0.0,1.3998,1.4907,1.6311,1.7059,1.7291,1.681,1.6699,1.6454,1.5876,1.5242,1.4595,1.3967,1.2083,1.0477,0.9283,0.8125,0.7085,0.6055,0.5117,0.4515,0.4298,0.3302,0.2184,0.0894,0.0894,0.028,-0.0898,-0.0898,-0.0898,-0.0898,-0.0898,-0.1232,-0.1846,-0.2458,-0.307,-0.3624,-0.4239,-0.4408,-0.4411,-0.4959,-0.5504,-0.5941,-0.6756,-0.6864,-0.648,0.0,0.0,0.0,0.0,0.0,0.0,0.0,0.0,0.0,0.0,0.0,0.0,0.0,0.0,0.0,0.0,0.0,0.0,0.0,0.0,0.0,0.0,0.0,0.0,0.0,0.0,1.0055,1.1601,1.1113,1.1465,1.2578,1.1913,1.113,0.0,0.0,0.0,0.0,0.0,0.0,0.0,0.0,0.0,0.0,0.0,0.0,0.0,0.0,0.0,0.0,0.0,0.0,0.0,0.0,0.0,0.0,1.0586,1.0282,1.0255,1.0835,1.1787,1.264,1.2775,0.0,1.5288,1.5044,1.3857,0.0,0.0,0.0,0.0,1.4363,1.4793,1.5638,1.7433,1.7827,1.772,1.7246,1.7047,1.6752,1.6083,1.5555,1.4915,1.4014,1.2327,1.0679,0.9283,0.8231,0.7241,0.6263,0.5437,0.4838,0.457,0.3635,0.2406,0.095,0.0894,0.028,-0.0898,-0.0898,-0.0898,-0.0898,-0.0898,-0.1177,-0.1623,-0.2402,-0.2959,-0.3458,-0.4184,-0.4356,-0.4249,-0.4577,-0.5124,-0.5727,-0.6317,-0.6263,-0.5932,0.0,0.0,0.0,0.0,0.0,0.0,0.0,0.0,0.0,0.0,0.0,0.0,0.0,0.0,0.0,0.0,0.0,0.0,0.0,0.0,0.0,0.0,0.0,0.0,0.0,0.9767,1.0651,1.1598,1.2298,1.23,1.1699,1.1621,1.1133,1.0292,0.0,0.0,0.0,0.0,0.0,0.0,0.0,0.0,0.0,0.0,0.0,0.0,0.0,0.0,0.0,0.0,0.0,0.0,0.0,0.0,1.0443,1.1186,1.0831,1.0702,1.2993,1.3128,1.2781,1.3525,1.3284,0.0,1.4673,1.4286,0.0,1.5597,0.0,0.0,1.6605,1.7302,1.834,1.9675,1.9075,1.8048,1.6909,1.6539,1.6194,1.5792,1.4869,1.4305,1.4258,1.2209,1.0458,0.9533,0.8652,0.7568,0.6263,0.6036,0.5542,0.4728,0.407,0.2901,0.1118,0.095,0.028,-0.0898,-0.0898,-0.0898,-0.0898,-0.0898,-0.0898,-0.1009,-0.2179,-0.2736,-0.2847,-0.4015,-0.4356,-0.4249,-0.4684,-0.5226,-0.5828,-0.61,-0.5878,-0.5336,0.0,0.0,0.0,0.0,0.0,0.0,0.0,0.0,0.0,0.0,0.0,0.0,0.0,0.0,0.0,0.0,0.0,0.0,0.0,0.0,0.0,0.0,0.0,0.782,0.8188,1.0067,1.1209,1.1535,1.1886,1.1909,1.1581,1.1054,0.0,0.0,0.0,0.0,0.0,0.0,0.0,0.0,0.0,0.0,0.0,0.0,0.0,0.0,0.0,0.0,0.0,0.0,1.0276,1.0295,0.0,0.0,1.1062,1.1399,1.1269,1.1212,1.2142,1.2134,1.2166,1.3468,1.32,0.0,0.0,1.5155,1.5588,1.6557,1.7342,0.0,1.8181,1.8114,1.8295,1.9137,1.8921,1.821,1.7034,1.6625,1.625,1.576,1.5153,1.464,1.4258,1.2831,1.129,0.9813,0.9072,0.8137,0.681,0.5987,0.5382,0.4944,0.4015,0.2738,0.1118,0.1062,0.0391,-0.0898,-0.0898,-0.0898,-0.0898,-0.0898,-0.0898,-0.0953,-0.1398,-0.2011,-0.2736,-0.3519,-0.391,-0.4135,-0.4519,-0.4901,-0.5281,-0.5773,-0.5664,-0.5277,0.0,0.0,0.0,0.0,0.0,0.0,0.0,0.0,0.0,0.0,0.0,0.0,0.0,0.0,0.0,0.0,0.0,0.0,0.0,0.0,0.0,0.0,0.0,0.7498,0.8069,1.0051,1.1102,1.1119,1.1436,1.1595,1.1577,0.0,0.0,0.0,0.0,0.0,0.0,0.0,0.0,0.0,0.0,0.0,0.0,0.0,0.0,0.0,0.0,0.0,0.0,0.0,1.0278,0.0,0.0,0.0,0.0,0.0,1.1305,1.115,1.1392,1.1258,1.1387,1.2941,0.0,0.0,1.5223,1.5931,1.6526,1.7628,1.8257,1.8854,1.9685,1.9068,1.8619,1.9071,1.9023,1.8472,1.7242,1.685,1.6466,1.5792,1.5334,1.4869,1.4316,1.3273,1.1877,1.0077,0.9377,0.8501,0.7241,0.615,0.5441,0.5164,0.4181,0.2847,0.1174,0.1118,0.0447,-0.0898,-0.0898,-0.0898,-0.0898,-0.0898,-0.0898,-0.0898,-0.0895,-0.1563,-0.2736,-0.3188,-0.3635,-0.4024,-0.4187,-0.4515,-0.4901,-0.5175,-0.5226,-0.5171,0.0,0.0,0.0,0.0,0.0,0.0,0.0,0.0,0.0,0.0,0.0,0.0,0.0,0.0,0.0,0.0,0.0,0.0,0.0,0.0,0.0,0.0,0.0,0.7171,0.884,0.9742,1.0228,1.0328,1.116,1.1592,1.1586,1.0712,0.0,0.0,0.0,0.0,0.0,0.0,0.0,0.0,0.0,0.0,0.0,0.0,0.0,0.0,0.0,0.0,0.0,0.0,1.0242,1.0308,0.0,0.0,0.0,1.125,1.0886,1.0383,1.1181,1.0829,1.0564,1.1977,0.0,0.0,1.6481,1.65,1.6686,1.9029,1.9409,1.9738,2.1125,2.045,1.975,1.9848,1.9624,1.886,1.7393,1.7199,1.6863,1.5925,1.5379,1.4869,1.4351,1.3389,1.2101,1.0332,0.9577,0.8652,0.7391,0.6583,0.5932,0.5336,0.4563,0.3287,0.1341,0.1174,0.0447,-0.0898,-0.0898,-0.0898,-0.0898,-0.0898,-0.0898,-0.0898,-0.0895,-0.1563,-0.2736,-0.3188,-0.3635,-0.3965,-0.3852,-0.4187,-0.4636,-0.4304,-0.4522,-0.4842,0.0,0.0,0.0,0.0,0.0,0.0,0.0,0.0,0.0,0.0,0.0,0.0,0.0,0.0,0.0,0.0,0.0,0.0,0.0,0.0,0.0,0.0,0.0,0.0,0.0,0.0,1.0205,1.207,1.1083,1.0932,0.0,0.0,0.0,1.0303,0.0,0.0,0.0,0.0,0.0,0.0,0.0,0.0,0.0,0.0,0.0,0.0,0.0,0.0,0.0,0.0,0.0,0.0,0.0,0.0,0.0,1.1376,1.1253,1.1223,1.2082,1.2035,1.2117,1.3678,0.0,0.0,0.0,1.7727,0.0,0.0,1.9777,1.9712,2.0291,2.0227,1.9849,1.9208,1.9269,1.886,1.7393,1.7199,1.6863,1.5925,1.504,1.449,1.4305,1.342,1.2187,1.061,1.0041,0.911,0.7664,0.6696,0.5932,0.5336,0.4732,0.368,0.2178,0.1564,0.0783,-0.0112,-0.0672,-0.0898,-0.0898,-0.0898,-0.0785,-0.0561,-0.0784,-0.1343,-0.2124,-0.3241,-0.3691,-0.3749,-0.3799,-0.3907,-0.4076,-0.419,-0.4301,-0.4411,0.0,0.0,0.0,0.0,0.0,0.0,0.0,0.0,0.0,0.0,0.0,0.0,0.0,0.0,0.0,0.0,0.0,0.0,0.0,0.0,0.0,0.0,0.0,0.0,0.0,0.8377,0.9673,0.0,0.0,0.0,0.0,0.0,0.0,1.0296,0.0,1.0302,0.0,0.0,0.0,0.0,1.0291,1.0292,1.0293,0.0,0.0,0.0,0.0,0.0,0.0,0.0,0.0,0.0,0.0,0.0,0.0,1.0905,1.0856,1.1034,1.1871,1.2003,1.2418,1.4606,1.5495,1.6275,1.8045,0.0,1.8982,2.0007,1.9739,1.9538,2.0229,1.9816,1.9329,1.9167,1.8983,1.846,1.7366,1.7199,1.6863,1.5925,1.5096,1.4536,1.4305,1.3621,1.255,1.0981,1.0297,0.9422,0.8043,0.6858,0.5932,0.5336,0.4791,0.3846,0.2512,0.19,0.1118,0.0168,-0.056,-0.0898,-0.0898,-0.0785,-0.0673,-0.0617,-0.0784,-0.1287,-0.2069,-0.3299,-0.3749,-0.3585,-0.3691,-0.3799,-0.3959,-0.4021,-0.4135,-0.4301,0.0,0.0,0.0,0.0,0.0,0.0,0.0,0.0,0.0,0.0,0.0,0.0,0.0,0.0,0.0,0.0,0.0,0.0,0.0,0.0,0.0,0.0,0.0,0.0,0.0,0.0,0.0,0.0,0.0,0.0,0.0,0.0,1.029,1.0292,0.0,1.0302,0.0,0.0,0.0,0.0,1.0292,1.0293,1.0293,1.0293,0.0,0.0,0.0,0.0,0.0,0.0,0.0,0.0,1.0228,1.0202,1.0186,1.0125,1.0049,1.019,1.1068,1.1253,1.1948,1.5028,1.5913,1.6515,1.8512,1.9017,1.9232,1.9812,1.9398,1.9255,2.0424,1.9316,1.8546,1.9461,1.876,1.7904,1.7286,1.7199,1.6863,1.5925,1.5334,1.4823,1.4351,1.3847,1.288,1.1301,1.0458,0.9526,0.8474,0.7074,0.5991,0.5336,0.4846,0.3956,0.2623,0.2293,0.151,0.0279,-0.0504,-0.0898,-0.0898,-0.0561,-0.0561,-0.0842,-0.0951,-0.1454,-0.2238,-0.3418,-0.3755,-0.3585,-0.3585,-0.3802,-0.4122,-0.3907,-0.4073,-0.4408,0.0,0.0,0.0,0.0,0.0,0.0,0.0,0.0,0.0,0.0,0.0,0.0,0.0,0.0,0.0,0.0,0.0,0.0,0.0,0.0,0.0,0.0,0.0,0.0,0.0,0.0,0.0,0.0,0.0,0.0,0.0,0.0,0.0,1.0308,0.0,1.0309,0.0,0.0,0.0,1.0305,1.0306,1.0308,1.0309,1.0293,1.0292,0.0,0.0,0.0,0.0,0.0,0.0,0.0,1.0202,1.0167,1.0113,1.0104,1.0044,1.0304,1.1743,1.2049,0.0,1.5931,1.7461,1.8299,1.8682,1.8789,1.8751,1.8641,1.8847,1.8978,1.8739,1.9058,1.9249,1.8891,1.8833,1.8474,1.7338,1.7199,1.6863,1.5925,1.5006,1.4444,1.4294,1.3525,1.2559,1.1301,1.0458,0.9526,0.8474,0.7456,0.6426,0.5332,0.5171,0.4567,0.3357,0.2519,0.1734,0.1062,-0.028,-0.0898,-0.0898,-0.0842,-0.0561,-0.028,-0.1399,-0.179,-0.1733,-0.3135,-0.3641,-0.3585,-0.3585,-0.3638,-0.3747,-0.3796,-0.3852,-0.3962,0.0,0.0,0.0,0.0,0.0,0.0,0.0,0.0,0.0,0.0,0.0,0.0,0.0,0.0,0.0,0.0,0.0,0.0,0.0,0.0,0.5276,0.5652,0.0,0.0,0.0,0.0,0.0,0.0,0.0,0.0,0.0,0.0,0.0,1.0308,0.0,1.0291,0.0,0.0,1.0291,1.0292,1.029,1.029,1.0253,0.9844,0.9687,0.9686,0.9684,0.0,0.0,0.0,0.0,0.0,0.0,0.0,1.0131,1.0108,1.0044,1.0253,1.1451,1.198,0.0,1.6034,0.0,1.8306,1.8439,1.845,1.8313,1.7854,1.8266,1.8575,1.8292,1.8419,1.8594,1.877,1.8655,1.829,1.768,1.738,1.6964,1.6219,1.5266,1.4582,1.434,1.3658,1.2803,1.1719,1.0821,0.9843,0.8823,0.7877,0.6858,0.5773,0.5445,0.4897,0.4024,0.3244,0.2294,0.1285,0.028,-0.0336,-0.0673,-0.0842,-0.0561,-0.0056,-0.084,-0.14,-0.1905,-0.3084,-0.3588,-0.3585,-0.3585,-0.3585,-0.3585,-0.3691,-0.3691,-0.3691,0.0,0.0,0.0,0.0,0.0,0.0,0.0,0.0,0.0,0.0,0.0,0.0,0.0,0.0,0.0,0.0,0.0,0.0,0.0,0.5059,0.5467,0.6263,0.0,0.0,0.0,0.0,0.0,0.0,0.0,0.0,0.0,0.0,0.0,1.0309,0.0,0.0,0.0,0.0,1.0293,1.0291,1.0293,1.0215,1.0,0.9277,0.8906,0.8789,0.8942,0.8998,0.9133,1.0012,0.0,0.0,0.0,0.0,1.0193,1.0121,1.0059,1.0163,1.0909,1.1812,1.3196,1.5872,1.7034,1.7613,1.8055,1.8125,1.7936,1.7415,1.7715,1.8075,1.8161,1.7693,1.7574,1.8494,1.816,1.7723,1.7605,1.7263,1.6816,1.6316,1.5416,1.4687,1.434,1.38,1.3094,1.2175,1.1082,1.01,0.9228,0.819,0.7128,0.61,0.555,0.5007,0.4353,0.386,0.2854,0.1454,0.0672,0.0056,-0.0505,-0.0673,-0.0449,0.0,0.0,-0.0673,-0.1909,-0.2865,-0.3423,-0.3588,-0.3588,-0.3588,-0.3588,-0.3585,-0.3585,-0.3585,0.0,0.0,0.0,0.0,0.0,0.0,0.0,0.0,0.0,0.0,0.0,0.4853,0.4978,0.4941,0.0,0.0,0.0,0.0,0.4993,0.0,0.0,0.6261,0.0,0.0,0.0,0.0,0.0,0.0,0.0,0.0,0.0,0.0,0.0,1.0291,0.0,0.0,0.0,0.0,1.0293,1.0292,1.0293,0.9844,0.916,0.9041,0.8531,0.7964,0.8726,0.8998,0.9135,1.0013,1.026,0.0,0.0,0.0,1.0196,1.0116,1.0044,1.016,1.0891,0.0,1.4402,0.0,1.6712,1.722,1.7804,1.7816,1.7595,1.7368,1.7351,1.7377,1.7297,1.7184,1.7149,1.7258,1.7232,1.6923,1.6106,1.5896,1.5698,1.5413,1.4442,1.3914,1.4261,1.3525,1.2774,1.2126,1.0864,0.9835,0.9228,0.7925,0.6642,0.5441,0.5332,0.4787,0.3749,0.3646,0.3086,0.1959,0.0168,-0.0729,-0.0842,-0.0336,-0.0056,0.0,0.0,-0.0112,-0.0392,-0.1568,-0.2633,-0.3596,-0.3596,-0.3596,-0.3596,-0.3588,-0.3585,-0.3585,0.0,0.0,0.0,0.0,0.0,0.0,0.0,0.0,0.0,0.0,0.0,0.49,0.4991,0.495,0.0,0.0,0.0,0.0,0.4998,0.5023,0.0,0.0,0.0,0.0,0.0,0.0,0.0,0.0,0.0,0.0,0.0,0.955,0.9823,0.0,0.0,0.0,0.0,0.0,0.0,1.0253,0.9766,0.9629,0.9629,0.8652,0.8339,0.8475,0.8864,0.8995,0.9126,1.001,1.0254,1.0209,1.019,0.0,0.0,0.0,1.008,1.0321,1.1462,1.2278,1.3354,0.0,1.6272,1.6465,1.7501,1.7572,1.7384,1.7208,1.7043,1.6892,1.6847,1.6843,1.6804,1.6589,1.6731,1.6649,1.5978,1.5434,1.5145,1.5118,1.4327,1.3793,1.3888,1.3525,1.3104,1.2578,1.1384,1.0356,0.9681,0.8501,0.7348,0.6317,0.566,0.5062,0.457,0.3916,0.3028,0.1906,0.0,-0.0898,-0.0898,-0.028,0.0,0.0,0.0,-0.0785,-0.1967,-0.1121,-0.1905,-0.354,-0.3081,-0.291,-0.2968,-0.3416,-0.3585,-0.3585,0.0,0.0,0.0,0.0,0.0,0.0,0.0,0.0,0.0,0.0,0.0,0.0,0.4972,0.0,0.0,0.0,0.0,0.0,0.4995,0.0,0.0,0.0,0.0,0.0,0.0,0.0,0.0,0.0,0.0,0.0,0.9014,0.9236,0.9668,0.0,1.0291,1.0309,0.0,0.0,0.0,0.0,0.9588,0.9589,0.9824,0.8516,0.8301,0.8691,0.8922,0.8992,0.9135,0.9986,1.0245,1.0193,1.0207,1.0194,0.0,0.0,0.0,1.0335,1.1636,0.0,1.2103,1.5188,1.5627,1.5694,1.7165,1.7384,1.7208,1.7016,1.6717,1.6474,1.6394,1.6334,1.6245,1.5983,1.6014,1.5882,1.5354,1.4747,1.4372,1.449,1.38,1.339,1.3476,1.3351,1.3127,1.2715,1.176,1.0771,0.9828,0.8869,0.7883,0.6918,0.5987,0.5386,0.5117,0.3796,0.2519,0.1347,-0.0,-0.0729,-0.0898,-0.028,0.0,0.0,0.0,-0.101,-0.2589,-0.1403,-0.1626,-0.2637,-0.2012,-0.2179,-0.2798,-0.3365,-0.3591,-0.3588,0.0,0.0,0.0,0.0,0.0,0.0,0.0,0.0,0.0,0.0,0.0,0.0,0.0,0.0,0.0,0.0,0.0,0.0,0.0,0.0,0.0,0.0,0.0,0.0,0.0,0.0,0.0,0.0,0.0,0.0,0.901,0.9855,1.025,1.0293,1.0293,1.0291,1.0308,0.0,0.0,0.0,0.0,0.976,0.9058,0.8961,0.8452,0.7885,0.8706,0.8992,0.9114,0.9937,1.0197,1.019,1.0208,1.0199,1.019,0.0,0.0,0.0,1.0929,1.0964,0.0,1.4269,1.4727,1.4975,1.6872,1.7208,1.7016,1.6675,1.6394,1.6105,1.5796,1.5492,1.5255,1.5255,1.4805,1.4172,1.3442,1.3188,1.3022,1.2862,1.2294,1.2214,1.3065,1.2716,1.2385,1.2147,1.1434,1.0509,0.9332,0.8547,0.754,0.6263,0.6209,0.5609,0.4574,0.2792,0.1287,0.0112,-0.0,-0.0336,-0.0898,-0.028,0.0,0.0,0.0,-0.0056,-0.0336,-0.2531,-0.2135,-0.0168,-0.0168,-0.1515,-0.3554,-0.361,-0.3604,-0.3596,0.0,0.0,0.0,0.0,0.0,0.0,0.0,0.0,0.0,0.0,0.0,0.0,0.0,0.0,0.0,0.0,0.0,0.0,0.0,0.0,0.0,0.0,0.0,0.0,0.0,0.0,0.0,0.0,0.0,0.677,0.8178,0.8494,0.9237,1.0293,1.0293,1.0292,1.0291,1.0309,0.0,0.0,0.0,0.9622,0.9778,0.9213,0.9155,0.9407,0.972,0.9805,0.982,1.0109,1.0178,1.0138,1.0193,1.0161,1.0113,1.0051,0.9977,1.0087,1.0873,0.0,1.1188,1.3178,1.4034,1.4654,1.5616,1.6306,1.6717,1.6394,1.612,1.5796,1.5448,1.5315,1.5118,1.4704,1.4433,1.4026,1.331,1.2743,1.2494,1.2639,1.2002,1.186,1.2695,1.2298,1.2037,1.2261,1.1134,1.0136,0.9404,0.8301,0.738,0.6678,0.6256,0.5321,0.3947,0.3294,0.1958,0.0,0.0,-0.0112,-0.0336,-0.0112,0.0,0.0,0.0,0.0,-0.0056,-0.0954,-0.1685,-0.2135,-0.0617,-0.0505,-0.1402,-0.2132,-0.2467,-0.2577,0.0,0.0,0.0,0.0,0.0,0.0,0.0,0.0,0.0,0.0,0.0,0.0,0.0,0.0,0.0,0.0,0.0,0.0,0.0,0.0,0.0,0.0,0.0,0.0,0.0,0.0,0.0,0.0,0.0,0.0,0.0,0.787,0.875,0.9863,0.9863,1.0039,0.0,0.0,0.0,1.0249,0.9663,0.9778,1.0265,0.9974,1.0052,1.0344,1.0637,1.0508,1.0191,1.0206,1.0171,1.0143,1.019,1.015,1.0086,1.0029,1.0152,1.0395,1.0632,0.0,0.0,1.2884,1.3328,1.3734,1.5151,1.5678,1.5873,1.5845,1.5758,1.5565,1.5136,1.5088,1.4902,1.4222,1.3993,1.3648,1.2931,1.2401,1.2082,1.2042,1.1551,1.148,1.2135,1.1847,1.1664,1.1888,1.0904,1.0038,0.9374,0.8367,0.7529,0.6912,0.6253,0.5335,0.4098,0.377,0.2792,0.1231,0.0784,0.0392,0.0,0.0,0.0,0.0,0.0,0.0,0.0,0.0,-0.0954,-0.2249,-0.0617,0.0,-0.0112,-0.0896,-0.1175,-0.1287,0.0,0.0,0.0,0.0,0.0,0.0,0.0,0.0,0.0,0.4938,0.0,0.0,0.0,0.0,0.0,0.0,0.0,0.5041,0.5036,0.0,0.0,0.0,0.0,0.0,0.0,0.0,0.0,0.0,0.0,0.0,0.0,0.0,0.8944,0.8964,0.8984,0.9473,1.0253,1.0252,1.027,1.0308,1.0305,1.0305,1.0422,1.1282,1.1086,1.0481,1.1321,1.1042,1.0289,1.0287,1.0261,1.0235,1.0215,1.015,1.0086,1.0029,1.0551,1.098,0.0,0.0,0.0,1.3325,1.256,1.217,1.5469,1.5314,1.4546,1.4975,1.5382,1.5477,1.4904,1.4808,1.4543,1.3802,1.3425,1.2943,1.2222,1.2113,1.1822,1.0995,1.0919,1.1028,1.1358,1.1389,1.1251,1.095,1.0766,1.0176,0.9059,0.8612,0.7923,0.6948,0.6243,0.5643,0.5024,0.4098,0.3622,0.3583,0.2404,0.1231,0.0112,0.0056,0.0056,0.0,0.0,0.0,0.0,0.0,0.0,0.0,0.0,0.0,0.0,0.0,0.0,0.0,0.0,0.0,0.0,0.0,0.0,0.0,0.4894,0.5353,0.5776,0.0,0.0,0.0,0.0,0.0,0.0,0.0,0.0,0.5883,0.593,0.5387,0.5072,0.5101,0.5104,0.5102,0.0,0.0,0.0,0.0,0.0,0.0,0.0,0.0,0.0,0.0,0.8711,0.9138,0.9352,0.9354,0.9724,1.0306,1.0307,1.0655,1.1194,1.1495,1.1849,1.22,1.2454,1.2331,1.2082,1.2083,1.1668,1.1012,1.034,1.0106,1.0086,1.0029,1.0162,1.04,1.0703,0.0,0.0,0.0,0.0,0.0,1.2219,1.2755,1.3299,1.396,1.4173,1.4374,1.4732,1.462,1.4287,1.3782,1.3615,1.3297,1.2567,1.2246,1.192,1.1415,1.1099,1.1056,1.15,1.1203,1.1034,1.1253,1.0504,0.9794,0.919,0.8132,0.7331,0.6896,0.6294,0.5851,0.5648,0.4707,0.4012,0.3619,0.3241,0.2912,0.2581,0.168,0.084,0.0,0.0,0.0,0.0,0.0,0.0,0.0,0.0,0.0,0.0,0.0,0.0,0.0,0.0,0.0,0.0,0.0,0.0,0.6374,0.5905,0.6273,0.6596,0.0,0.0,0.0,0.0,0.0,0.0,0.0,0.0,0.0,0.6254,0.5495,0.5076,0.5091,0.5443,0.5634,0.5647,0.0,0.0,0.0,0.0,0.0,0.0,0.0,0.0,0.7186,0.7695,0.8317,0.898,0.861,0.9153,1.0296,1.0644,1.1086,1.1587,1.2342,1.2738,1.2915,1.3272,1.3154,1.2832,1.2807,1.219,1.1369,1.0807,1.0383,1.009,1.0051,1.0288,1.0554,1.0621,1.0482,0.0,1.1581,0.0,0.0,1.1755,1.2008,1.2258,1.294,1.3605,1.4116,1.4424,1.4394,1.4208,1.3835,1.3615,1.3242,1.2496,1.221,1.1895,1.1314,1.1023,1.1023,1.1271,1.1025,1.0935,1.1143,1.04,0.9677,0.9079,0.807,0.7468,0.7359,0.6801,0.6378,0.6159,0.5515,0.4889,0.4333,0.4073,0.3858,0.358,0.2852,0.2184,0.1459,0.0449,0.0,0.0,0.0,0.0,0.0,0.0,0.0,0.0,0.0,0.0,0.0,0.0,0.0,0.6132,0.6139,0.6851,0.739,0.7322,0.7377,0.7438,0.0,0.0,0.0,0.0,0.0,0.0,0.0,0.0,0.0,0.6355,0.5592,0.5132,0.5104,0.5935,0.6395,0.6405,0.6488,0.0,0.0,0.0,0.0,0.0,0.0,0.0,0.6269,0.6348,0.7322,0.8802,0.8132,0.8747,1.0275,1.1157,1.1557,1.1813,1.3566,1.3747,1.3201,1.4162,1.3936,1.3154,1.2998,1.2387,1.166,1.1457,1.0925,1.0367,1.0271,1.0809,0.0,1.0616,1.0835,0.0,1.2832,1.1473,0.0,1.2854,1.239,1.1605,1.2155,1.3325,1.4212,1.394,1.4146,1.4223,1.3797,1.3465,1.3012,1.2222,1.2113,1.1785,1.0995,1.0891,1.0891,1.0891,1.0891,1.0881,1.0822,1.0312,0.9716,0.8901,0.8307,0.8015,0.8033,0.7629,0.7187,0.6713,0.642,0.5987,0.5441,0.4791,0.4233,0.3724,0.3633,0.3593,0.3495,0.1233,0.0224,0.0168,0.0056,0.0,0.0,0.0,0.0,0.0,0.0,0.0,0.0,0.0,0.6863,0.6965,0.6964,0.7641,0.7983,0.739,0.7843,0.826,0.8261,0.0,0.0,0.0,0.0,0.0,0.0,0.0,0.0,0.7292,0.6489,0.5761,0.5122,0.5935,0.6398,0.6399,0.7086,0.711,0.0,0.0,0.0,0.0,0.0,0.0,0.0,0.609,0.6981,0.7988,0.8467,0.9252,1.0282,1.1152,1.1888,1.2652,1.4406,1.4957,1.5028,1.6595,1.6181,1.48,1.4084,1.37,1.3243,1.1847,1.1761,1.2045,1.1342,1.1719,1.2446,1.2928,1.2648,1.2421,1.3297,1.3021,0.0,1.2288,1.2288,1.2397,1.264,1.278,1.2938,1.3086,1.3765,1.3926,1.2633,1.3189,1.3353,1.2246,1.2113,1.1785,1.0995,1.0891,1.0891,1.0891,1.0891,1.0881,1.0881,1.0147,0.9588,0.939,0.8948,0.8578,0.8334,0.8492,0.8376,0.8036,0.7156,0.6632,0.647,0.5167,0.446,0.4291,0.3802,0.3585,0.3532,0.2402,0.1732,0.1399,0.0392,0.0,0.0,0.0,0.0,0.0,0.0,0.0,0.0,0.719,0.7523,0.7791,0.7799,0.8456,0.8905,0.8587,0.8889,0.9143,0.9152,0.0,0.0,0.0,0.0,0.0,0.0,0.0,0.0,0.818,0.6998,0.6143,0.577,0.6591,0.7051,0.7056,0.7896,0.792,0.7049,0.0,0.0,0.0,0.0,0.0,0.5761,0.6208,0.7119,0.8382,0.8786,0.9431,1.0319,1.1593,1.2606,1.3539,1.5287,1.5939,1.6064,1.7419,1.7345,1.6405,1.5138,1.4648,1.4309,1.2592,1.2357,1.2603,1.2183,1.2329,1.2723,1.3067,1.282,1.2775,1.3874,1.3141,0.0,0.0,1.1925,1.1589,1.2274,1.2486,1.2816,1.3595,1.3825,1.3765,1.3356,1.3363,1.3194,1.2597,1.208,1.1612,1.1244,1.0824,1.0634,1.086,1.0891,1.0891,1.0891,1.0108,0.9628,0.9725,0.9325,0.9084,0.9038,0.9217,0.9211,0.9112,0.8004,0.7433,0.7433,0.6036,0.5336,0.5336,0.4463,0.391,0.3569,0.3183,0.291,0.2635,0.2018,0.1456,0.084,0.0224,0.0,0.0,0.0,0.0,0.0,0.7617,0.8156,0.8614,0.8636,0.9169,0.9646,0.9761,0.9801,0.9803,0.0,0.0,0.0,0.0,0.0,1.0014,0.0,0.0,0.0,0.9022,0.7614,0.6732,0.663,0.7459,0.7937,0.7925,0.8626,0.8552,0.7702,0.0,0.0,0.0,0.5271,0.5722,0.6405,0.6581,0.7533,0.8993,0.8997,0.9565,1.0598,1.2289,1.3189,1.3735,1.5807,1.6435,1.6397,1.7484,1.7961,1.7801,1.6129,1.5521,1.5168,1.3489,1.3064,1.3156,1.2978,1.306,1.32,1.3238,1.3233,1.3487,1.4512,1.3344,1.2128,0.0,0.0,0.0,1.1911,1.2321,1.2857,1.3892,1.3806,1.365,1.3823,1.3389,1.2901,1.2604,1.1865,1.1429,1.155,1.0844,1.0474,1.0866,1.0739,1.0695,1.0871,1.0108,0.975,1.001,0.9668,0.9586,0.981,0.9835,0.9891,1.002,0.8862,0.8283,0.8237,0.6902,0.6204,0.6041,0.4952,0.4177,0.3616,0.3577,0.3588,0.3596,0.3596,0.3028,0.2014,0.084,0.0336,0.0336,0.0112,0.0,0.0,0.9096,0.9311,0.939,0.946,0.9538,0.9623,0.9695,0.9768,0.9817,0.0,0.0,0.0,1.0077,1.0082,1.0373,1.1096,1.035,0.9873,0.9868,0.9011,0.8197,0.7487,0.8305,0.8767,0.8774,0.8851,0.8508,0.7702,0.0,0.0,0.0,0.5898,0.6306,0.644,0.7199,0.0,0.0,0.8994,0.9913,1.1508,1.3175,1.3024,1.2123,1.5304,1.6028,1.5564,1.7229,1.8338,1.8789,1.7046,1.6406,1.6066,1.4386,1.4343,1.4752,1.3989,1.4356,1.5138,1.5718,1.5914,1.5807,1.512,1.5198,1.4869,1.2706,0.0,1.2553,1.247,0.0,1.2304,1.2222,0.0,0.0,1.1812,1.2611,1.2954,1.1583,1.1346,1.1452,1.1793,1.1234,1.084,1.0891,1.0156,1.0004,1.0829,1.0193,0.9873,1.006,1.004,1.0056,1.0219,1.0214,1.0385,1.0761,0.9555,0.8922,0.8869,0.716,0.6086,0.5542,0.4842,0.4187,0.3583,0.3583,0.3585,0.3585,0.3585,0.3527,0.3302,0.2069,0.1623,0.1455,0.0392,0.0,0.0,0.8809,0.9185,0.9517,0.9587,0.9595,0.9641,0.974,0.9844,0.9918,0.0,0.0,1.0152,1.0723,1.0794,1.1154,1.2046,1.1326,1.0803,1.0808,0.9579,0.8716,0.8369,0.8711,0.8893,0.8903,0.8903,0.8733,0.8391,0.7049,0.0,0.0,0.0,0.6678,0.7185,0.8058,0.8933,0.9753,0.9763,1.0162,1.0952,1.2623,1.2578,1.1973,1.6348,1.8067,1.8196,1.8463,1.9112,1.9577,1.7859,1.7282,1.6952,1.5275,1.498,1.5183,1.478,1.4935,1.5411,1.6112,1.6319,1.6243,1.5801,1.5174,1.4254,1.2632,1.167,1.1392,1.2402,0.0,0.0,0.0,0.0,0.0,0.0,1.2632,1.2486,1.2434,1.1756,1.1384,1.1585,1.0681,1.0109,1.0299,1.025,1.0372,1.0878,1.0118,0.9828,1.0234,1.0042,1.0003,1.0196,1.039,1.0595,1.0754,0.953,0.9008,0.9197,0.7765,0.6858,0.6534,0.5546,0.4893,0.457,0.3913,0.3585,0.3585,0.3585,0.3638,0.3633,0.3077,0.2856,0.2802,0.2298,0.1624,0.0952,0.8409,0.0,0.9552,0.9609,0.9617,0.9669,0.9807,0.9927,1.0019,1.0029,0.999,1.0304,1.1219,1.1517,1.2131,1.3256,1.2786,1.2406,1.2406,1.0861,0.9838,0.9597,0.938,0.9253,0.9256,0.9029,0.8898,0.8909,0.7459,0.0,0.0,0.0,0.7458,0.8103,0.8973,0.9829,1.0632,1.0877,1.1123,1.1488,1.3167,1.3609,1.3622,1.7103,1.9206,2.0257,1.9664,1.9838,2.0122,1.8639,1.8161,1.7891,1.6445,1.5826,1.5681,1.584,1.5732,1.5766,1.6693,1.6973,1.6802,1.6067,1.4957,1.3652,1.2079,1.1089,1.0954,1.249,1.2674,0.0,0.0,0.0,1.3187,1.3861,0.0,1.2484,1.252,1.1969,1.1534,1.1408,1.0182,0.9426,0.9618,0.9872,1.0188,1.0594,1.0008,0.9864,1.0323,1.0118,1.0014,1.0128,1.0428,1.066,1.0863,0.976,0.9335,0.9465,0.8309,0.7568,0.7144,0.6199,0.5542,0.5113,0.4242,0.3749,0.3585,0.3585,0.3691,0.3796,0.3691,0.3697,0.3705,0.3649,0.3026,0.2181,0.839,0.9036,0.9628,0.9681,0.9702,0.9745,0.9875,0.9949,1.002,1.0092,1.0092,1.0426,1.1293,1.2082,1.3225,1.4884,1.4999,1.498,1.498,1.3468,1.2195,1.1354,1.0579,1.0154,1.0164,0.9325,0.8893,0.8909,0.8069,0.0,0.0,0.0,0.0,0.0,0.9863,1.0718,1.1517,1.2353,1.3201,1.412,1.5793,1.6969,1.7625,1.6943,1.8236,2.0379,2.036,2.036,2.0263,1.936,1.907,1.8896,1.8007,1.7194,1.67,1.7413,1.7079,1.6778,1.8222,1.8669,1.8136,1.5657,1.5003,1.4077,1.0741,1.1194,1.2466,1.2975,1.4196,1.5353,1.594,1.5832,1.535,0.0,1.4164,0.0,0.0,1.1555,1.2054,1.1466,1.0106,0.9132,0.8958,0.8604,0.881,0.9864,0.995,1.0065,1.019,1.0313,1.0351,1.0303,1.0419,1.0724,1.117,1.0629,1.0073,0.9562,0.8883,0.7984,0.6907,0.6524,0.576,0.4728,0.457,0.4135,0.3585,0.3585,0.3691,0.3796,0.3796,0.3855,0.3968,0.3694,0.3583,0.353,0.9239,0.9478,0.968,0.9699,0.9706,0.9724,0.9819,0.9938,1.02,1.076,1.0879,1.1435,1.2832,1.3277,1.3907,1.5005,1.461,1.4539,1.5076,1.3054,1.22,1.302,1.1223,1.045,1.0973,0.962,0.9173,0.9751,0.8374,0.0,0.0,0.0,0.0,0.0,0.9905,1.076,1.1578,1.1828,1.2446,1.3338,1.4445,1.6083,1.7935,1.8203,1.8808,1.9561,2.0239,2.0416,2.0296,2.0042,1.9588,1.904,1.8747,1.8042,1.7388,1.7636,1.7432,1.7388,1.8469,1.8783,1.846,1.6997,1.5855,1.4463,1.2148,1.2021,1.2554,1.3051,1.4411,1.566,1.6209,1.5695,1.5263,0.0,0.0,1.2958,0.0,1.2265,1.1396,1.0614,1.0404,0.9805,0.85,0.8599,0.9147,1.0025,0.9743,0.9928,1.0814,1.0463,1.0291,1.038,1.041,1.0548,1.0733,1.0271,1.0064,1.013,0.9555,0.883,0.8031,0.7486,0.6784,0.5932,0.555,0.4952,0.4346,0.4346,0.4125,0.3796,0.3796,0.391,0.3965,0.3799,0.3744,0.3744,0.9699,0.9739,0.9747,0.9768,0.9764,0.9791,0.9825,1.0162,1.0599,1.1124,1.1483,1.223,1.3612,1.4091,1.4627,1.5415,1.5295,1.515,1.508,1.3582,1.2928,1.3415,1.1906,1.1308,1.1825,1.0487,1.0064,1.0622,0.9265,0.8876,0.0,0.0,0.0,0.0,0.0,1.1113,1.2496,1.2432,1.3112,1.4201,1.4387,1.5478,1.7066,1.7926,1.857,1.913,1.9732,2.0115,2.0301,2.0379,2.0028,1.9563,1.956,1.893,1.8256,1.8513,1.8308,1.8182,1.9011,1.9229,1.8954,1.7785,1.6747,1.5533,1.3812,1.3849,1.4319,1.4573,1.5863,1.7037,1.7279,1.676,1.6149,0.0,0.0,1.3322,0.0,1.2187,1.1069,1.0656,1.0264,0.9563,0.8346,0.8414,0.8922,0.9875,0.9666,0.9949,1.0903,1.0693,1.0499,1.0351,1.0502,1.0597,1.0701,1.0418,1.0309,1.0381,1.0062,0.9562,0.8935,0.829,0.7652,0.6956,0.6367,0.5714,0.5113,0.5113,0.4783,0.4288,0.4288,0.4236,0.4132,0.3965,0.3852,0.3796,0.9768,0.9801,0.9822,0.9881,0.9888,0.9888,0.9906,1.0634,1.1213,1.1245,1.1957,1.2783,1.366,1.4498,1.5302,1.606,1.6901,1.6728,1.516,1.5035,1.4354,1.2851,1.2673,1.2612,1.2662,1.1825,1.1393,1.1401,1.0585,1.0204,0.0,0.0,0.0,0.0,1.0298,1.1718,1.4093,1.4108,1.5097,1.6614,1.567,1.5306,1.54,1.6193,1.7556,1.9027,1.902,1.9569,2.03,2.0372,2.0399,2.0399,2.0399,1.9812,1.9291,1.9986,1.9609,1.9104,1.982,2.0,1.9621,1.8032,1.7621,1.7189,1.5589,1.6456,1.7526,1.7265,1.8392,1.9331,1.9067,1.8896,1.8004,0.0,0.0,1.4444,1.2503,1.1591,1.1253,1.1629,0.9919,0.8664,0.8577,0.8037,0.8213,0.9469,0.9756,1.0069,1.0534,1.0914,1.0835,1.0278,1.0634,1.0911,1.0981,1.1089,1.0904,1.0404,1.0464,1.019,0.9614,0.8988,0.8349,0.7694,0.7009,0.6372,0.5828,0.5828,0.555,0.5109,0.5105,0.4838,0.4463,0.4135,0.391,0.3796,0.9772,0.9808,0.981,0.9828,0.9818,0.985,0.9888,1.0595,1.1361,1.2015,1.2836,1.3675,1.4497,1.4841,1.5074,1.5283,1.5508,1.5717,1.5888,1.4794,1.4499,1.5304,1.357,1.2908,1.3556,1.2147,1.1393,1.1401,1.06,1.0202,1.0208,0.0,0.0,0.0,0.0,1.1726,1.4105,1.4095,1.5073,1.6532,1.5594,1.5268,1.5379,1.6138,1.7118,1.8139,1.8828,1.9573,2.0246,2.0306,2.0327,2.032,2.033,2.0139,1.9937,2.0131,1.9982,1.9764,2.0021,2.0078,1.9964,1.9545,1.8505,1.75,1.7068,1.7297,1.7526,1.7265,1.849,1.9553,1.9274,1.9082,1.8731,1.8068,1.7258,1.6081,1.4298,1.4154,1.4195,1.4116,1.2632,1.1034,0.9528,0.9126,0.9352,1.033,0.9775,0.9992,1.1383,1.0352,1.0084,1.0899,1.0563,1.0555,1.093,1.1328,1.1366,1.0922,1.1341,1.1057,1.019,1.0035,0.9399,0.8501,0.8296,0.7599,0.6637,0.6637,0.6204,0.555,0.5117,0.468,0.4249,0.419,0.4079,0.391,0.9747,1.0317,1.0806,1.0809,1.1121,1.1145,1.0471,1.0798,1.1412,1.2244,1.3094,1.3806,1.4285,1.4679,1.4904,1.4913,1.493,1.4984,1.506,1.4597,1.4582,1.5144,1.4187,1.3883,1.4412,1.2814,1.1967,1.1968,1.0775,1.0201,1.0204,0.0,0.0,0.0,0.0,1.1493,1.3578,1.4332,1.564,1.7089,1.6153,1.6019,0.0,1.6795,1.7463,1.8294,1.8819,1.9508,2.0169,2.0223,2.0265,2.0265,2.0254,2.0222,2.0188,2.0162,2.0098,2.005,2.0088,2.0098,2.0108,2.0088,1.9354,1.8621,1.8621,1.8564,1.8455,1.8254,1.8958,1.9545,1.9338,1.9196,1.8861,1.8043,1.6723,1.5556,1.4848,1.4962,1.4992,1.4721,1.4084,1.2932,1.1043,0.9986,0.9741,1.0593,1.0171,1.0429,1.1734,1.0912,1.0694,1.1356,1.0809,1.0623,1.0891,1.1446,1.1494,1.1097,1.1634,1.1519,1.0761,1.0506,1.0087,0.9458,0.8981,0.8402,0.7711,0.745,0.6966,0.6263,0.5332,0.4842,0.4629,0.4304,0.4138,0.4079,1.0028,1.122,1.2234,1.2124,1.2815,1.3001,1.1805,1.1512,1.1666,1.2354,1.3251,1.384,1.3913,1.4626,1.5075,1.4982,1.501,1.4679,1.3804,1.4522,1.4641,1.3887,1.4605,1.5045,1.5094,1.364,1.28,1.2695,1.1149,1.0318,0.0,0.0,0.0,0.0,0.0,1.1298,1.3087,1.4705,1.6364,1.7812,1.6879,1.7015,1.7793,1.7773,1.8248,1.8918,1.9026,1.9515,2.0107,2.0167,2.0192,2.0192,2.0192,2.0192,2.0175,2.0116,2.0193,2.026,2.0279,2.0346,2.0413,2.0279,2.0161,2.0039,1.9904,1.9786,1.9663,1.9526,1.9499,1.9462,1.9311,1.9277,1.8724,1.7062,1.5516,1.466,1.5176,1.5157,1.4963,1.4488,1.4767,0.0,1.2439,1.0798,1.0118,1.0746,1.0716,1.1007,1.1838,1.1721,1.1696,1.1752,1.1175,1.0933,1.0995,1.1529,1.1572,1.1186,1.1777,1.1819,1.1377,1.0863,1.0498,1.0344,0.9354,0.8883,0.8778,0.8162,0.7574,0.6972,0.5764,0.5382,0.5332,0.4684,0.4411,0.4356,1.1792,1.2492,1.2944,1.2234,1.2815,1.3756,1.4811,1.3844,1.3068,1.3253,1.4576,1.55,1.5569,1.6306,1.6522,1.5851,1.5806,1.546,1.4644,1.4792,1.4856,1.4705,1.495,1.5092,1.5094,1.4225,1.341,1.2706,1.173,1.092,0.0,0.0,0.0,0.0,0.0,1.1634,1.3935,1.4965,1.6364,1.7812,1.687,1.6999,1.779,1.8425,1.8762,1.8992,1.9701,2.0039,2.0098,2.0116,2.0116,2.0116,2.0116,2.0116,2.0116,2.0098,2.0614,2.1177,2.1168,2.1664,2.1988,2.1198,2.0982,2.0759,1.9912,1.9713,1.9663,1.9526,1.9499,1.9462,1.932,1.9146,1.8907,1.8467,1.8003,1.7636,1.7535,1.7449,1.6863,1.5295,1.5381,1.4489,1.1772,1.1869,1.2003,1.1767,1.0895,1.0933,1.2241,1.1111,1.1025,1.2401,1.143,1.1099,1.1468,1.1963,1.2007,1.1592,1.2432,1.2442,1.1769,1.1669,1.1158,1.0344,0.9718,0.9197,0.8778,0.8162,0.7515,0.6907,0.6686,0.6308,0.5873,0.571,0.5441,0.5011,1.4414,1.3923,1.3614,1.443,1.4596,1.4846,1.5619,1.547,1.5136,1.4794,1.5399,1.5904,1.5985,1.6713,1.6892,1.6074,1.6009,1.5664,1.486,1.4841,1.4867,1.49,1.5,1.508,1.5145,1.4391,1.3586,1.275,1.1912,1.1097,1.0307,1.0293,0.0,1.035,0.0,1.2554,1.4192,1.5501,1.7041,1.852,1.8037,1.8322,1.91,1.9435,1.9572,1.963,2.0044,2.0467,2.0756,2.0298,2.0432,2.0766,2.0766,2.1053,2.1397,2.1397,2.1683,2.2008,2.2008,2.2253,2.23,2.143,2.1066,2.0701,1.9793,1.9545,1.9476,1.9405,1.939,1.9376,1.9305,1.9227,1.9082,1.8843,1.8715,1.8544,1.8215,1.7765,1.6993,1.5714,1.5503,1.4588,1.23,1.2673,1.2478,1.1118,1.1083,1.1442,1.2139,1.169,1.1868,1.2834,1.2025,1.1588,1.1616,1.2227,1.2254,1.1723,1.2394,1.2461,1.1877,1.1678,1.1318,1.0812,1.0241,0.9718,0.9145,0.8268,0.7735,0.7402,0.7015,0.6745,0.6529,0.6145,0.5873,0.5664,1.6214,1.5233,1.4641,1.6552,1.651,1.6266,1.6431,1.7059,1.7167,1.6286,1.6274,1.639,1.6508,1.7242,1.7379,1.6575,1.6544,1.622,1.5414,1.5198,1.5148,1.5193,1.5099,1.5088,1.5196,1.4593,1.3969,1.3331,1.229,1.1448,1.0812,1.0469,1.0507,1.0918,1.2479,1.3708,1.4722,1.5912,1.7493,1.9196,1.9137,1.9577,2.0284,2.0242,2.0342,2.0488,2.0491,2.1058,2.1664,2.0985,2.1168,2.1684,2.1684,2.2095,2.2601,2.2601,2.2713,2.2836,2.2836,2.2733,2.2432,2.1582,2.1044,2.0493,1.9662,1.9376,1.9305,1.9305,1.9305,1.9305,1.9305,1.9274,1.9148,1.8843,1.8752,1.862,1.8236,1.7477,1.6681,1.5872,1.5404,1.4463,1.275,1.2852,1.2266,1.037,1.1216,1.1919,1.2157,1.2411,1.2782,1.3251,1.2696,1.2198,1.1752,1.2399,1.2394,1.1854,1.2353,1.2425,1.2116,1.1719,1.1528,1.1368,1.071,1.0035,0.9354,0.8468,0.8002,0.7848,0.7295,0.7187,0.7192,0.6637,0.6421,0.6317,1.5535,1.6137,1.6538,1.6775,1.7406,1.813,1.8858,1.9036,1.8591,1.7249,1.7647,1.8124,1.8259,1.8938,1.9053,1.8255,1.8282,1.8025,1.7217,1.6531,1.617,1.6162,1.553,1.5195,1.5204,1.5187,1.5133,1.5064,1.3457,1.2637,1.2529,1.1015,1.1133,1.2695,1.3593,1.4901,1.6425,1.5787,1.6953,1.9184,1.9129,1.9573,2.0294,2.0287,2.0781,2.1479,2.1471,2.1985,2.2661,2.2584,2.2566,2.2584,2.2584,2.2583,2.2601,2.2601,2.3077,2.3601,2.3601,2.351,2.3164,2.2174,2.1351,2.0526,1.9549,1.9305,1.9305,1.9305,1.9305,1.9305,1.9305,1.9146,1.8981,1.8825,1.8658,1.8426,1.8155,1.7418,1.6607,1.5816,1.5041,1.3862,1.2071,1.1869,1.1532,1.0718,1.1205,1.188,1.2692,1.2523,1.2824,1.3715,1.3276,1.2766,1.2223,1.23,1.2322,1.2275,1.2662,1.2872,1.2871,1.2559,1.2175,1.1769,1.0804,0.9821,0.8883,0.8778,0.8415,0.7901,0.7842,0.7794,0.7794,0.7735,0.7408,0.7031,1.8202,1.7059,1.6436,1.7967,1.7723,1.7756,1.9034,1.9743,1.9796,1.8821,1.9343,1.966,1.9251,1.9469,1.93,1.8421,1.8495,1.824,1.7404,1.7176,1.7095,1.7147,1.6862,1.6707,1.6758,1.6305,1.5827,1.529,1.4664,1.4097,1.356,1.2887,1.2948,1.3672,1.5059,1.6055,1.6777,1.796,1.8759,1.9292,2.0269,2.083,2.1145,2.1652,2.2061,2.2326,2.2326,2.2868,2.3572,2.3572,2.3506,2.3426,2.3426,2.3675,2.3973,2.3973,2.4117,2.4308,2.4308,2.381,2.3108,2.221,2.13,2.0394,1.9504,1.9305,1.9305,1.9305,1.9305,1.9305,1.9305,1.913,1.8947,1.8825,1.8639,1.8423,1.8194,1.7477,1.6835,1.645,1.4927,1.3513,1.2562,1.1594,1.1192,1.1521,1.0922,1.0885,1.1682,1.192,1.2305,1.2887,1.322,1.3195,1.2766,1.271,1.268,1.2721,1.2655,1.2739,1.2967,1.2403,1.1927,1.1528,1.071,1.0138,0.9718,0.9093,0.8672,0.8415,0.8055,0.7901,0.7901,0.7901,0.7788,0.7574,1.9255,1.7799,1.7023,1.9052,1.8687,1.8429,1.9353,2.0352,2.07,1.9793,2.038,2.0607,1.9863,1.9751,1.9457,1.8809,1.8911,1.8736,1.8164,1.8045,1.8045,1.8113,1.7864,1.774,1.7805,1.7258,1.6792,1.6425,1.5977,1.5567,1.5223,1.5242,1.5249,1.531,1.6795,1.7616,1.7968,1.9759,2.0287,2.0062,2.1503,2.2043,2.2054,2.2678,2.3022,2.3218,2.3218,2.376,2.4485,2.4485,2.4418,2.4298,2.4266,2.4574,2.4934,2.4861,2.4731,2.461,2.461,2.3712,2.2652,2.2078,2.1039,2.0005,1.9418,1.9305,1.9305,1.9305,1.9305,1.9305,1.9305,1.9178,1.9014,1.8825,1.8678,1.8485,1.8253,1.7515,1.689,1.661,1.4758,1.3278,1.2699,1.1579,1.1242,1.2087,1.113,1.0949,1.1936,1.1804,1.2048,1.2866,1.3395,1.348,1.3091,1.3155,1.3193,1.3129,1.291,1.296,1.3266,1.255,1.1968,1.1469,1.1015,1.0651,1.0352,0.9406,0.8935,0.8725,0.8162,0.7901,0.7901,0.7901,0.7901,0.7901,1.7469,1.8235,1.9002,1.977,2.0637,2.1021,2.03,2.1096,2.126,1.9792,2.0464,2.0819,2.0082,1.9806,1.9745,1.9862,1.9885,1.9931,2.0059,1.9388,1.9008,1.9079,1.8266,1.7794,1.7794,1.7859,1.8261,1.9042,1.7392,1.7021,1.7861,1.7922,1.7959,1.7984,1.8863,1.9742,2.0544,2.0519,2.0945,2.1747,2.2624,2.2934,2.2881,2.29,2.3434,2.4184,2.4184,2.4701,2.5379,2.5379,2.5341,2.5271,2.513,2.5044,2.4966,2.4775,2.4556,2.4407,2.4407,2.3138,2.1821,2.1803,2.0554,1.9308,1.9289,1.9305,1.9305,1.9305,1.9305,1.9305,1.9305,1.9289,1.9196,1.8861,1.8789,1.8658,1.8274,1.7515,1.6701,1.5911,1.4452,1.3109,1.2107,1.1743,1.1769,1.2158,1.205,1.2666,1.4264,1.2471,1.2287,1.4219,1.3974,1.356,1.3091,1.3627,1.3722,1.3406,1.3669,1.3871,1.3973,1.3314,1.2589,1.1877,1.1877,1.1318,1.0352,0.9821,0.9302,0.8725,0.8162,0.7901,0.7901,0.7901,0.7901,0.7901,2.0604,2.0466,2.0383,2.0675,2.0985,2.1077,2.0845,2.1298,2.1307,2.0348,2.0685,2.0991,2.0827,2.0808,2.0774,2.0732,2.1335,2.1518,2.0938,2.0826,2.0518,1.9934,1.9645,1.9799,2.045,1.932,1.9137,1.9981,1.89,1.8503,1.8793,1.9419,1.9704,1.9747,2.0654,2.1537,2.2299,2.2279,2.242,2.2723,2.3509,2.3818,2.3844,2.4455,2.4819,2.5015,2.5015,2.5172,2.5388,2.5244,2.5173,2.5118,2.4907,2.4837,2.4818,2.4623,2.4425,2.4248,2.4266,2.3051,2.1803,2.1803,2.0554,1.9305,1.9305,1.9305,1.9305,1.9305,1.9305,1.9305,1.9305,1.9196,1.9031,1.8843,1.8678,1.8505,1.8253,1.7983,1.7704,1.7387,1.6049,1.4874,1.4192,1.266,1.1875,1.2179,1.1647,1.1927,1.3307,1.2734,1.2623,1.3272,1.3613,1.3708,1.3573,1.3783,1.3874,1.3865,1.4032,1.3915,1.3563,1.317,1.2589,1.1877,1.1877,1.1569,1.0964,1.0395,0.9821,0.9302,0.8725,0.8262,0.7901,0.7901,0.7901,0.7901,2.1613,2.1494,2.1392,2.1419,2.171,2.1821,2.1519,2.1801,2.177,2.1015,2.125,2.1519,2.1601,2.1976,2.2057,2.1699,2.2217,2.2359,2.1895,2.197,2.1663,2.0827,2.1092,2.1403,2.1655,2.0927,2.0785,2.1345,2.0866,2.0631,2.0636,2.1175,2.1458,2.1503,2.2081,2.2621,2.3118,2.3456,2.3562,2.362,2.4404,2.4729,2.4788,2.5297,2.5468,2.5434,2.5437,2.5421,2.5387,2.5264,2.5154,2.5057,2.4828,2.4779,2.4719,2.4495,2.4321,2.4192,2.4209,2.3254,2.2171,2.1894,2.1013,2.0152,1.9822,1.9748,1.9656,1.9344,1.9305,1.9305,1.9305,1.9212,1.9064,1.8895,1.8734,1.8544,1.8322,1.8253,1.7966,1.736,1.6448,1.5408,1.4193,1.3406,1.2912,1.2739,1.2829,1.3259,1.4031,1.3397,1.3164,1.3571,1.3862,1.4013,1.4088,1.4364,1.4575,1.4728,1.4662,1.4283,1.3621,1.3467,1.2939,1.2126,1.2126,1.1819,1.1267,1.0659,1.019,0.9821,0.9086,0.8567,0.8209,0.8002,0.7901,0.7901,2.0943,2.1557,2.2066,2.2066,2.2741,2.3041,2.2276,2.2515,2.2501,2.1771,2.2027,2.2308,2.2364,2.3156,2.3436,2.281,2.2723,2.2729,2.2863,2.2881,2.2524,2.1729,2.2458,2.2532,2.1789,2.2518,2.29,2.2888,2.2959,2.2993,2.3008,2.3067,2.3119,2.3198,2.3256,2.3283,2.3332,2.416,2.4446,2.4479,2.5269,2.559,2.5582,2.5531,2.5499,2.5492,2.5507,2.5464,2.5401,2.5387,2.5254,2.5077,2.4923,2.4794,2.4645,2.4375,2.4266,2.421,2.419,2.3602,2.2813,2.2061,2.1839,2.1584,2.0794,2.0539,2.0283,1.9528,1.9326,1.9305,1.9305,1.9305,1.9243,1.9014,1.8878,1.8715,1.8505,1.8319,1.7656,1.6226,1.6054,1.5192,1.2981,1.4109,1.4627,1.3744,1.5139,1.5976,1.5887,1.4411,1.3982,1.4935,1.4566,1.446,1.465,1.5251,1.5647,1.5825,1.5473,1.4858,1.402,1.402,1.344,1.252,1.2529,1.2076,1.1326,1.071,1.0454,1.03,0.9302,0.8883,0.8725,0.8156,0.7955,0.7901,2.2485,2.2667,2.2856,2.2856,2.3021,2.3074,2.288,2.266,2.245,2.2369,2.2181,2.2339,2.3064,2.3427,2.3825,2.4302,2.4423,2.4228,2.3686,2.3688,2.3362,2.2562,2.2703,2.3036,2.3504,2.3122,2.2893,2.2888,2.2966,2.3003,2.3012,2.3674,2.4005,2.4038,2.4717,2.5038,2.5105,2.5292,2.5388,2.5386,2.5535,2.5605,2.5595,2.5582,2.5538,2.5492,2.5505,2.5495,2.544,2.5234,2.5115,2.4975,2.4749,2.4613,2.4515,2.4393,2.4376,2.4339,2.4229,2.3603,2.2959,2.2758,2.2244,2.1748,2.1528,2.0978,2.0448,2.0262,1.973,1.9305,1.9305,1.9305,1.9196,1.8895,1.8825,1.8677,1.8319,1.8232,1.8052,1.769,1.7656,1.7312,1.6442,1.6083,1.5483,1.4438,1.4968,1.5143,1.4648,1.5576,1.5935,1.5505,1.5159,1.5085,1.5265,1.5879,1.6173,1.6089,1.5576,1.4949,1.4291,1.4104,1.3573,1.288,1.2618,1.2224,1.1728,1.1267,1.0812,1.0352,1.0138,0.951,0.8778,0.862,0.8315,0.7901,2.2995,2.3045,2.3052,2.3077,2.3095,2.3095,2.3095,2.3066,2.3082,2.3146,2.316,2.334,2.3852,2.4016,2.4312,2.4818,2.4993,2.4934,2.4506,2.452,2.4187,2.3381,2.3717,2.3984,2.4107,2.4047,2.4069,2.4094,2.4128,2.4148,2.4154,2.4666,2.489,2.4918,2.5386,2.5619,2.5652,2.5641,2.5663,2.5698,2.5668,2.5652,2.5648,2.5615,2.5574,2.5543,2.5544,2.5531,2.5461,2.5303,2.5149,2.4987,2.4779,2.4629,2.4532,2.4465,2.443,2.4394,2.4266,2.3934,2.3584,2.3548,2.2941,2.2354,2.2354,2.1987,2.142,2.0649,2.0152,1.9748,1.9363,1.9305,1.9212,1.8948,1.8843,1.8678,1.8383,1.8256,1.8211,1.8211,1.813,1.7808,1.7149,1.6752,1.6096,1.5082,1.5345,1.5557,1.5564,1.6508,1.6712,1.5941,1.5913,1.5954,1.6057,1.6546,1.6651,1.6436,1.6107,1.5522,1.4823,1.4547,1.3941,1.317,1.2842,1.251,1.2175,1.1927,1.1569,1.1057,1.0795,1.0226,0.9458,0.8981,0.8567,0.8262,2.297,2.2977,2.302,2.3095,2.3095,2.3095,2.3095,2.3468,2.3774,2.3795,2.4174,2.4478,2.4495,2.4615,2.4714,2.4791,2.495,2.5095,2.5184,2.5176,2.4881,2.4204,2.4887,2.4975,2.4293,2.5014,2.5425,2.5484,2.548,2.5483,2.5492,2.5579,2.5585,2.5596,2.5591,2.5603,2.5595,2.5618,2.5644,2.569,2.5701,2.5694,2.5691,2.5648,2.5615,2.5605,2.5599,2.557,2.5492,2.5429,2.5284,2.5072,2.4888,2.4734,2.4599,2.4532,2.4482,2.4411,2.4339,2.4321,2.4284,2.4229,2.3695,2.3199,2.318,2.3088,2.2593,2.1111,2.0634,2.025,1.9522,1.9285,1.9109,1.8801,1.8843,1.8767,1.8325,1.8336,1.831,1.8168,1.7988,1.7562,1.6686,1.6791,1.6543,1.5719,1.6042,1.6537,1.7178,1.7363,1.7181,1.66,1.6838,1.6912,1.6809,1.7073,1.7018,1.671,1.671,1.6194,1.5311,1.504,1.4398,1.3467,1.316,1.2832,1.2569,1.252,1.2274,1.1877,1.1334,1.0838,1.0293,0.9406,0.8935,0.8725,2.2893,2.297,2.302,2.3095,2.3095,2.3095,2.3095,2.3348,2.362,2.3774,2.4058,2.4321,2.4478,2.4564,2.4663,2.4791,2.4836,2.4922,2.5095,2.5132,2.5091,2.5026,2.5143,2.5175,2.5129,2.5293,2.5397,2.5429,2.5429,2.5445,2.5503,2.5576,2.5562,2.5525,2.5563,2.5598,2.5605,2.5662,2.5699,2.5698,2.569,2.5701,2.5691,2.5687,2.5652,2.561,2.5605,2.5585,2.5564,2.5434,2.5274,2.5072,2.5013,2.4842,2.4676,2.4615,2.4582,2.4549,2.443,2.4339,2.4284,2.4284,2.4192,2.4082,2.4026,2.3474,2.285,2.237,2.1243,2.021,1.9882,1.9309,1.8592,1.7719,1.8651,1.8936,1.7443,1.8331,1.8834,1.8034,1.7905,1.7721,1.7226,1.7011,1.6777,1.6465,1.6809,1.7085,1.7193,1.833,1.8783,1.8403,1.8031,1.7674,1.737,1.7271,1.7018,1.671,1.671,1.6194,1.5311,1.504,1.4547,1.3868,1.3266,1.2967,1.288,1.2618,1.2274,1.1877,1.1819,1.1209,1.0403,1.019,0.9562,0.8778,2.2842,2.2876,2.291,2.3045,2.3095,2.3095,2.3095,2.3319,2.3576,2.3774,2.3999,2.4248,2.4462,2.453,2.458,2.4679,2.4729,2.4806,2.4931,2.5038,2.5132,2.5203,2.5198,2.5231,2.5311,2.5332,2.537,2.5406,2.5393,2.541,2.5453,2.5554,2.556,2.5505,2.5613,2.5627,2.5603,2.5662,2.57,2.5703,2.5698,2.5693,2.5707,2.5697,2.5683,2.5652,2.5648,2.563,2.5599,2.5492,2.5346,2.5175,2.5049,2.4888,2.4753,2.4676,2.4615,2.4532,2.4482,2.4393,2.4358,2.4358,2.4339,2.4284,2.421,2.3916,2.3456,2.2749,2.2019,2.1311,2.0624,2.021,1.9797,1.9225,1.9728,1.973,1.8422,1.8844,1.8994,1.8155,1.7878,1.7786,1.793,1.7575,1.7404,1.7616,1.7666,1.7869,1.8315,1.8883,1.9308,1.9588,1.8659,1.7935,1.7516,1.7323,1.7115,1.6976,1.6808,1.638,1.578,1.5311,1.4777,1.4197,1.3763,1.3467,1.3314,1.3142,1.2842,1.2442,1.2264,1.1819,1.1158,1.0608,0.9932,0.919,2.279,2.2799,2.2833,2.2995,2.3028,2.3095,2.3095,2.3271,2.3508,2.3774,2.3921,2.4135,2.4482,2.4515,2.453,2.458,2.465,2.4711,2.4794,2.4945,2.507,2.5168,2.5184,2.5209,2.5271,2.5283,2.5332,2.5389,2.5387,2.5401,2.5426,2.5532,2.5561,2.5525,2.5651,2.5675,2.5627,2.5681,2.5702,2.5709,2.5705,2.5701,2.5698,2.5704,2.5694,2.5691,2.5703,2.5671,2.561,2.5537,2.5414,2.5264,2.5088,2.4936,2.4827,2.4753,2.4631,2.4517,2.45,2.4465,2.443,2.443,2.4358,2.4321,2.4247,2.421,2.3932,2.2978,2.2664,2.2237,2.1312,2.1,2.0762,2.0433,2.069,2.0517,1.9435,1.9602,1.955,1.8748,1.8404,1.8325,1.8649,1.8308,1.8184,1.8467,1.847,1.87,1.9271,1.9359,1.958,2.008,1.8983,1.8147,1.7611,1.7323,1.7199,1.7199,1.685,1.6522,1.62,1.5591,1.5006,1.4477,1.4161,1.3868,1.3668,1.3621,1.3362,1.2967,1.2706,1.2323,1.1819,1.1006,1.0344,0.9718,2.279,2.2816,2.2825,2.2995,2.3003,2.3045,2.3095,2.3119,2.3277,2.3732,2.3816,2.4018,2.4446,2.45,2.4534,2.4599,2.4615,2.466,2.4779,2.4808,2.4898,2.5101,2.516,2.5198,2.5217,2.5271,2.5302,2.5313,2.537,2.544,2.5492,2.5576,2.5604,2.5604,2.5677,2.5703,2.5694,2.5703,2.5698,2.5693,2.5693,2.5707,2.5698,2.569,2.5701,2.5691,2.5703,2.5699,2.5667,2.5531,2.5403,2.5283,2.5141,2.5038,2.4964,2.4827,2.4707,2.4582,2.4517,2.45,2.45,2.45,2.4447,2.4376,2.4321,2.4229,2.404,2.3454,2.2793,2.2162,2.1652,2.0942,2.0217,1.9527,2.0614,2.1004,1.9521,2.0539,2.1093,2.0174,2.0023,1.9816,1.9296,1.9214,1.8977,1.8529,1.9061,1.9355,1.9287,1.9888,1.9965,1.9487,1.8945,1.8408,1.7882,1.7406,1.7199,1.7199,1.685,1.6522,1.62,1.5591,1.5051,1.4651,1.4208,1.3973,1.3962,1.3716,1.3362,1.3016,1.2967,1.254,1.1877,1.1828,1.1167,1.0241,2.2738,2.2738,2.2764,2.2868,2.2927,2.302,2.3028,2.3052,2.3253,2.3732,2.3795,2.3979,2.4465,2.45,2.4498,2.4547,2.4564,2.4647,2.4726,2.4738,2.4842,2.5089,2.512,2.5168,2.5187,2.5209,2.5261,2.5302,2.5332,2.5387,2.5498,2.5571,2.5591,2.5546,2.5654,2.568,2.5637,2.5683,2.5699,2.5694,2.5694,2.5691,2.5703,2.5698,2.569,2.5701,2.5691,2.5703,2.5695,2.5649,2.5506,2.5357,2.5255,2.5126,2.4972,2.4842,2.4749,2.4707,2.4599,2.4515,2.45,2.45,2.4482,2.4429,2.4321,2.4191,2.3939,2.3482,2.3081,2.2693,2.2332,2.2014,2.1721,2.1445,2.1918,2.1936,2.0884,2.1246,2.129,2.0426,2.0102,2.0042,2.0251,1.9964,1.9805,1.9909,2.0063,2.0071,1.9919,2.0165,2.0025,1.9413,1.9087,1.8592,1.7922,1.757,1.7323,1.7199,1.665,1.6318,1.62,1.5513,1.5006,1.4708,1.4523,1.4244,1.3973,1.3868,1.3668,1.3372,1.3112,1.2686,1.2224,1.1977,1.1267,1.03,2.2712,2.2712,2.2712,2.279,2.2893,2.2944,2.2977,2.3045,2.323,2.3732,2.3795,2.3979,2.4465,2.45,2.4498,2.4495,2.4547,2.4599,2.4666,2.4679,2.4802,2.5025,2.5089,2.512,2.5195,2.5206,2.5209,2.5282,2.5283,2.536,2.5468,2.5517,2.5521,2.5504,2.5622,2.5634,2.5606,2.5662,2.5702,2.5697,2.5697,2.5694,2.5709,2.5703,2.5698,2.5693,2.5701,2.5691,2.5699,2.5634,2.5512,2.5385,2.5274,2.5138,2.4966,2.4837,2.4794,2.4764,2.4647,2.4566,2.4534,2.45,2.4482,2.443,2.4284,2.4134,2.3915,2.345,2.3253,2.307,2.2764,2.2712,2.2712,2.2712,2.2712,2.2539,2.2022,2.1953,2.1721,2.1187,2.0875,2.0853,2.1211,2.0874,2.0697,2.0893,2.0695,2.0494,2.0304,2.0304,2.0025,1.9413,1.9265,1.8798,1.8003,1.7652,1.7393,1.7199,1.665,1.6318,1.62,1.5558,1.5108,1.4834,1.4754,1.4477,1.4104,1.401,1.3821,1.3563,1.3314,1.2987,1.2608,1.2224,1.1569,1.0753,2.2712,2.2712,2.2712,2.279,2.2816,2.2842,2.2995,2.2995,2.3182,2.3732,2.3795,2.3979,2.4465,2.45,2.4498,2.4495,2.4495,2.4528,2.4599,2.4666,2.4757,2.4888,2.5025,2.5139,2.521,2.5195,2.5209,2.5192,2.5282,2.5341,2.5395,2.5398,2.5447,2.5507,2.558,2.5601,2.5603,2.5662,2.5703,2.5702,2.5702,2.57,2.5693,2.5709,2.5703,2.5698,2.5693,2.5704,2.566,2.548,2.5403,2.5367,2.5164,2.5044,2.4966,2.4837,2.4794,2.4764,2.4629,2.4599,2.4582,2.4517,2.4447,2.4339,2.4135,2.4096,2.3935,2.3407,2.3289,2.3168,2.2764,2.2712,2.2712,2.2712,2.2712,2.2712,2.2712,2.2712,2.2712,2.2712,2.2712,2.2508,2.2056,2.1998,2.1764,2.1151,2.0893,2.0662,2.0304,2.0304,2.0025,1.9413,1.9413,1.9003,1.8202,1.7733,1.7393,1.7199,1.685,1.6522,1.62,1.578,1.5412,1.5108,1.4834,1.4605,1.4373,1.4104,1.3868,1.3621,1.3621,1.3362,1.2967,1.2608,1.2234,1.1778,2.2712,2.2712,2.2712,2.2738,2.2764,2.2842,2.2919,2.297,2.3151,2.3531,2.371,2.3919,2.4192,2.4393,2.45,2.4498,2.4513,2.4547,2.4666,2.4701,2.4726,2.4823,2.487,2.4972,2.5126,2.512,2.5149,2.5209,2.5212,2.5293,2.539,2.5403,2.5432,2.5499,2.5563,2.5606,2.559,2.5676,2.5703,2.5702,2.5702,2.57,2.5693,2.5693,2.5707,2.5698,2.5698,2.5693,2.5678,2.5526,2.5441,2.536,2.5168,2.5044,2.4993,2.4953,2.4945,2.4903,2.4783,2.4753,2.4707,2.4532,2.4482,2.4447,2.4284,2.3979,2.3671,2.3427,2.3109,2.2842,2.2712,2.2712,2.2712,2.2712,2.2712,2.2712,2.2712,2.2712,2.2712,2.2712,2.2596,2.236,2.2027,2.1869,2.154,2.0925,2.0628,2.0407,2.0304,2.0304,2.0025,1.9413,1.9413,1.9003,1.8202,1.7909,1.7666,1.7393,1.6921,1.6522,1.62,1.578,1.5412,1.5108,1.5017,1.4834,1.4605,1.4384,1.4104,1.3868,1.3668,1.3362,1.2967,1.2608,1.2234,1.1778,2.2712,2.2712,2.2712,2.2712,2.2738,2.279,2.2868,2.2876,2.3052,2.3394,2.3624,2.3816,2.3979,2.4154,2.4302,2.4339,2.4445,2.453,2.4615,2.465,2.4679,2.4772,2.4768,2.4856,2.5101,2.5101,2.5132,2.5187,2.5209,2.5243,2.5312,2.5348,2.5385,2.5412,2.549,2.5537,2.5556,2.5622,2.5681,2.5703,2.5703,2.5702,2.5698,2.5698,2.5694,2.5705,2.5705,2.5701,2.5687,2.5576,2.5467,2.5329,2.5164,2.5057,2.5032,2.5006,2.4999,2.4959,2.4842,2.4794,2.4749,2.4631,2.4549,2.4481,2.4303,2.3959,2.3628,2.3392,2.3049,2.2764,2.2712,2.2712,2.2712,2.2712,2.2712,2.2712,2.2712,2.2712,2.2712,2.2712,2.2515,2.2304,2.2027,2.1811,2.1464,2.086,2.0595,2.0441,2.0304,2.0304,2.008,1.9566,1.9581,1.9199,1.8503,1.8293,1.7935,1.7516,1.7102,1.6723,1.6392,1.6001,1.5647,1.5289,1.5153,1.4971,1.4697,1.4466,1.4244,1.3962,1.3716,1.3467,1.317,1.2842,1.2461,1.2026,2.2712,2.2712,2.2712,2.2712,2.2712,2.2712,2.279,2.2816,2.2952,2.3319,2.3558,2.3732,2.3774,2.3901,2.402,2.4059,2.4284,2.4481,2.4495,2.4564,2.4615,2.4701,2.4695,2.4832,2.5076,2.5089,2.512,2.5195,2.5206,2.5209,2.5212,2.5252,2.5292,2.5302,2.5371,2.5447,2.5507,2.557,2.5648,2.5702,2.5702,2.5703,2.5702,2.5702,2.57,2.5694,2.5694,2.5709,2.5696,2.5628,2.5459,2.5293,2.5153,2.5113,2.5088,2.5038,2.4993,2.4966,2.4856,2.4827,2.4813,2.4738,2.466,2.4547,2.4284,2.4019,2.3714,2.3392,2.3098,2.2876,2.2738,2.2712,2.2712,2.2712,2.2712,2.2712,2.2712,2.2712,2.2712,2.2712,2.2542,2.2304,2.2027,2.1781,2.1402,2.0827,2.0794,2.0628,2.0304,2.0304,2.015,1.9788,1.9788,1.95,1.8936,1.8707,1.8226,1.7516,1.7323,1.7018,1.668,1.6392,1.6001,1.5591,1.5289,1.4971,1.4697,1.4466,1.4244,1.402,1.3716,1.3621,1.3563,1.317,1.2793,1.2471,2.2712,2.2712,2.2712,2.2712,2.2712,2.2712,2.279,2.2825,2.2944,2.3077,2.3491,2.3732,2.3576,2.3819,2.3943,2.3798,2.3981,2.4229,2.4495,2.4512,2.4582,2.4682,2.4698,2.4742,2.487,2.4907,2.5006,2.512,2.5172,2.5198,2.5198,2.5212,2.5252,2.5292,2.5367,2.5439,2.5507,2.5563,2.5644,2.5702,2.5702,2.5703,2.5702,2.5702,2.5701,2.5698,2.5696,2.5693,2.5685,2.5613,2.5473,2.5293,2.5264,2.5187,2.5101,2.5082,2.5038,2.498,2.4959,2.4964,2.4936,2.4813,2.4783,2.4704,2.4495,2.4192,2.3862,2.3544,2.323,2.2982,2.2747,2.2712,2.2712,2.2712,2.2712,2.2712,2.2712,2.2712,2.2712,2.2712,2.2659,2.2453,2.2056,2.154,2.1119,2.0827,2.0662,2.0494,2.0304,2.0304,2.0115,1.9747,1.9767,1.9573,1.9132,1.8616,1.8161,1.7788,1.757,1.7186,1.671,1.6637,1.625,1.5591,1.5501,1.5322,1.4971,1.4558,1.4384,1.4291,1.381,1.3621,1.3563,1.317,1.2967,1.2783,2.2712,2.2712,2.2712,2.2712,2.2712,2.2712,2.2738,2.279,2.2842,2.2944,2.3307,2.3508,2.3342,2.3558,2.3692,2.3671,2.3862,2.4117,2.4428,2.4478,2.4528,2.4599,2.4666,2.4714,2.4757,2.4808,2.494,2.5101,2.5132,2.518,2.5195,2.5198,2.522,2.5261,2.5284,2.5371,2.5504,2.5537,2.5619,2.5699,2.5701,2.5703,2.5703,2.5703,2.5703,2.5701,2.5699,2.5696,2.5685,2.5621,2.5504,2.5383,2.5321,2.5253,2.5176,2.5107,2.5089,2.5044,2.5023,2.501,2.4977,2.4903,2.4842,2.4749,2.4596,2.4301,2.3946,2.3631,2.3323,2.3014,2.2747,2.2712,2.2712,2.2712,2.2712,2.2712,2.2712,2.2712,2.2659,2.2569,2.2453,2.2169,2.1705,2.1402,2.1103,2.0827,2.0695,2.0527,2.0304,2.0304,2.015,1.9889,1.9909,1.9767,1.9369,1.8945,1.8539,1.8175,1.7598,1.7227,1.6934,1.6607,1.6262,1.5869,1.5501,1.5232,1.5062,1.4605,1.4373,1.4326,1.381,1.3621,1.3563,1.3362,1.3074,1.2647,2.2712,2.2712,2.2712,2.2712,2.2712,2.2712,2.2712,2.2712,2.2764,2.2868,2.3151,2.3253,2.3102,2.3223,2.3353,2.35,2.378,2.4058,2.4303,2.4445,2.4495,2.4495,2.4746,2.4888,2.4907,2.4979,2.5021,2.5044,2.5057,2.5107,2.5168,2.5172,2.5195,2.5198,2.5201,2.5312,2.5479,2.5493,2.5576,2.5709,2.5853,2.5915,2.5936,2.6093,2.6133,2.6133,2.6132,2.605,2.5898,2.5691,2.5576,2.549,2.536,2.5312,2.5264,2.5144,2.5101,2.5089,2.5023,2.501,2.501,2.501,2.4917,2.4798,2.466,2.4407,2.4081,2.3738,2.3414,2.3111,2.2799,2.2738,2.2738,2.2712,2.2712,2.2712,2.2712,2.2712,2.2632,2.246,2.2186,2.1823,2.1402,2.1325,2.1151,2.0827,2.0794,2.0662,2.0304,2.0304,2.0235,2.01,2.01,1.9925,1.9603,1.9332,1.8983,1.85,1.7679,1.7282,1.724,1.665,1.6318,1.6231,1.5558,1.5244,1.5153,1.4605,1.4373,1.4326,1.381,1.3621,1.361,1.3515,1.3045,1.2274,2.2712,2.2712,2.2712,2.2712,2.2712,2.2712,2.2712,2.2764,2.279,2.2816,2.3151,2.3277,2.3028,2.2995,2.3035,2.3159,2.3459,2.3759,2.404,2.4321,2.4498,2.4495,2.5235,2.568,2.5749,2.5815,2.5502,2.4842,2.4907,2.4993,2.5114,2.5095,2.5125,2.5187,2.5198,2.5274,2.5426,2.5473,2.5537,2.5684,2.6509,2.6829,2.691,2.7655,2.7948,2.7949,2.7947,2.7453,2.6702,2.5932,2.5632,2.5571,2.5506,2.5398,2.5265,2.5141,2.5095,2.5089,2.5023,2.501,2.501,2.501,2.4996,2.4936,2.4813,2.4642,2.4408,2.3945,2.378,2.354,2.2977,2.285,2.2842,2.2712,2.2712,2.2712,2.2712,2.2712,2.2685,2.2659,2.2271,2.1911,2.1648,2.145,2.1151,2.0827,2.0794,2.0662,2.0304,2.0304,2.0235,2.01,2.01,2.0045,1.9919,1.9442,1.8983,1.8592,1.7988,1.7639,1.7434,1.7199,1.6905,1.6595,1.6219,1.5869,1.5457,1.4697,1.4373,1.4326,1.381,1.3621,1.3563,1.3218,1.2589,1.1977,2.2712,2.2712,2.2712,2.2712,2.2712,2.2712,2.2712,2.2738,2.2764,2.279,2.2977,2.3102,2.302,2.2944,2.2977,2.314,2.3673,2.4185,2.4636,2.5217,2.5632,2.5837,2.6264,2.6505,2.6559,2.6592,2.6456,2.6145,2.5767,2.5868,2.6439,2.6439,2.6492,2.6579,2.6082,2.6192,2.6699,2.6288,2.645,2.7039,2.7498,2.7696,2.7765,2.8142,2.8299,2.8241,2.7753,2.7337,2.6862,2.5998,2.5673,2.5632,2.5581,2.5486,2.5382,2.5205,2.5164,2.512,2.5031,2.4999,2.5004,2.501,2.501,2.4977,2.4936,2.4798,2.4575,2.4118,2.3903,2.3628,2.3122,2.296,2.2868,2.2712,2.2712,2.2712,2.2712,2.2712,2.2659,2.2542,2.2118,2.1797,2.1724,2.1464,2.1151,2.0827,2.0794,2.0662,2.0304,2.0304,2.0235,2.0061,2.0045,1.999,1.9848,1.9508,1.9199,1.9026,1.8372,1.7774,1.7323,1.706,1.685,1.668,1.6362,1.5957,1.5546,1.4915,1.4547,1.4326,1.381,1.3621,1.3563,1.317,1.2774,1.2452]}]]